[[{"header":{"parameterUnit":"m.s-1","parameterCategory":1,"la1":31.0,"la2":29.5877,"lo1":-88.7671,"lo2":-86.6584,"dx":0.0162,"dy":0.0185,"nx":115,"ny":88,"refTime":"2023-01-12T06:00:00:Z","depth":0,"parameterNumber":2,"parameterNumberName":"U-component_of_WINDS"},"data":[0.0,0.0,0.0,0.0,0.0,0.0,0.0,0.0,0.0,0.0,0.0,0.0,0.0,0.0,0.0,0.0,0.0,0.0,0.0,0.0,0.0,0.0,0.0,0.0,0.0,0.0,0.0,0.0,0.0,0.0,0.0,0.0,0.0,0.0,0.0,0.0,0.0,0.0,0.0,0.0,0.0,0.0,0.0,0.0,0.0,0.0,0.0,0.0,0.0,0.0,0.0,0.0,0.0,0.0,0.0,0.0,0.0,0.0,0.0,0.0,0.0,0.0,0.0,0.0,0.0,0.0,0.0,0.0,0.0,0.0,0.0,0.0,0.0,0.0,0.0,0.0,0.0,0.0,0.0,0.0,0.0,0.0,0.0,0.0,0.0,0.0,0.0,0.0,0.0,0.0,0.0,0.0,0.0,0.0,0.0,0.0,0.0,0.0,0.0,0.0,0.0,0.0,0.0,0.0,0.0,0.0,0.0,0.0,0.0,0.0,0.0,0.0,0.0,0.0,0.0,0.0,0.0,0.0,0.0,0.0,0.0,0.0,0.0,0.0,0.0,0.0,0.0,0.0,0.0,0.0,0.0,0.0,0.0,0.0,0.0,0.0,0.0,0.0,0.0,0.0,0.0,0.0,0.0,0.0,0.0,0.0,0.0,0.0,0.0,0.0,0.0,0.0,0.0,0.0,0.0,0.0,0.0,0.0,0.0,0.0,0.0,0.0,0.0,0.0,0.0,0.0,0.0,0.0,0.0,0.0,0.0,0.0,0.0,0.0,0.0,0.0,0.0,0.0,0.0,0.0,0.0,0.0,0.0,0.0,0.0,0.0,0.0,0.0,0.0,0.0,0.0,0.0,0.0,0.0,0.0,0.0,0.0,0.0,0.0,0.0,0.0,0.0,0.0,0.0,0.0,0.0,0.0,0.0,0.0,0.0,0.0,0.0,0.0,0.0,0.0,0.0,0.0,0.0,0.0,0.0,0.0,0.0,0.0,0.0,0.0,0.0,0.0,0.0,0.0,0.0,0.0,0.0,0.0,0.0,0.0,0.0,0.0,0.0,0.0,0.0,0.0,0.0,0.0,0.0,0.0,0.0,0.0,0.0,0.0,0.0,0.0,0.0,0.0,0.0,0.0,0.0,0.0,0.0,0.0,0.0,0.0,0.0,0.0,0.0,0.0,0.0,0.0,0.0,0.0,0.0,0.0,0.0,0.0,0.0,0.0,0.0,0.0,0.0,0.0,0.0,0.0,0.0,0.0,0.0,0.0,0.0,0.0,0.0,0.0,0.0,0.0,0.0,0.0,0.0,0.0,0.0,0.0,0.0,0.0,0.0,0.0,0.0,0.0,0.0,0.0,0.0,0.0,0.0,0.0,0.0,0.0,0.0,0.0,0.0,0.0,0.0,0.0,0.0,0.0,0.0,0.0,0.0,0.0,0.0,0.0,0.0,0.0,0.0,0.0,0.0,0.0,0.0,0.0,0.0,0.0,0.0,0.0,0.0,0.0,0.0,0.0,0.0,0.0,0.0,0.0,0.0,0.0,0.0,0.0,0.0,0.0,0.0,0.0,0.0,0.0,0.0,0.0,0.0,0.0,0.0,0.0,0.0,0.0,0.0,0.0,0.0,0.0,0.0,0.0,0.0,0.0,0.0,0.0,0.0,0.0,0.0,0.0,0.0,0.0,0.0,0.0,0.0,0.0,0.0,0.0,0.0,0.0,0.0,0.0,0.0,0.0,0.0,0.0,0.0,0.0,0.0,0.0,0.0,0.0,0.0,0.0,0.0,0.0,0.0,0.0,0.0,0.0,0.0,0.0,0.0,0.0,0.0,0.0,0.0,0.0,0.0,0.0,0.0,0.0,0.0,0.0,0.0,0.0,0.0,0.0,0.0,0.0,0.0,0.0,0.0,0.0,0.0,0.0,0.0,0.0,0.0,0.0,0.0,0.0,0.0,0.0,0.0,0.0,0.0,0.0,0.0,0.0,0.0,0.0,0.0,0.0,0.0,0.0,0.0,0.0,0.0,0.0,0.0,0.0,0.0,0.0,0.0,0.0,0.0,0.0,0.0,0.0,0.0,0.0,0.0,0.0,0.0,0.0,0.0,0.0,0.0,0.0,0.0,0.0,0.0,0.0,0.0,0.0,0.0,0.0,0.0,0.0,0.0,0.0,0.0,0.0,0.0,0.0,0.0,0.0,0.0,0.0,0.0,0.0,0.0,0.0,0.0,0.0,0.0,0.0,0.0,0.0,0.0,0.0,0.0,0.0,0.0,0.0,0.0,0.0,0.0,0.0,0.0,0.0,0.0,0.0,0.0,0.0,0.0,0.0,0.0,0.0,0.0,0.0,0.0,0.0,0.0,0.0,0.0,0.0,0.0,0.0,0.0,0.0,0.0,0.0,0.0,0.0,0.0,0.0,0.0,0.0,0.0,0.0,0.0,0.0,0.0,0.0,0.0,0.0,0.0,0.0,0.0,0.0,0.0,0.0,0.0,0.0,0.0,0.0,0.0,0.0,0.0,0.0,0.0,0.0,0.0,0.0,0.0,0.0,0.0,0.0,0.0,0.0,0.0,0.0,0.0,0.0,0.0,0.0,0.0,0.0,0.0,0.0,0.0,0.0,0.0,0.0,0.0,0.0,0.0,0.0,0.0,0.0,0.0,0.0,0.0,0.0,0.0,0.0,0.0,0.0,0.0,0.0,0.0,0.0,0.0,0.0,0.0,0.0,0.0,0.0,0.0,0.0,0.0,0.0,0.0,0.0,0.0,0.0,0.0,0.0,0.0,0.0,0.0,0.0,0.0,0.0,0.0,0.0,0.0,0.0,0.0,0.0,0.0,0.0,0.0,0.0,0.0,0.0,0.0,0.0,0.0,0.0,0.0,0.0,0.0,0.0,0.0,0.0,0.0,0.0,0.0,0.0,0.0,0.0,0.0,0.0,0.0,0.0,0.0,0.0,0.0,0.0,0.0,0.0,0.0,0.0,0.0,0.0,0.0,0.0,0.0,0.0,0.0,0.0,0.0,0.0,0.0,0.0,0.0,0.0,0.0,0.0,0.0,0.0,0.0,0.0,0.0,0.0,0.0,0.0,0.0,0.0,0.0,0.0,0.0,0.0,0.0,0.0,0.0,0.0,0.0,0.0,0.0,0.0,0.0,0.0,0.0,0.0,0.0,0.0,0.0,0.0,0.0,0.0,0.0,0.0,0.0,0.0,0.0,0.0,0.0,0.0,0.0,0.0,0.0,0.0,0.0,0.0,0.0,0.0,0.0,0.0,0.0,0.0,0.0,0.0,0.0,0.0,0.0,0.0,0.0,0.0,0.0,0.0,0.0,0.0,0.0,0.0,0.0,0.0,0.0,0.0,0.0,0.0,0.0,0.0,0.0,0.0,0.0,0.0,0.0,0.0,0.0,0.0,0.0,0.0,0.0,0.0,0.0,0.0,0.0,0.0,0.0,0.0,0.0,0.0,0.0,0.0,0.0,0.0,0.0,0.0,0.0,0.0,0.0,0.0,0.0,0.0,0.0,0.0,0.0,0.0,0.0,0.0,0.0,0.0,0.0,0.0,0.0,0.0,0.0,0.0,0.0,0.0,0.0,0.0,0.0,0.0,0.0,0.0,0.0,0.0,0.0,0.0,0.0,0.0,0.0,0.0,0.0,0.0,0.0,0.0,0.0,0.0,0.0,0.0,0.0,0.0,0.0,0.0,0.0,0.0,0.0,0.0,0.0,0.0,0.0,0.0,0.0,0.0,0.0,0.0,0.0,0.0,0.0,0.0,0.0,0.0,0.0,0.0,0.0,0.0,0.0,0.0,0.0,0.0,0.0,0.0,0.0,0.0,0.0,0.0,0.0,0.0,0.0,0.0,0.0,0.0,0.0,0.0,0.0,0.0,0.0,0.0,0.0,0.0,0.0,0.0,0.0,0.0,0.0,0.0,0.0,0.0,0.0,0.0,0.0,0.0,0.0,0.0,0.0,0.0,0.0,0.0,0.0,0.0,0.0,0.0,0.0,0.0,0.0,0.0,0.0,0.0,0.0,0.0,0.0,0.0,0.0,0.0,0.0,0.0,0.0,0.0,0.0,0.0,0.0,0.0,0.0,0.0,0.0,0.0,0.0,0.0,0.0,0.0,0.0,0.0,0.0,0.0,0.0,0.0,0.0,0.0,0.0,0.0,0.0,0.0,0.0,0.0,0.0,0.0,0.0,0.0,0.0,0.0,0.0,0.0,0.0,0.0,0.0,0.0,0.0,0.0,0.0,-2.076,0.0,0.0,0.0,-2.1199,0.0,0.0,0.0,0.0,0.0,0.0,0.0,0.0,0.0,0.0,0.0,0.0,0.0,0.0,0.0,0.0,0.0,0.0,0.0,0.0,0.0,0.0,0.0,0.0,0.0,0.0,0.0,0.0,0.0,0.0,0.0,0.0,0.0,0.0,0.0,0.0,0.0,0.0,0.0,0.0,0.0,0.0,0.0,0.0,0.0,0.0,0.0,0.0,0.0,0.0,0.0,0.0,0.0,0.0,0.0,0.0,0.0,0.0,0.0,0.0,0.0,0.0,0.0,0.0,0.0,0.0,0.0,0.0,0.0,0.0,0.0,0.0,0.0,0.0,0.0,0.0,0.0,0.0,0.0,0.0,0.0,0.0,0.0,0.0,0.0,0.0,0.0,0.0,0.0,0.0,0.0,0.0,0.0,0.0,0.0,0.0,0.0,0.0,0.0,0.0,0.0,0.0,0.0,0.0,0.0,0.0,0.0,0.0,0.0,0.0,-2.066,-2.0728,-2.086,-2.0974,-2.1135,0.0,0.0,0.0,0.0,0.0,0.0,0.0,0.0,0.0,0.0,0.0,0.0,0.0,0.0,0.0,0.0,0.0,0.0,0.0,0.0,0.0,0.0,0.0,0.0,0.0,0.0,0.0,0.0,0.0,0.0,0.0,0.0,0.0,0.0,0.0,0.0,0.0,0.0,0.0,0.0,0.0,0.0,0.0,0.0,0.0,0.0,0.0,0.0,0.0,0.0,0.0,0.0,0.0,0.0,0.0,0.0,0.0,0.0,0.0,0.0,0.0,0.0,0.0,0.0,0.0,0.0,0.0,0.0,0.0,0.0,0.0,0.0,0.0,0.0,0.0,0.0,0.0,0.0,0.0,0.0,0.0,0.0,0.0,0.0,0.0,0.0,0.0,0.0,0.0,0.0,0.0,0.0,0.0,0.0,0.0,0.0,0.0,0.0,0.0,0.0,0.0,0.0,0.0,0.0,0.0,0.0,0.0,0.0,0.0,0.0,0.0,0.0,-2.1015,-2.1084,-2.1103,0.0,0.0,0.0,0.0,0.0,0.0,0.0,0.0,0.0,0.0,0.0,0.0,0.0,0.0,0.0,0.0,0.0,0.0,0.0,0.0,0.0,0.0,0.0,0.0,0.0,0.0,0.0,0.0,0.0,0.0,0.0,0.0,0.0,0.0,0.0,0.0,0.0,0.0,0.0,0.0,0.0,0.0,0.0,0.0,0.0,0.0,0.0,0.0,0.0,0.0,0.0,0.0,0.0,0.0,0.0,0.0,0.0,0.0,0.0,0.0,0.0,0.0,0.0,0.0,0.0,0.0,0.0,0.0,0.0,0.0,0.0,0.0,0.0,0.0,0.0,0.0,0.0,0.0,0.0,0.0,0.0,0.0,0.0,0.0,0.0,0.0,0.0,0.0,0.0,0.0,0.0,0.0,0.0,0.0,0.0,0.0,0.0,0.0,0.0,0.0,0.0,0.0,0.0,0.0,0.0,0.0,0.0,0.0,0.0,0.0,-2.1361,-2.1547,-2.1586,0.0,-2.1167,0.0,0.0,0.0,0.0,0.0,0.0,0.0,0.0,0.0,0.0,0.0,0.0,0.0,0.0,0.0,0.0,0.0,0.0,0.0,0.0,0.0,0.0,0.0,0.0,0.0,0.0,0.0,0.0,0.0,0.0,0.0,0.0,0.0,0.0,0.0,0.0,0.0,0.0,0.0,0.0,0.0,0.0,0.0,0.0,0.0,0.0,0.0,0.0,0.0,0.0,0.0,0.0,0.0,0.0,0.0,0.0,0.0,0.0,0.0,0.0,0.0,0.0,0.0,0.0,0.0,0.0,0.0,0.0,0.0,0.0,0.0,0.0,0.0,0.0,0.0,0.0,0.0,0.0,0.0,0.0,0.0,0.0,0.0,0.0,0.0,0.0,0.0,0.0,0.0,0.0,0.0,0.0,0.0,0.0,0.0,0.0,0.0,0.0,0.0,0.0,0.0,0.0,0.0,0.0,0.0,0.0,0.0,0.0,0.0,0.0,-2.1618,-2.2168,-2.2023,-2.1881,0.0,0.0,0.0,0.0,0.0,0.0,0.0,0.0,0.0,0.0,0.0,0.0,0.0,0.0,0.0,0.0,0.0,0.0,0.0,0.0,0.0,0.0,0.0,0.0,0.0,0.0,0.0,0.0,0.0,0.0,0.0,0.0,0.0,0.0,0.0,0.0,0.0,0.0,0.0,0.0,0.0,0.0,0.0,0.0,0.0,0.0,0.0,0.0,0.0,0.0,0.0,0.0,0.0,0.0,0.0,0.0,0.0,0.0,0.0,0.0,0.0,0.0,0.0,0.0,0.0,0.0,0.0,0.0,0.0,0.0,0.0,0.0,0.0,0.0,0.0,0.0,0.0,0.0,0.0,0.0,0.0,0.0,0.0,0.0,0.0,0.0,0.0,0.0,0.0,0.0,0.0,0.0,0.0,0.0,0.0,0.0,0.0,0.0,0.0,0.0,0.0,0.0,0.0,0.0,0.0,0.0,0.0,0.0,0.0,0.0,-2.1547,-2.2145,-2.2805,-2.2744,-2.2495,-2.2196,0.0,0.0,0.0,0.0,0.0,0.0,0.0,0.0,0.0,0.0,0.0,0.0,0.0,0.0,0.0,0.0,0.0,0.0,0.0,0.0,0.0,0.0,0.0,0.0,0.0,0.0,0.0,0.0,0.0,0.0,0.0,0.0,0.0,0.0,0.0,0.0,0.0,0.0,0.0,0.0,0.0,0.0,0.0,0.0,0.0,0.0,0.0,0.0,0.0,0.0,0.0,0.0,0.0,0.0,0.0,0.0,0.0,0.0,0.0,0.0,0.0,0.0,0.0,0.0,0.0,0.0,0.0,0.0,0.0,0.0,0.0,0.0,0.0,0.0,0.0,0.0,0.0,0.0,0.0,0.0,0.0,0.0,0.0,0.0,0.0,0.0,0.0,0.0,0.0,0.0,0.0,0.0,0.0,0.0,0.0,0.0,0.0,0.0,0.0,0.0,0.0,0.0,0.0,0.0,0.0,0.0,0.0,0.0,-2.0888,-2.228,-2.3209,-2.3534,-2.3841,-2.3415,0.0,0.0,0.0,0.0,0.0,0.0,0.0,0.0,0.0,0.0,0.0,0.0,0.0,0.0,0.0,0.0,0.0,0.0,0.0,0.0,0.0,0.0,0.0,0.0,0.0,0.0,0.0,0.0,0.0,0.0,0.0,0.0,0.0,0.0,0.0,0.0,0.0,0.0,0.0,0.0,0.0,0.0,0.0,0.0,0.0,0.0,0.0,0.0,0.0,0.0,0.0,0.0,0.0,0.0,0.0,0.0,0.0,0.0,0.0,0.0,0.0,0.0,0.0,0.0,0.0,0.0,0.0,0.0,0.0,0.0,0.0,0.0,0.0,0.0,0.0,0.0,0.0,0.0,0.0,0.0,0.0,0.0,0.0,0.0,0.0,0.0,0.0,0.0,0.0,0.0,0.0,0.0,0.0,0.0,0.0,0.0,0.0,0.0,0.0,0.0,0.0,0.0,0.0,0.0,0.0,0.0,0.0,0.0,0.0,-2.2064,-2.3254,-2.3978,-2.422,-2.4156,-2.3962,0.0,0.0,0.0,0.0,0.0,0.0,0.0,0.0,0.0,0.0,0.0,0.0,0.0,0.0,0.0,0.0,0.0,0.0,0.0,0.0,0.0,0.0,0.0,0.0,0.0,0.0,0.0,0.0,0.0,0.0,0.0,0.0,0.0,0.0,0.0,0.0,0.0,0.0,0.0,0.0,0.0,0.0,0.0,0.0,0.0,0.0,0.0,0.0,0.0,0.0,0.0,0.0,0.0,0.0,0.0,0.0,0.0,0.0,0.0,0.0,0.0,0.0,0.0,0.0,0.0,0.0,0.0,0.0,0.0,0.0,0.0,0.0,0.0,0.0,0.0,0.0,0.0,0.0,0.0,0.0,0.0,0.0,0.0,0.0,0.0,0.0,0.0,0.0,0.0,0.0,0.0,0.0,0.0,0.0,0.0,0.0,0.0,0.0,0.0,0.0,0.0,0.0,0.0,0.0,0.0,0.0,0.0,0.0,0.0,-2.342,-2.4371,-2.4964,-2.5186,-2.4886,-2.4773,0.0,0.0,0.0,0.0,0.0,0.0,0.0,0.0,0.0,0.0,0.0,0.0,0.0,0.0,0.0,0.0,0.0,0.0,0.0,0.0,0.0,0.0,0.0,0.0,0.0,0.0,0.0,0.0,0.0,0.0,0.0,0.0,0.0,0.0,0.0,0.0,0.0,0.0,0.0,0.0,0.0,0.0,0.0,0.0,0.0,0.0,0.0,0.0,0.0,0.0,0.0,0.0,0.0,0.0,0.0,0.0,0.0,0.0,0.0,0.0,0.0,0.0,0.0,0.0,0.0,0.0,0.0,0.0,0.0,0.0,0.0,0.0,0.0,0.0,0.0,0.0,0.0,0.0,0.0,0.0,0.0,0.0,0.0,0.0,0.0,0.0,0.0,0.0,0.0,0.0,0.0,0.0,0.0,0.0,0.0,0.0,0.0,0.0,0.0,0.0,0.0,0.0,0.0,0.0,0.0,0.0,0.0,0.0,-2.2834,-2.4754,-2.5606,-2.6168,-2.6483,-2.6198,-2.5875,0.0,0.0,0.0,0.0,0.0,0.0,0.0,0.0,0.0,0.0,0.0,0.0,0.0,0.0,0.0,0.0,0.0,0.0,0.0,0.0,0.0,0.0,0.0,0.0,0.0,0.0,0.0,0.0,0.0,0.0,0.0,0.0,0.0,0.0,0.0,0.0,0.0,0.0,0.0,0.0,0.0,0.0,0.0,0.0,0.0,0.0,0.0,0.0,0.0,0.0,0.0,0.0,0.0,0.0,0.0,0.0,0.0,0.0,0.0,0.0,0.0,0.0,0.0,0.0,0.0,0.0,0.0,0.0,0.0,0.0,0.0,0.0,0.0,0.0,0.0,0.0,0.0,0.0,0.0,0.0,0.0,0.0,0.0,0.0,0.0,0.0,0.0,0.0,0.0,0.0,0.0,0.0,0.0,0.0,0.0,0.0,0.0,0.0,0.0,0.0,0.0,0.0,0.0,0.0,0.0,0.0,0.0,0.0,0.0,-2.62,-2.6976,-2.752,-2.7837,-2.7547,-2.7254,0.0,0.0,0.0,0.0,0.0,0.0,0.0,0.0,0.0,0.0,0.0,0.0,0.0,0.0,0.0,0.0,0.0,0.0,0.0,0.0,0.0,0.0,0.0,0.0,0.0,0.0,0.0,0.0,0.0,0.0,0.0,0.0,0.0,0.0,0.0,0.0,0.0,0.0,0.0,0.0,0.0,0.0,0.0,0.0,0.0,0.0,0.0,0.0,0.0,0.0,0.0,0.0,0.0,0.0,0.0,0.0,0.0,0.0,0.0,0.0,0.0,0.0,0.0,0.0,0.0,0.0,0.0,0.0,0.0,0.0,0.0,0.0,0.0,0.0,0.0,0.0,0.0,0.0,0.0,0.0,0.0,0.0,0.0,0.0,0.0,0.0,0.0,0.0,0.0,0.0,0.0,0.0,0.0,0.0,0.0,0.0,0.0,0.0,0.0,0.0,0.0,0.0,0.0,0.0,0.0,0.0,0.0,0.0,0.0,-2.9309,-2.9433,-2.9607,-2.9853,-2.9373,-2.8976,-2.8705,0.0,0.0,0.0,0.0,0.0,0.0,0.0,0.0,0.0,0.0,0.0,0.0,0.0,0.0,0.0,0.0,0.0,0.0,0.0,0.0,0.0,0.0,0.0,0.0,0.0,0.0,0.0,0.0,0.0,0.0,0.0,0.0,0.0,0.0,0.0,0.0,0.0,0.0,0.0,0.0,0.0,0.0,0.0,0.0,0.0,0.0,0.0,0.0,0.0,0.0,0.0,0.0,0.0,0.0,0.0,0.0,0.0,0.0,0.0,0.0,0.0,0.0,0.0,0.0,0.0,0.0,0.0,0.0,0.0,0.0,0.0,0.0,0.0,0.0,0.0,0.0,0.0,0.0,0.0,0.0,0.0,0.0,0.0,0.0,0.0,0.0,0.0,0.0,0.0,0.0,0.0,0.0,0.0,0.0,0.0,0.0,0.0,0.0,0.0,0.0,0.0,0.0,0.0,0.0,0.0,0.0,0.0,0.0,-3.3574,-3.2762,-3.2327,-3.2344,-3.1565,-3.0903,0.0,0.0,0.0,0.0,0.0,0.0,0.0,0.0,0.0,0.0,0.0,0.0,0.0,0.0,0.0,0.0,0.0,0.0,0.0,0.0,0.0,0.0,0.0,0.0,0.0,0.0,0.0,0.0,0.0,0.0,0.0,0.0,0.0,0.0,0.0,0.0,0.0,0.0,0.0,0.0,0.0,0.0,0.0,0.0,0.0,0.0,0.0,0.0,0.0,0.0,0.0,0.0,0.0,0.0,0.0,0.0,0.0,0.0,0.0,0.0,0.0,0.0,0.0,0.0,0.0,0.0,0.0,0.0,0.0,0.0,0.0,0.0,0.0,0.0,0.0,0.0,0.0,0.0,0.0,0.0,0.0,0.0,0.0,0.0,0.0,0.0,0.0,0.0,0.0,0.0,0.0,0.0,0.0,0.0,0.0,0.0,0.0,0.0,0.0,0.0,0.0,0.0,0.0,0.0,0.0,0.0,0.0,0.0,0.0,-3.4921,-3.5774,-3.5667,-3.4454,-3.4175,-3.3108,0.0,0.0,0.0,0.0,0.0,0.0,0.0,0.0,0.0,0.0,0.0,0.0,0.0,0.0,0.0,0.0,0.0,0.0,0.0,0.0,0.0,0.0,0.0,0.0,0.0,0.0,0.0,0.0,0.0,0.0,0.0,0.0,0.0,0.0,0.0,0.0,0.0,0.0,0.0,0.0,0.0,0.0,0.0,0.0,0.0,0.0,0.0,0.0,0.0,0.0,0.0,0.0,0.0,0.0,0.0,0.0,0.0,0.0,0.0,0.0,0.0,0.0,0.0,0.0,0.0,0.0,0.0,0.0,0.0,0.0,0.0,0.0,0.0,0.0,0.0,0.0,0.0,0.0,0.0,0.0,0.0,0.0,0.0,0.0,0.0,0.0,0.0,0.0,0.0,0.0,0.0,0.0,0.0,0.0,0.0,0.0,0.0,0.0,0.0,0.0,0.0,0.0,0.0,0.0,0.0,0.0,0.0,0.0,-3.525,-3.7105,-3.8327,-3.8568,-3.7651,-3.6322,-3.4839,0.0,0.0,0.0,0.0,0.0,0.0,0.0,0.0,0.0,0.0,0.0,0.0,0.0,0.0,0.0,0.0,0.0,0.0,0.0,0.0,0.0,0.0,0.0,0.0,0.0,0.0,0.0,0.0,0.0,0.0,0.0,0.0,0.0,0.0,0.0,0.0,0.0,0.0,0.0,0.0,0.0,0.0,0.0,0.0,0.0,0.0,0.0,0.0,0.0,0.0,0.0,0.0,0.0,0.0,0.0,0.0,0.0,0.0,0.0,0.0,0.0,0.0,0.0,0.0,0.0,0.0,0.0,0.0,0.0,0.0,0.0,0.0,0.0,0.0,0.0,0.0,0.0,0.0,0.0,0.0,0.0,0.0,0.0,0.0,0.0,0.0,0.0,0.0,0.0,0.0,0.0,0.0,0.0,0.0,0.0,0.0,0.0,0.0,0.0,0.0,0.0,0.0,0.0,0.0,0.0,0.0,0.0,0.0,-3.6926,-3.9349,-4.0311,-4.0891,-4.1013,-3.8305,-3.6352,0.0,0.0,0.0,0.0,0.0,0.0,0.0,0.0,0.0,0.0,0.0,0.0,0.0,0.0,0.0,0.0,0.0,0.0,0.0,0.0,0.0,0.0,0.0,0.0,0.0,0.0,0.0,0.0,0.0,0.0,0.0,0.0,0.0,0.0,0.0,0.0,0.0,0.0,0.0,0.0,0.0,0.0,0.0,0.0,0.0,0.0,0.0,0.0,0.0,0.0,0.0,0.0,0.0,0.0,0.0,0.0,0.0,0.0,0.0,0.0,0.0,0.0,0.0,0.0,0.0,0.0,0.0,0.0,0.0,0.0,0.0,0.0,0.0,0.0,0.0,0.0,0.0,0.0,0.0,0.0,0.0,0.0,0.0,0.0,0.0,0.0,0.0,0.0,0.0,0.0,0.0,0.0,0.0,0.0,0.0,0.0,0.0,0.0,0.0,0.0,0.0,0.0,0.0,0.0,0.0,0.0,0.0,0.0,-3.7793,-3.9379,-4.0613,-4.1437,-4.1771,-4.0392,-3.8456,0.0,0.0,0.0,0.0,0.0,0.0,0.0,0.0,0.0,0.0,0.0,0.0,0.0,0.0,0.0,0.0,0.0,0.0,0.0,0.0,0.0,0.0,0.0,0.0,0.0,0.0,0.0,0.0,0.0,0.0,0.0,0.0,0.0,0.0,0.0,0.0,0.0,0.0,0.0,0.0,0.0,0.0,0.0,0.0,0.0,0.0,0.0,0.0,-3.2406,0.0,0.0,0.0,0.0,0.0,0.0,0.0,0.0,0.0,0.0,0.0,0.0,0.0,0.0,0.0,0.0,0.0,0.0,0.0,0.0,0.0,0.0,0.0,0.0,0.0,0.0,0.0,0.0,0.0,0.0,0.0,0.0,0.0,0.0,0.0,0.0,0.0,0.0,0.0,0.0,0.0,0.0,0.0,0.0,0.0,0.0,0.0,0.0,0.0,0.0,0.0,0.0,0.0,0.0,0.0,0.0,0.0,0.0,0.0,-3.9619,-4.1167,-4.2252,-4.2956,-4.335,-4.2223,-4.032,0.0,0.0,0.0,0.0,0.0,0.0,0.0,0.0,0.0,0.0,0.0,0.0,0.0,0.0,0.0,0.0,0.0,0.0,0.0,0.0,0.0,0.0,0.0,0.0,0.0,0.0,0.0,0.0,0.0,0.0,0.0,0.0,0.0,0.0,0.0,0.0,0.0,0.0,0.0,0.0,0.0,0.0,0.0,0.0,0.0,0.0,0.0,0.0,0.0,0.0,0.0,0.0,0.0,0.0,0.0,0.0,0.0,0.0,0.0,0.0,0.0,0.0,0.0,0.0,0.0,0.0,0.0,0.0,0.0,0.0,0.0,0.0,0.0,0.0,0.0,0.0,0.0,0.0,0.0,0.0,0.0,0.0,0.0,0.0,0.0,0.0,0.0,0.0,0.0,0.0,0.0,0.0,0.0,0.0,0.0,0.0,0.0,0.0,0.0,0.0,0.0,0.0,0.0,0.0,0.0,0.0,0.0,-3.902,-4.1564,-4.323,-4.4077,-4.4609,-4.4959,-4.3736,-4.1918,-3.953,0.0,0.0,0.0,0.0,0.0,0.0,0.0,0.0,0.0,0.0,0.0,0.0,0.0,0.0,0.0,0.0,0.0,0.0,0.0,0.0,0.0,0.0,0.0,0.0,0.0,0.0,0.0,0.0,0.0,0.0,0.0,0.0,0.0,0.0,0.0,0.0,0.0,0.0,-2.9296,-3.1707,0.0,0.0,0.0,0.0,0.0,0.0,0.0,0.0,-3.5458,0.0,0.0,0.0,0.0,0.0,0.0,0.0,0.0,0.0,0.0,0.0,0.0,0.0,0.0,0.0,0.0,0.0,0.0,0.0,0.0,0.0,0.0,0.0,0.0,0.0,0.0,0.0,0.0,0.0,0.0,0.0,0.0,0.0,0.0,0.0,0.0,0.0,0.0,0.0,0.0,0.0,0.0,0.0,0.0,0.0,0.0,0.0,0.0,0.0,0.0,0.0,0.0,0.0,0.0,0.0,0.0,-3.7105,-4.0374,-4.2462,-4.329,-4.4526,-4.509,-4.4989,-4.417,-4.2805,-4.0707,0.0,0.0,0.0,0.0,0.0,0.0,0.0,0.0,0.0,0.0,0.0,0.0,0.0,0.0,0.0,0.0,0.0,0.0,0.0,0.0,0.0,0.0,0.0,0.0,0.0,0.0,0.0,0.0,0.0,0.0,0.0,0.0,0.0,0.0,0.0,0.0,0.0,0.0,0.0,-3.3646,-3.5106,0.0,0.0,0.0,0.0,0.0,0.0,0.0,0.0,-3.6779,0.0,0.0,0.0,0.0,0.0,0.0,0.0,0.0,0.0,0.0,0.0,0.0,0.0,0.0,0.0,0.0,0.0,0.0,0.0,0.0,0.0,0.0,0.0,0.0,0.0,0.0,0.0,0.0,0.0,0.0,0.0,0.0,0.0,0.0,0.0,0.0,0.0,0.0,0.0,0.0,0.0,0.0,0.0,0.0,0.0,0.0,0.0,0.0,0.0,0.0,0.0,0.0,0.0,0.0,0.0,-3.8452,-4.1384,-4.3359,-4.4347,-4.5304,-4.5721,-4.5465,-4.4798,-4.3387,0.0,0.0,0.0,0.0,0.0,0.0,0.0,0.0,0.0,0.0,0.0,0.0,0.0,0.0,0.0,0.0,0.0,0.0,0.0,0.0,0.0,0.0,0.0,0.0,0.0,0.0,0.0,0.0,0.0,0.0,0.0,0.0,0.0,0.0,0.0,0.0,0.0,0.0,0.0,0.0,-3.5106,-3.6557,-3.7873,0.0,0.0,0.0,0.0,0.0,0.0,-3.9095,-3.8288,0.0,0.0,0.0,0.0,0.0,0.0,0.0,0.0,0.0,0.0,0.0,0.0,0.0,0.0,0.0,0.0,0.0,0.0,0.0,0.0,0.0,0.0,0.0,0.0,0.0,0.0,0.0,0.0,0.0,0.0,0.0,0.0,0.0,0.0,0.0,0.0,0.0,0.0,0.0,0.0,0.0,0.0,0.0,0.0,0.0,0.0,0.0,0.0,0.0,0.0,0.0,0.0,0.0,0.0,0.0,-3.9798,-4.2432,-4.4347,-4.5484,-4.6172,-4.6311,-4.591,-4.5364,-4.3914,0.0,0.0,0.0,0.0,0.0,0.0,0.0,0.0,0.0,0.0,0.0,0.0,0.0,0.0,0.0,0.0,0.0,0.0,0.0,0.0,0.0,0.0,0.0,0.0,0.0,0.0,0.0,0.0,0.0,0.0,0.0,0.0,0.0,0.0,0.0,0.0,0.0,0.0,0.0,0.0,0.0,-3.7899,-3.9529,-4.0081,0.0,0.0,0.0,0.0,-4.0822,-4.0538,0.0,0.0,0.0,0.0,0.0,0.0,0.0,0.0,0.0,0.0,0.0,0.0,0.0,0.0,0.0,0.0,0.0,0.0,0.0,0.0,0.0,0.0,0.0,0.0,0.0,0.0,0.0,0.0,0.0,0.0,0.0,0.0,0.0,0.0,0.0,0.0,0.0,0.0,0.0,0.0,0.0,0.0,0.0,0.0,0.0,0.0,0.0,0.0,0.0,0.0,0.0,0.0,0.0,0.0,0.0,0.0,-4.1115,-4.3748,-4.5424,-4.616,-4.686,-4.6761,-4.594,-4.586,-4.4374,0.0,0.0,0.0,0.0,0.0,0.0,0.0,0.0,0.0,0.0,0.0,0.0,0.0,0.0,0.0,0.0,0.0,0.0,0.0,0.0,0.0,0.0,0.0,0.0,0.0,0.0,0.0,0.0,0.0,0.0,0.0,0.0,0.0,0.0,0.0,0.0,0.0,0.0,0.0,0.0,0.0,-3.9021,-3.9742,-4.1413,-4.253,0.0,0.0,-4.2705,-4.2614,-4.2068,0.0,0.0,0.0,0.0,0.0,0.0,0.0,0.0,0.0,0.0,0.0,0.0,0.0,0.0,0.0,0.0,0.0,0.0,0.0,0.0,0.0,0.0,0.0,0.0,0.0,0.0,0.0,0.0,0.0,0.0,0.0,0.0,0.0,0.0,0.0,0.0,0.0,0.0,0.0,0.0,0.0,0.0,0.0,0.0,0.0,0.0,0.0,0.0,0.0,0.0,0.0,0.0,0.0,0.0,0.0,-3.92,-4.2402,-4.4347,-4.5633,-4.6279,-4.698,-4.7074,-4.6557,-4.6132,-4.4802,0.0,0.0,0.0,0.0,0.0,0.0,0.0,0.0,0.0,0.0,0.0,0.0,0.0,0.0,0.0,0.0,0.0,0.0,0.0,0.0,0.0,0.0,0.0,0.0,0.0,0.0,0.0,0.0,0.0,0.0,0.0,0.0,0.0,0.0,0.0,0.0,0.0,0.0,0.0,0.0,0.0,0.0,-4.1798,-4.2757,0.0,0.0,0.0,-4.4258,-4.4258,0.0,0.0,0.0,0.0,0.0,0.0,0.0,0.0,0.0,0.0,0.0,0.0,0.0,0.0,0.0,0.0,0.0,0.0,0.0,0.0,0.0,0.0,0.0,0.0,0.0,0.0,0.0,0.0,0.0,0.0,0.0,0.0,0.0,0.0,0.0,0.0,0.0,0.0,0.0,0.0,0.0,0.0,0.0,0.0,0.0,0.0,0.0,0.0,0.0,0.0,0.0,0.0,0.0,0.0,0.0,0.0,0.0,-4.3469,-4.4885,-4.5873,-4.6531,-4.704,-4.7224,-4.6982,-4.6284,0.0,0.0,0.0,0.0,0.0,0.0,0.0,0.0,0.0,0.0,0.0,0.0,0.0,0.0,0.0,0.0,0.0,0.0,0.0,0.0,0.0,0.0,0.0,0.0,0.0,0.0,0.0,-2.8484,0.0,0.0,0.0,0.0,0.0,0.0,0.0,0.0,0.0,0.0,0.0,0.0,0.0,0.0,-4.1096,-4.3265,-4.4018,-4.4609,0.0,0.0,-4.5574,-4.5544,-4.4586,-4.3539,0.0,0.0,0.0,0.0,0.0,0.0,0.0,0.0,0.0,0.0,0.0,0.0,0.0,0.0,0.0,0.0,0.0,0.0,0.0,0.0,0.0,0.0,0.0,0.0,0.0,0.0,0.0,0.0,0.0,0.0,0.0,0.0,0.0,0.0,0.0,0.0,0.0,0.0,0.0,0.0,0.0,0.0,0.0,0.0,0.0,0.0,0.0,0.0,0.0,0.0,0.0,0.0,0.0,0.0,0.0,-4.4167,-4.5532,-4.6591,-4.7219,-4.7279,-4.7194,-4.6982,-4.6284,-4.5108,0.0,0.0,0.0,0.0,0.0,0.0,0.0,0.0,0.0,0.0,0.0,0.0,0.0,0.0,0.0,0.0,0.0,0.0,0.0,0.0,0.0,0.0,0.0,0.0,0.0,0.0,0.0,0.0,0.0,0.0,0.0,0.0,0.0,0.0,0.0,0.0,0.0,0.0,0.0,0.0,0.0,-4.1811,-4.315,-4.4945,-4.6142,0.0,0.0,-4.619,-4.6219,-4.5633,-4.4736,-4.3439,0.0,0.0,0.0,0.0,0.0,0.0,0.0,0.0,0.0,0.0,0.0,0.0,0.0,0.0,0.0,0.0,0.0,0.0,0.0,0.0,0.0,0.0,0.0,0.0,0.0,0.0,0.0,0.0,0.0,0.0,0.0,0.0,0.0,0.0,0.0,0.0,0.0,0.0,0.0,0.0,0.0,0.0,0.0,0.0,0.0,0.0,0.0,0.0,0.0,0.0,0.0,0.0,0.0,-4.2043,-4.4885,-4.6262,-4.7249,-4.7878,-4.8297,-4.8427,-4.8268,-4.7528,-4.6467,0.0,0.0,0.0,0.0,0.0,0.0,0.0,0.0,0.0,0.0,0.0,0.0,0.0,0.0,0.0,0.0,0.0,0.0,0.0,0.0,0.0,0.0,0.0,0.0,0.0,0.0,0.0,0.0,-3.6289,-3.7431,-3.8172,0.0,0.0,0.0,0.0,0.0,0.0,0.0,0.0,0.0,0.0,-4.3359,-4.5484,-4.6441,0.0,0.0,-4.8147,-4.8147,-4.8147,-4.7219,-4.6381,-4.5873,-4.4556,0.0,0.0,0.0,0.0,0.0,0.0,0.0,0.0,0.0,0.0,0.0,0.0,0.0,0.0,0.0,0.0,0.0,0.0,0.0,0.0,0.0,0.0,0.0,0.0,0.0,0.0,0.0,0.0,0.0,0.0,0.0,0.0,0.0,0.0,0.0,0.0,0.0,0.0,0.0,0.0,0.0,0.0,0.0,0.0,0.0,0.0,0.0,0.0,0.0,0.0,0.0,0.0,-4.297,-4.5574,-4.692,-4.7908,-4.8566,-4.909,-4.9268,-4.9257,-4.8377,-4.7455,0.0,0.0,0.0,0.0,0.0,0.0,0.0,0.0,0.0,0.0,0.0,0.0,0.0,0.0,0.0,0.0,0.0,0.0,0.0,0.0,0.0,0.0,0.0,0.0,0.0,0.0,0.0,0.0,-3.8402,-3.9169,-3.8875,0.0,0.0,0.0,0.0,0.0,0.0,0.0,0.0,0.0,0.0,-4.4994,-4.7279,-4.7758,-4.8237,-4.9179,-4.9299,-4.9299,-4.9299,-4.8506,-4.7818,-4.7608,0.0,0.0,0.0,0.0,0.0,0.0,0.0,0.0,0.0,0.0,0.0,0.0,0.0,0.0,0.0,0.0,0.0,0.0,0.0,0.0,0.0,0.0,0.0,0.0,0.0,0.0,0.0,0.0,0.0,0.0,-2.9684,0.0,0.0,0.0,0.0,0.0,0.0,0.0,0.0,0.0,0.0,0.0,0.0,0.0,0.0,0.0,0.0,0.0,0.0,0.0,0.0,0.0,0.0,-4.3698,-4.6262,-4.7608,-4.8596,-4.9269,-4.9299,-4.9554,-4.9924,-4.865,-4.7912,-4.7831,0.0,0.0,0.0,0.0,0.0,0.0,0.0,0.0,0.0,0.0,0.0,0.0,0.0,0.0,0.0,0.0,0.0,0.0,0.0,0.0,0.0,0.0,0.0,0.0,0.0,0.0,-3.9764,-4.0788,-4.0598,0.0,0.0,0.0,0.0,0.0,0.0,0.0,0.0,0.0,0.0,-4.5424,-4.677,-4.8117,-4.888,-4.9329,-4.9389,-4.9359,-4.9359,-4.9389,-4.9329,-4.906,0.0,0.0,0.0,0.0,0.0,0.0,0.0,0.0,0.0,0.0,0.0,0.0,0.0,0.0,0.0,0.0,0.0,0.0,0.0,0.0,0.0,0.0,0.0,0.0,0.0,0.0,0.0,-3.5639,-3.537,0.0,0.0,0.0,0.0,0.0,0.0,0.0,0.0,0.0,0.0,0.0,-4.1287,-4.0905,0.0,0.0,0.0,0.0,0.0,0.0,0.0,0.0,0.0,0.0,0.0,0.0,-4.5185,-4.695,-4.8716,-4.9673,-4.9912,-5.0361,-5.0591,-5.0697,-5.0211,-4.9371,-4.8093,0.0,0.0,0.0,0.0,0.0,0.0,0.0,0.0,0.0,0.0,0.0,0.0,0.0,0.0,0.0,0.0,0.0,0.0,0.0,0.0,0.0,0.0,0.0,0.0,0.0,-4.0466,0.0,0.0,0.0,0.0,0.0,0.0,0.0,0.0,0.0,0.0,0.0,-4.4556,-4.6112,-4.7429,-4.8925,-5.0631,-5.1079,-5.1379,0.0,0.0,0.0,0.0,0.0,0.0,0.0,0.0,0.0,0.0,0.0,0.0,0.0,0.0,-4.315,-4.0516,-4.0397,-4.0733,-4.0696,0.0,0.0,0.0,0.0,0.0,0.0,0.0,0.0,0.0,0.0,0.0,0.0,0.0,0.0,-3.914,0.0,-3.8272,0.0,0.0,0.0,0.0,0.0,0.0,0.0,0.0,-4.3698,-4.4287,-4.4706,-4.4287,-4.3998,0.0,-4.3509,-4.2222,0.0,0.0,0.0,0.0,0.0,0.0,0.0,0.0,-4.6441,-4.7967,-4.9464,-5.0405,-5.09,-5.1203,-5.1435,-5.1668,-5.1483,-5.0605,-4.9122,-4.7952,-4.6689,0.0,0.0,0.0,0.0,0.0,0.0,0.0,0.0,0.0,0.0,0.0,0.0,0.0,0.0,0.0,0.0,0.0,0.0,0.0,0.0,0.0,0.0,0.0,-4.2659,0.0,0.0,0.0,0.0,0.0,0.0,0.0,0.0,0.0,-4.324,-4.5185,-4.716,-4.8506,-4.9613,-5.084,-5.2336,0.0,0.0,0.0,0.0,0.0,0.0,0.0,-5.2546,-5.2546,-5.2187,-5.1528,-5.0481,-4.9583,-4.8925,-4.8716,0.0,0.0,-4.4077,-4.3778,-4.4118,-4.4077,-4.4616,-4.5185,-4.5603,-4.5873,-4.6352,0.0,0.0,0.0,0.0,0.0,0.0,0.0,0.0,-4.253,-4.256,0.0,-4.247,0.0,0.0,0.0,0.0,0.0,-4.3539,0.0,0.0,-4.6741,-4.7399,-4.7429,-4.7369,-4.704,-4.6459,-4.701,-4.695,-4.613,-4.318,0.0,0.0,0.0,0.0,0.0,0.0,-4.7369,-4.9329,-5.0002,-5.093,-5.2127,-5.1854,-5.2134,-5.299,-5.2452,-5.1732,-5.0838,-5.0294,-4.9526,-4.8467,-4.5926,0.0,0.0,0.0,0.0,0.0,0.0,0.0,0.0,0.0,0.0,0.0,0.0,0.0,0.0,0.0,0.0,0.0,0.0,0.0,0.0,-4.3455,0.0,0.0,0.0,0.0,0.0,0.0,0.0,0.0,0.0,0.0,-4.6591,-4.8177,-4.9868,-5.1079,0.0,0.0,0.0,0.0,-5.3313,-5.3294,-5.3264,-5.3294,-5.3354,-5.3354,-5.3324,-5.3354,0.0,0.0,-5.2396,-5.2247,-5.1977,-5.1379,-5.1199,-5.0481,-4.7938,-4.7399,-4.7399,-4.7399,-4.7878,-4.8327,-4.8446,-4.8835,-4.9434,-4.6142,0.0,0.0,0.0,0.0,-4.4137,-4.4676,-4.5214,-4.5693,-4.5903,-4.5873,-4.5394,0.0,0.0,0.0,0.0,0.0,0.0,-4.7489,-4.8147,-4.9015,-4.9643,-5.0092,-4.9613,-4.9239,-4.906,-4.8835,-4.8596,-4.8386,-4.7489,-4.6664,-4.5903,0.0,0.0,0.0,0.0,-4.9164,-5.0601,-5.1289,-5.2067,-5.2875,-5.2966,-5.3395,-5.4205,-5.4193,-5.3844,-5.3165,-5.2458,-5.146,-5.0013,-4.8368,0.0,0.0,0.0,0.0,0.0,0.0,0.0,0.0,0.0,0.0,0.0,0.0,0.0,0.0,0.0,0.0,0.0,0.0,0.0,-4.5576,-4.6369,-4.6425,0.0,0.0,0.0,0.0,0.0,0.0,0.0,0.0,0.0,-5.0421,-5.099,-5.1678,0.0,0.0,-5.3862,-5.4521,-5.461,-5.479,-5.5239,-5.5379,0.0,-5.5897,-5.5987,-5.5957,-5.5957,-5.5598,-5.5089,-5.4461,-5.3952,-5.3414,-5.2755,-5.2606,-5.2336,-5.1678,-5.072,-5.0152,-5.0122,-5.0242,-5.0541,-5.099,-5.1229,-5.1528,-5.0201,-4.9163,-4.6856,-4.6262,-4.689,-4.7309,-4.7788,-4.8297,-4.8686,-4.8865,-4.8835,-4.8446,-4.8073,-4.7804,-4.7429,0.0,0.0,0.0,-5.0062,-5.0451,-5.1109,-5.1618,-5.1947,-5.1588,-5.1409,-5.1379,-5.102,-5.0857,-5.081,-5.0857,-5.0421,-4.9643,0.0,0.0,-4.9464,-5.0092,-5.093,-5.1977,-5.2366,-5.2953,-5.371,-5.4225,-5.4599,-5.4977,-5.5346,-5.5379,-5.5023,-5.4195,-5.3238,-5.2165,-5.0333,-4.8307,0.0,0.0,0.0,0.0,0.0,0.0,0.0,0.0,0.0,0.0,0.0,-3.6657,-4.023,0.0,0.0,0.0,-4.4841,-4.6214,-4.7865,-4.8367,0.0,0.0,0.0,0.0,0.0,0.0,0.0,-4.9344,-5.0601,-5.1917,-5.3204,-5.3593,-5.3832,-5.3952,-5.4551,-5.5209,-5.5867,0.0,-5.6077,-5.6496,-5.6577,-5.6675,-5.7034,-5.7094,-5.7094,-5.7094,-5.6795,-5.6436,-5.6017,-5.5598,-5.5209,-5.485,-5.473,-5.473,-5.473,-5.4072,-5.3144,-5.2217,-5.1977,-5.2127,-5.2516,-5.2576,-5.2845,-5.3584,-5.384,-5.0427,-4.9269,-4.9674,-4.9674,-5.0288,-5.1349,-5.1379,-5.1379,-5.1379,-5.1379,-5.1003,-5.0435,-5.0435,0.0,-5.0465,-5.1798,-5.2366,-5.2456,-5.3054,-5.3384,-5.3414,-5.3324,-5.3264,-5.3264,-5.3204,-5.3174,-5.3144,-5.3144,-5.3174,-5.3114,-5.1439,-5.0794,-5.1379,-5.1977,-5.2606,-5.3264,-5.3264,-5.374,-5.4696,-5.5424,-5.5782,-5.5655,-5.6091,-5.643,-5.6587,-5.5602,-5.4877,-5.4507,-5.2076,-5.0175,-4.9047,0.0,0.0,0.0,0.0,0.0,0.0,0.0,0.0,0.0,0.0,0.0,0.0,0.0,0.0,0.0,-4.8074,0.0,-4.8906,-4.9794,0.0,0.0,0.0,-4.9972,-4.8716,-4.9763,-5.0764,-5.1468,0.0,0.0,-5.5179,-5.5867,-5.6047,-5.5478,-5.5897,-5.6436,-5.7004,-5.7064,-5.7094,-5.7154,-5.7184,-5.7184,-5.7363,-5.7453,-5.7513,-5.7513,-5.7363,-5.7483,-5.7393,-5.7274,-5.7244,-5.7064,-5.7124,-5.7034,-5.7064,-5.6855,-5.6346,-5.3952,-5.3533,-5.3533,-5.3672,-5.3653,-5.4012,-5.503,-5.5343,-5.4925,-5.403,-5.2893,-5.2893,-5.2933,-5.3014,-5.3044,-5.2918,-5.2725,-5.2725,-5.2636,-5.2486,-5.2486,-5.2486,-5.2516,-5.3354,-5.4012,-5.4491,-5.464,-5.497,-5.5418,-5.4431,-5.3952,-5.3922,-5.3414,-5.3174,-5.3174,-5.3174,-5.3174,-5.3174,-5.3234,-5.3084,-5.2725,-5.2875,-5.3294,-5.3952,-5.3952,-5.4529,-5.5656,-5.6388,-5.6869,-5.6996,-5.7322,-5.7528,-5.7572,-5.7131,-5.6334,-5.5021,-5.415,-5.2672,-5.0403,-4.8624,0.0,0.0,0.0,0.0,0.0,0.0,0.0,0.0,0.0,-4.3153,-4.6228,0.0,-4.8584,0.0,-5.0971,-5.157,-5.1353,-5.2055,0.0,0.0,-5.2007,-5.2157,-5.1379,-5.2456,-5.3503,-5.4162,-5.497,-5.5748,-5.6555,-5.6765,-5.7004,-5.7363,-5.7124,-5.6944,-5.7064,-5.7094,-5.7304,-5.7782,-5.7902,-5.8052,-5.856,-5.9039,-5.9338,-5.9368,-5.9787,-5.9967,-5.9458,-5.8949,-5.8471,-5.7962,-5.7453,-5.7154,-5.7184,-5.7094,-5.6974,-5.6316,-5.6166,-5.6166,-5.6166,-5.6137,-5.6226,-5.76,-5.787,-5.8148,-5.7628,-5.6611,-5.587,-5.5542,-5.5538,-5.5569,-5.542,-5.514,-5.496,-5.491,-5.491,-5.491,-5.494,-5.494,-5.5329,-5.5688,-5.6017,-5.6047,-5.6226,-5.6555,-5.5837,-5.5359,-5.5089,-5.47,-5.4371,-5.4072,-5.4072,-5.4072,-5.4072,-5.4461,-5.4461,-5.4102,-5.4072,-5.4251,-5.464,-5.489,-5.5318,-5.6028,-5.6796,-5.7322,-5.7511,-5.8092,-5.8396,-5.8396,-5.8292,-5.7719,-5.6572,-5.5802,-5.4559,-5.2744,-5.0777,-4.8929,0.0,0.0,0.0,0.0,0.0,0.0,0.0,0.0,0.0,0.0,0.0,-5.0744,-5.183,-5.2502,-5.293,-5.3054,-5.3683,-5.3922,-5.3563,-5.4371,-5.467,-5.4042,-5.488,-5.5628,-5.6017,-5.6376,-5.6825,-5.7453,-5.7543,-5.7782,-5.8471,-5.8471,-5.8321,-5.8082,-5.8201,-5.856,-5.8919,-5.9249,-5.9548,-5.9967,-6.0296,-6.0535,-6.0565,-6.0864,-6.0984,-6.0595,-6.0236,-5.9877,-5.9518,-5.9129,-5.889,-5.889,-5.889,-5.889,-5.889,-5.889,-5.8441,-5.7363,-5.7094,-5.7154,-6.0455,-6.0646,-6.0596,-6.0563,-6.0435,-5.8975,-5.8266,-5.8156,-5.8105,-5.7901,-5.757,-5.7281,-5.7146,-5.7094,-5.7094,-5.7094,-5.7094,-5.7184,-5.7244,-5.7244,-5.7214,-5.7214,-5.7244,-5.7124,-5.6825,-5.6338,-5.6286,-5.5987,-5.5448,-5.5448,-5.5418,-5.5418,-5.5418,-5.5448,-5.5418,-5.5418,-5.5359,-5.5209,-5.5681,-5.5979,-5.6077,-5.7019,-5.7543,-5.7684,-5.8564,-5.9094,-5.9152,-5.9145,-5.8885,-5.8323,-5.7077,-5.6029,-5.5165,-5.2753,-5.0955,0.0,-4.8477,0.0,0.0,0.0,0.0,0.0,0.0,0.0,0.0,-5.1226,-5.2395,-5.3492,-5.3563,-5.3832,-5.4521,-5.5089,-5.5418,-5.5448,-5.6406,-5.6885,-5.6376,-5.6855,-5.7214,-5.7214,-5.7304,-5.7603,-5.8141,-5.8291,-5.862,-5.9159,-5.9757,-5.9907,-5.9548,-5.9817,-6.0146,-6.0206,-6.0715,-6.0894,-6.0984,-6.1134,-6.1224,-6.1224,-6.1403,-6.1373,-6.1403,-6.1313,-6.1224,-6.1194,-6.1014,-6.0984,-6.1104,-6.1044,-6.1044,-6.0924,-6.0894,-6.0236,-5.8411,-5.7872,-5.7812,-6.1916,-6.2201,-6.3276,-6.3612,-6.3417,-6.3467,-6.1759,-5.8962,-5.8762,-5.8288,-5.7592,-5.754,-5.7385,-5.7094,-5.7094,-5.7094,-5.7124,-5.7663,-5.7932,-5.7932,-5.7932,-5.7932,-5.7902,-5.7363,-5.7034,-5.6915,-5.6915,-5.6855,-5.6735,-5.6735,-5.6735,-5.6735,-5.6735,-5.6735,-5.6735,0.0,0.0,0.0,-5.5531,-5.5849,-5.6262,-5.7067,-5.7825,-5.8381,-5.9152,0.0,-5.9827,-5.986,-5.9491,-5.8572,-5.776,0.0,0.0,0.0,0.0,0.0,0.0,0.0,0.0,0.0,0.0,0.0,-5.159,-5.1439,-5.1347,-5.2768,-5.4241,-5.5499,-5.5649,-5.5867,-5.6496,-5.6645,-5.6735,-5.6765,-5.6944,-5.7034,-5.6944,-5.7513,-5.7932,-5.7932,-5.8381,-5.877,-5.8919,-5.9368,-5.9727,-5.9907,-6.0505,-6.0835,-6.0775,-6.0835,-6.0924,-6.0954,-6.1194,-6.1164,-6.1104,-6.1642,-6.2032,-6.1942,-6.2391,-6.266,-6.266,-6.2271,-6.1942,-6.1942,-6.1493,-6.1194,-6.1194,-6.1104,-6.1283,-6.1134,-6.1164,-6.0954,-6.0475,-6.0356,-6.0386,-6.3926,0.0,-6.5155,-6.5465,0.0,-6.5462,-6.4345,-6.2351,-6.1734,-6.0969,-6.0189,-5.9713,-5.9446,-5.9255,-5.8764,-5.856,-5.856,-5.859,-5.859,-5.862,-5.862,-5.859,-5.859,-5.8261,-5.7932,-5.7603,-5.7603,-5.7423,-5.7124,-5.7094,-5.7094,-5.7094,-5.7094,-5.7094,-5.7094,-5.7094,-5.6847,-5.6372,-5.6677,-5.7051,-5.7518,-5.8301,-5.8971,-5.9473,-5.9858,0.0,0.0,0.0,0.0,0.0,0.0,0.0,0.0,0.0,0.0,-5.316,-5.212,-5.1542,-5.1542,-5.1542,-5.19,-5.2828,-5.3518,-5.3759,-5.3428,-5.453,-5.5568,-5.6526,-5.6645,-5.6885,-5.7513,-5.7603,-5.7723,-5.8022,-5.8082,-5.8082,-5.8112,-5.8381,-5.874,-5.9069,-5.9368,-5.9697,-6.0057,-6.0356,-6.0565,-6.0625,-6.1164,-6.1732,-6.2002,-6.1792,-6.1792,-6.2421,-6.254,-6.269,-6.2989,-6.3288,-6.3528,-6.3617,-6.3827,-6.4006,-6.4036,-6.3767,-6.3558,-6.3528,-6.3258,-6.3049,-6.2991,-6.2991,-6.3049,-6.3049,-6.3049,-6.3049,-6.2959,-6.2032,-6.1104,-6.5849,-6.6232,-6.6733,-6.698,-6.6933,-6.6776,-6.6469,-6.6027,0.0,0.0,0.0,-6.1983,-6.1629,-6.1459,-6.0671,-6.0266,-6.0206,-5.9578,-5.9279,-5.9279,-5.9159,-5.9099,-5.9099,-5.9099,-5.883,-5.8321,-5.8291,-5.8022,-5.7453,-5.7453,-5.7453,-5.7453,-5.7453,-5.7453,-5.7453,-5.7453,-5.7611,-5.8006,-5.7971,-5.8207,-5.8893,-5.9603,-6.0185,-6.0519,-6.0679,-6.0722,-6.0767,-6.053,-6.0161,-5.964,-5.9228,-5.8663,-5.7887,-5.6365,-5.5341,-5.4928,-5.3977,-5.3354,-5.3384,-5.3473,-5.3623,-5.3862,-5.488,-5.5478,-5.5388,-5.5957,-5.6615,-5.7214,-5.7393,-5.7723,-5.8411,-5.859,-5.886,-5.9398,-5.9458,-5.9458,-5.9458,-5.9458,-5.9697,-6.0146,-6.0266,-6.0475,-6.0984,-6.1194,-6.1343,-6.1523,-6.2061,-6.266,-6.3199,-6.3019,-6.3049,-6.3857,-6.4006,-6.4306,-6.4814,-6.4904,-6.5024,-6.4874,-6.4934,-6.5024,-6.5024,-6.5024,-6.5024,-6.4844,-6.5024,-6.4934,-6.4964,-6.4844,-6.5024,-6.5024,-6.5024,-6.5024,-6.4844,-6.3348,-6.2002,-6.711,-6.7742,-6.8427,-6.8726,-6.8712,-6.887,-6.8552,-6.768,-6.5466,-6.3954,-6.3198,-6.2557,-6.1983,-6.1489,-6.1096,-6.0984,-6.0924,-6.0266,-5.9937,-5.9907,-5.9368,-5.9099,-5.9099,-5.9099,-5.9039,-5.8979,-5.8979,-5.8919,-5.883,-5.883,-5.883,-5.883,-5.883,-5.883,-5.883,-5.883,-5.9098,-5.9629,-5.8352,-5.8105,-5.9142,-5.9621,-6.0345,-6.1192,-6.1711,-6.2053,-6.2154,-6.1788,-6.1316,-6.0779,-5.9585,-5.856,-5.7837,-5.6635,-5.5535,-5.4745,-5.428,-5.4072,-5.4072,-5.4581,-5.5388,-5.6436,-5.6735,-5.6615,-5.6158,-5.6615,-5.7244,-5.7932,-5.8501,-5.9099,-5.9727,-6.0296,-6.0595,-6.0745,-6.0805,-6.0835,-6.0745,-6.0775,-6.0805,-6.0954,-6.0954,-6.1014,-6.1224,-6.1672,-6.2211,-6.272,-6.3318,-6.3977,-6.4545,-6.4695,-6.4635,-6.4785,-6.4815,-6.4875,-6.5144,-6.5054,-6.5144,-6.5024,-6.5054,-6.5173,-6.5203,-6.5203,-6.5203,-6.5084,-6.5173,-6.5144,-6.5114,-6.5024,-6.5173,-6.5233,-6.5263,-6.5233,-6.5323,-6.4814,-6.4396,-6.8505,-6.8906,-6.9574,-6.9862,-6.9862,-6.9713,-6.9237,-6.8485,-6.6938,-6.5762,-6.4764,-6.4011,-6.3385,-6.2798,-6.2156,-6.1781,-6.1613,-6.0954,-6.0655,-6.0625,-6.0326,-6.0206,-6.0206,-6.0206,-6.0206,-6.0206,-6.0176,-6.0176,-6.0206,-6.0206,-6.0206,-6.0206,-6.0206,-6.0206,-6.0206,-6.0176,-6.0216,-6.0234,-5.935,-5.9408,-6.0477,-6.0845,-6.1386,-6.2109,-6.2181,-6.2188,-6.228,-6.1556,-6.1038,-6.0661,-5.9726,-5.8909,-5.8319,-5.7495,-5.6819,-5.6214,-5.593,-5.5777,-5.5777,-5.6047,-5.6466,-5.7064,-5.7782,-5.8082,-5.7782,-5.8022,-5.8471,-5.9129,-5.9817,-6.0326,-6.0625,-6.0924,-6.1104,-6.1104,-6.1104,-6.1104,-6.1104,-6.1104,-6.1253,-6.1583,-6.1642,-6.1792,-6.2151,-6.272,-6.3199,-6.3617,-6.4425,-6.5323,-6.6011,-6.64,-6.634,-6.5742,-6.5562,-6.5742,-6.6011,-6.6101,-6.6071,-6.6101,-6.6101,-6.6101,-6.6101,-6.6101,-6.6071,-6.6101,-6.6101,-6.6101,-6.6101,-6.6101,-6.6221,-6.658,-6.661,-6.6729,-6.7029,-6.7178,-6.67,-6.9759,-6.9961,-7.0452,-7.0608,-7.0469,-7.0096,-6.9574,-6.8945,-6.8169,-6.7285,-6.6152,-6.532,-6.4579,-6.3932,-6.3079,-6.2585,-6.2268,-6.1613,-6.1343,-6.1313,-6.1194,-6.1104,-6.1104,-6.1104,-6.1104,-6.1104,-6.1104,-6.1104,-6.1104,-6.1104,-6.1104,-6.1104,-6.1104,-6.1104,-6.1104,-6.1104,-6.0946,-6.0735,-6.0469,-6.0713,-6.141,-6.1734,-6.2135,-6.2678,-6.2412,-6.2269,-6.2237,-6.152,-6.0899,-6.0609,-5.9965,-5.9328,-5.8796,-5.8166,-5.7747,-5.7437,-5.7228,-5.7184,-5.7334,-5.7483,-5.7633,-5.7782,-5.889,-5.9548,-5.9548,-5.9697,-5.9907,-6.0326,-6.0924,-6.1313,-6.1373,-6.1493,-6.1553,-6.1553,-6.1553,-6.1642,-6.1583,-6.1553,-6.1732,-6.2241,-6.2301,-6.257,-6.3169,-6.3677,-6.4156,-6.4784,-6.5712,-6.667,-6.7358,-6.7897,-6.7687,-6.7059,-6.67,-6.6909,-6.7358,-6.7448,-6.7448,-6.7448,-6.7448,-6.7448,-6.7448,-6.7448,-6.7448,-6.7448,-6.7448,-6.7448,-6.7448,-6.7448,-6.7627,-6.7986,-6.8046,-6.8256,-6.8645,-6.8764,-6.8375,-7.0512,-7.1086,-7.1188,-7.0916,-7.0515,-7.0423,-6.986,-6.8994,-6.8401,-6.7542,-6.648,-6.5623,-6.4746,-6.4049,-6.3562,-6.3246,-6.2957,-6.2301,-6.2002,-6.1942,-6.1403,-6.1134,-6.1194,-6.1134,-6.1104,-6.1164,-6.1194,-6.1224,-6.1224,-6.1194,-6.1134,-6.1104,-6.1104,-6.1164,-6.1134,-6.1164,-6.1186,-6.1398,-6.1393,-6.1224,-6.0938,-6.1379,-6.1885,-6.2432,-6.2646,-6.2761,-6.2744,-6.2421,-6.1995,-6.1464,-6.0411,-5.9563,-5.8988,-5.811,-5.7467,-5.7236,-5.7154,-5.7363,-5.8022,-5.859,-5.9159,-5.9787,-6.0446,-6.0924,-6.0954,-6.1463,-6.1583,-6.1373,-6.1672,-6.2002,-6.2061,-6.248,-6.275,-6.272,-6.278,-6.2899,-6.281,-6.2899,-6.2929,-6.2959,-6.2989,-6.3228,-6.3797,-6.4126,-6.4814,-6.634,-6.7148,-6.7926,-6.8555,-6.8794,-6.8974,-6.8764,-6.8734,-6.8704,-6.8734,-6.8794,-6.8645,-6.8704,-6.8764,-6.8645,-6.8585,-6.8615,-6.8794,-6.8435,-6.8645,-6.8615,-6.8675,-6.8794,-6.8734,-6.8854,-6.8914,-6.8974,-6.9004,-6.9183,-6.8914,-7.1041,-7.1312,-7.1312,-7.0995,-7.0515,-7.019,-6.9574,-6.8748,-6.8,-6.7181,-6.6236,-6.5375,-6.4635,-6.3993,-6.3652,-6.3367,-6.3107,-6.281,-6.269,-6.266,-6.2391,-6.2271,-6.2271,-6.2271,-6.2271,-6.2271,-6.2271,-6.2271,-6.2271,-6.2271,-6.2271,-6.2271,-6.2271,-6.2271,-6.2271,-6.2271,-6.2148,-6.1841,-6.201,-6.1805,-6.1369,-6.1911,-6.254,-6.3056,-6.3209,-6.326,-6.326,-6.3005,-6.2695,-6.2331,-6.1695,-6.1065,-6.0499,-6.0096,-5.9729,-5.9458,-5.9458,-5.9608,-5.9877,-6.0146,-6.0386,-6.0685,-6.1313,-6.1852,-6.2271,-6.2839,-6.3228,-6.3378,-6.2989,-6.269,-6.272,-6.2987,-6.3137,-6.3137,-6.3137,-6.3137,-6.3137,-6.3137,-6.3199,-6.3528,-6.3617,-6.3887,-6.4575,-6.5293,-6.6221,-6.7418,-6.8166,-6.8824,-6.9453,-6.9572,-6.9931,-7.053,-7.0709,-7.0141,-6.9393,-6.9004,-6.9034,-6.9034,-6.9004,-6.9004,-6.9093,-6.9004,-6.9004,-6.9034,-6.9093,-6.9093,-6.8944,-6.9034,-6.9064,-6.9363,-6.9961,-7.0111,-7.0141,-7.044,-7.0649,-7.1312,-7.1267,-7.1222,-7.087,-7.041,-6.9988,-6.9285,-6.8451,-6.7695,-6.6869,-6.5938,-6.5101,-6.4356,-6.3849,-6.3595,-6.3337,-6.3137,-6.3137,-6.3137,-6.3137,-6.3137,-6.3137,-6.3137,-6.3137,-6.3137,-6.3137,-6.3107,-6.3107,-6.3137,-6.3137,-6.3137,-6.3137,-6.3137,-6.3137,-6.3137,-6.3137,-6.2839,-6.2421,-6.2588,-6.2431,-6.2177,-6.2671,-6.3087,-6.3198,-6.3273,-6.3273,-6.322,-6.3092,-6.2794,-6.2526,-6.2286,-6.1959,-6.1574,-6.1463,-6.1297,-6.1104,-6.1104,-6.1104,-6.1104,-6.1283,-6.1463,-6.1672,-6.2241,-6.2899,-6.3528,-6.4036,-6.4485,-6.4814,-6.4156,-6.3617,-6.3617,-6.3438,-6.3348,-6.3318,-6.3199,-6.3137,-6.3137,-6.3199,-6.3528,-6.3917,-6.4156,-6.4545,-6.5293,-6.637,-6.7478,-6.8166,-6.8854,-6.9512,-7.0111,-7.041,-7.0859,-7.1727,-7.1996,-7.1607,-7.035,-7.029,-7.0081,-7.0081,-7.026,-7.0231,-6.9871,-6.9812,-6.9632,-7.0021,-6.9662,-6.9572,-6.9752,-6.9692,-6.9602,-7.0111,-7.056,-7.0949,-7.1068,-7.1577,-7.1876,-7.1312,-7.1267,-7.1007,-7.0641,-7.0176,-6.9893,-6.9188,-6.8151,-6.7593,-6.6764,-6.5646,-6.4771,-6.4075,-6.3538,-6.3538,-6.3367,-6.3137,-6.3137,-6.3137,-6.3137,-6.3137,-6.3137,-6.3137,-6.3137,-6.3137,-6.3137,-6.3137,-6.3137,-6.3137,-6.3137,-6.3137,-6.3137,-6.3137,-6.3137,-6.3137,-6.3137,-6.3107,-6.3017,-6.3017,-6.3132,-6.3331,-6.3388,-6.3092,-6.2554,-6.2395,-6.251,-6.2456,-6.2395,-6.2262,-6.1959,-6.183,-6.1634,-6.1494,-6.1301,-6.1194,-6.1194,-6.1194,-6.1194,-6.1313,-6.1852,-6.2391,-6.2929,-6.3528,-6.4186,-6.4755,-6.4934,-6.5054,-6.5024,-6.5054,-6.4934,-6.4874,-6.4336,-6.3977,-6.3947,-6.3468,-6.3228,-6.3169,-6.3707,-6.3947,-6.4186,-6.4755,-6.5413,-6.5981,-6.7119,-6.8166,-6.8884,-6.9542,-7.0201,-7.0769,-7.1368,-7.1787,-7.2086,-7.2475,-7.2834,-7.2714,-7.2146,-7.2295,-7.2206,-7.1816,-7.2235,-7.2026,-7.1697,-7.1308,-7.1038,-7.0919,-7.0829,-7.0829,-7.0769,-7.0709,-7.0859,-7.0919,-7.1188,-7.1757,-7.1816,-7.2206,-7.1188,-7.1007,-7.0779,-7.041,-6.9893,-6.9285,-6.8501,-6.7644,-6.6921,-6.6045,-6.5101,-6.4412,-6.3906,-6.3451,-6.3309,-6.3194,-6.3137,-6.3137,-6.3137,-6.3137,-6.3137,-6.3137,-6.3137,-6.3137,-6.3137,-6.3137,-6.3137,-6.3137,-6.3137,-6.3137,-6.3137,-6.3137,-6.3137,-6.3137,-6.3137,-6.3137,-6.3137,-6.3137,-6.3137,-6.3137,-6.3252,-6.3252,-6.3096,-6.2845,-6.3208,-6.3346,-6.3376,-6.3401,-6.3234,-6.2954,-6.2815,-6.2672,-6.2532,-6.2418,-6.2361,-6.2391,-6.275,-6.2959,-6.3019,-6.3588,-6.4066,-6.4306,-6.4515,-6.4934,-6.5503,-6.5682,-6.5832,-6.6161,-6.6281,-6.6281,-6.6071,-6.5323,-6.4665,-6.4635,-6.4455,-6.4276,-6.4366,-6.4545,-6.4814,-6.5323,-6.6191,-6.6999,-6.7358,-6.8405,-6.9333,-6.9662,-7.05,-7.1158,-7.1547,-7.2116,-7.2654,-7.3073,-7.3402,-7.3702,-7.418,-7.3313,-7.2894,-7.2864,-7.2774,-7.2714,-7.2565,-7.2535,-7.2206,-7.2026,-7.1996,-7.1816,-7.1667,-7.1248,-7.1278,-7.1517,-7.1547,-7.1816,-7.2415,-7.2624,-7.3013,-7.1131,-7.087,-7.0515,-7.0049,-6.9478,-6.8797,-6.7949,-6.7109,-6.6311,-6.5452,-6.466,-6.4075,-6.3622,-6.3367,-6.3194,-6.3137,-6.3137,-6.3137,-6.3137,-6.3137,-6.3137,-6.3137,-6.3137,-6.3137,-6.3137,-6.3137,-6.3137,-6.3137,-6.3137,-6.3137,-6.3137,-6.3137,-6.3137,-6.3137,-6.3137,-6.3137,-6.3137,-6.3137,-6.3137,-6.3137,-6.3137,-6.3137,-6.3137,-6.3137,-6.3538,-6.3709,-6.3709,-6.3709,-6.3652,-6.3424,-6.3367,-6.3309,-6.3137,-6.3137,-6.3169,-6.3408,-6.3737,-6.4096,-6.4336,-6.4755,-6.5114,-6.5323,-6.5353,-6.5622,-6.6221,-6.6311,-6.658,-6.6879,-6.6999,-6.6999,-6.6849,-6.6161,-6.5592,-6.5383,-6.5144,-6.5024,-6.5054,-6.5203,-6.5742,-6.655,-6.7298,-6.7956,-6.8375,-6.9303,-6.9812,-6.9991,-7.1068,-7.1846,-7.1966,-7.2684,-7.3343,-7.3821,-7.4061,-7.433,-7.4569,-7.4091,-7.3791,-7.3732,-7.3612,-7.3462,-7.3223,-7.3223,-7.3163,-7.3013,-7.2834,-7.2654,-7.2325,-7.1846,-7.1876,-7.2146,-7.2265,-7.2445,-7.2984,-7.3492,-7.3791,-7.1131,-7.0825,-7.0363,-6.9717,-6.8994,-6.8401,-6.7542,-6.6638,-6.5915,-6.5187,-6.4478,-6.3884,-6.3574,-6.3256,-6.3376,-6.3199,-6.3258,-6.3288,-6.3199,-6.3079,-6.3137,-6.3137,-6.3137,-6.3137,-6.3137,-6.3137,-6.3137,-6.3137,-6.3137,-6.3137,-6.3137,-6.3137,-6.3137,-6.3137,-6.3137,-6.3137,-6.3137,-6.3137,-6.3137,-6.3137,-6.3137,-6.3137,-6.3137,-6.3137,-6.3137,-6.3194,-6.3137,-6.3137,-6.3194,-6.3137,-6.3137,-6.3137,-6.3137,-6.3139,-6.3378,-6.3857,-6.4036,-6.4395,-6.4934,-6.5144,-6.5533,-6.5892,-6.6011,-6.6251,-6.6729,-6.6879,-6.6939,-6.6969,-6.6999,-6.6999,-6.7059,-6.6969,-6.667,-6.6101,-6.5592,-6.5293,-6.5353,-6.5712,-6.652,-6.7627,-6.8106,-6.8315,-6.8914,-6.9662,-7.0141,-7.044,-7.1248,-7.2086,-7.2295,-7.3193,-7.3821,-7.4061,-7.436,-7.4719,-7.4809,-7.4839,-7.4809,-7.4779,-7.4599,-7.442,-7.4031,-7.3881,-7.3762,-7.3612,-7.3283,-7.3073,-7.3013,-7.2624,-7.2624,-7.2834,-7.2924,-7.3133,-7.3672,-7.4121,-7.43,-7.087,-7.0561,-7.0129,-6.9463,-6.8649,-6.7949,-6.713,-6.6183,-6.5429,-6.4961,-6.4684,-6.4374,-6.4268,-6.4394,-6.4425,-6.4395,-6.4425,-6.4395,-6.3947,-6.3228,-6.3166,-6.3196,-6.3166,-6.3166,-6.3137,-6.3137,-6.3137,-6.3079,-6.3166,-6.3166,-6.3137,-6.3137,-6.3166,-6.3137,-6.3196,-6.3137,-6.3137,-6.3137,-6.3137,-6.3137,-6.3137,-6.3137,-6.3137,-6.3137,-6.3137,-6.3137,-6.3137,-6.3137,-6.3137,-6.3137,-6.3137,-6.3137,-6.3139,-6.3498,-6.3797,-6.4066,-6.4904,-6.5443,-6.5712,-6.6101,-6.64,-6.664,-6.667,-6.6759,-6.6939,-6.6999,-6.6999,-6.6999,-6.6999,-6.7148,-6.7537,-6.7657,-6.7388,-6.6759,-6.649,-6.658,-6.6939,-6.7567,-6.8196,-6.8615,-6.9064,-6.9453,-6.9722,-7.0231,-7.0769,-7.1188,-7.2026,-7.2684,-7.3253,-7.3881,-7.454,-7.4629,-7.4869,-7.4869,-7.4869,-7.4869,-7.4869,-7.4869,-7.4869,-7.4839,-7.4569,-7.439,-7.427,-7.4121,-7.3791,-7.3612,-7.3522,-7.3462,-7.3402,-7.3462,-7.3582,-7.3941,-7.442,-7.4629,-7.4689,-7.0687,-7.033,-6.9751,-6.9042,-6.8251,-6.7439,-6.6765,-6.6098,-6.5362,-6.5089,-6.5034,-6.4806,-6.4812,-6.4964,-6.5024,-6.5024,-6.5024,-6.5024,-6.4605,-6.3887,-6.3797,-6.3797,-6.3797,-6.3797,-6.3797,-6.3797,-6.3797,-6.3797,-6.3797,-6.3797,-6.3797,-6.3797,-6.3797,-6.3827,-6.3797,-6.3797,-6.3797,-6.3797,-6.3797,-6.3797,-6.3737,-6.3558,-6.3408,-6.3408,-6.3199,-6.3199,-6.3378,-6.3438,-6.3318,-6.3169,-6.3288,-6.3408,-6.3468,-6.4006,-6.4485,-6.4874,-6.5473,-6.6071,-6.637,-6.6729,-6.6999,-6.6999,-6.6999,-6.6999,-6.6999,-6.6999,-6.7059,-6.7328,-6.7388,-6.7627,-6.8226,-6.8345,-6.8136,-6.7777,-6.7747,-6.7926,-6.8345,-6.8734,-6.9093,-6.9333,-6.9692,-7.0051,-7.038,-7.0889,-7.1368,-7.1906,-7.2684,-7.3343,-7.3911,-7.442,-7.4719,-7.4869,-7.4869,-7.4869,-7.4869,-7.4869,-7.4869,-7.4869,-7.4869,-7.4869,-7.4749,-7.4719,-7.4629,-7.4599,-7.436,-7.427,-7.421,-7.4061,-7.4001,-7.4121,-7.421,-7.445,-7.4749,-7.4779,-7.4749,-7.0595,-7.0082,-6.9334,-6.855,-6.7778,-6.7017,-6.6547,-6.6171,-6.5647,-6.5474,-6.5496,-6.5262,-6.5173,-6.5173,-6.5353,-6.5353,-6.5173,-6.5293,-6.5323,-6.5173,-6.5114,-6.5054,-6.4814,-6.4784,-6.4784,-6.4844,-6.4874,-6.4904,-6.4814,-6.4814,-6.5024,-6.4874,-6.4814,-6.4964,-6.4844,-6.4964,-6.4874,-6.4814,-6.4904,-6.4904,-6.4874,-6.4395,-6.4066,-6.4036,-6.3617,-6.3558,-6.3977,-6.4066,-6.3797,-6.3378,-6.3827,-6.4066,-6.4186,-6.4695,-6.5353,-6.5802,-6.6011,-6.64,-6.6819,-6.6939,-6.6999,-6.6999,-6.6999,-6.7029,-6.7119,-6.7178,-6.7418,-6.7956,-6.8016,-6.8315,-6.8884,-6.9034,-6.9034,-6.9093,-6.8974,-6.9004,-6.9034,-6.9123,-6.9512,-6.9901,-7.0081,-7.026,-7.0859,-7.1487,-7.1816,-7.2325,-7.3163,-7.3702,-7.4121,-7.454,-7.4809,-7.4869,-7.4869,-7.4869,-7.4869,-7.4869,-7.4869,-7.4869,-7.4869,-7.4869,-7.4869,-7.4869,-7.4869,-7.4839,-7.4809,-7.4809,-7.4749,-7.454,-7.448,-7.4569,-7.4689,-7.4839,-7.4869,-7.4869,-7.4659,-7.0423,-7.0082,-6.914,-6.8251,-6.7535,-6.7145,-6.6628,-6.599,-6.5914,-6.594,-6.613,-6.5862,-6.6011,-6.643,-6.643,-6.649,-6.64,-6.643,-6.649,-6.649,-6.649,-6.5862,-6.5203,-6.5054,-6.5084,-6.5024,-6.5173,-6.5024,-6.5024,-6.5144,-6.5114,-6.5024,-6.5144,-6.5084,-6.5024,-6.5114,-6.5024,-6.5024,-6.5054,-6.5084,-6.5054,-6.4904,-6.4755,-6.4755,-6.4545,-6.4575,-6.4695,-6.4755,-6.4725,-6.4545,-6.4665,-6.4755,-6.4814,-6.5383,-6.5862,-6.6071,-6.649,-6.6789,-6.6939,-6.7029,-6.6999,-6.6999,-6.7119,-6.7208,-6.7687,-6.7717,-6.8046,-6.8555,-6.8734,-6.9004,-6.9542,-6.9722,-6.9901,-7.026,-6.9961,-6.9722,-6.9782,-7.0141,-7.05,-7.0649,-7.062,-7.0979,-7.1427,-7.1876,-7.2325,-7.3103,-7.3642,-7.4091,-7.442,-7.4629,-7.4869,-7.4869,-7.4869,-7.4869,-7.4869,-7.4869,-7.4869,-7.4869,-7.4869,-7.4869,-7.4869,-7.4869,-7.4869,-7.4869,-7.4839,-7.4839,-7.4839,-7.4749,-7.4869,-7.4869,-7.4869,-7.4869,-7.4869,-7.4869,-7.454,-7.0236,-6.9798,-6.8847,-6.7949,-6.7225,-6.6937,-6.653,-6.6138,-6.6146,-6.64,-6.6613,-6.6552,-6.664,-6.6969,-6.6969,-6.6999,-6.6999,-6.6999,-6.6969,-6.6969,-6.6939,-6.652,-6.5981,-6.5862,-6.5862,-6.5862,-6.5832,-6.5862,-6.5892,-6.5862,-6.5862,-6.5922,-6.5862,-6.5832,-6.5922,-6.5862,-6.5832,-6.5862,-6.5862,-6.5862,-6.5832,-6.5562,-6.5443,-6.5353,-6.5233,-6.5114,-6.5383,-6.5682,-6.5652,-6.5233,-6.5263,-6.5443,-6.5503,-6.6041,-6.64,-6.643,-6.6789,-6.6969,-6.7059,-6.7238,-6.7388,-6.7478,-6.7627,-6.7986,-6.8315,-6.8405,-6.8704,-6.9303,-6.9393,-6.9752,-7.0201,-7.038,-7.053,-7.0739,-7.056,-7.038,-7.035,-7.0649,-7.0859,-7.0949,-7.1158,-7.1427,-7.1906,-7.2325,-7.3013,-7.3672,-7.4121,-7.445,-7.4749,-7.4839,-7.4869,-7.4869,-7.4869,-7.4869,-7.4869,-7.4869,-7.4869,-7.4869,-7.4869,-7.4869,-7.4869,-7.4869,-7.4869,-7.4869,-7.4869,-7.4869,-7.4869,-7.4869,-7.4869,-7.4869,-7.4869,-7.4869,-7.4869,-7.4869,-7.454,-7.0049,-6.9334,-6.855,-6.7695,-6.6976,-6.6597,-6.6447,-6.6345,-6.6578,-6.6794,-6.691,-6.6969,-6.6939,-6.6999,-6.6999,-6.6999,-6.6999,-6.6999,-6.6999,-6.6999,-6.6999,-6.6849,-6.6789,-6.6729,-6.6759,-6.6789,-6.6969,-6.6879,-6.6759,-6.6849,-6.6909,-6.6789,-6.6849,-6.6939,-6.6759,-6.6849,-6.6969,-6.6849,-6.6759,-6.6729,-6.667,-6.634,-6.6131,-6.6041,-6.5682,-6.5772,-6.6251,-6.667,-6.661,-6.5502,-6.5951,-6.6251,-6.634,-6.6849,-6.7208,-6.7268,-6.7358,-6.7388,-6.7328,-6.7837,-6.8076,-6.8166,-6.8615,-6.9064,-6.9064,-6.9123,-6.9363,-7.0021,-7.0081,-7.035,-7.0679,-7.0859,-7.0859,-7.0889,-7.0859,-7.0889,-7.0919,-7.0919,-7.0919,-7.0949,-7.1457,-7.1816,-7.2295,-7.2984,-7.3911,-7.4121,-7.448,-7.4659,-7.4839,-7.4839,-7.4869,-7.4869,-7.4869,-7.4869,-7.4869,-7.4869,-7.4869,-7.4869,-7.4869,-7.4869,-7.4869,-7.4869,-7.4869,-7.4869,-7.4869,-7.4869,-7.4869,-7.4869,-7.4869,-7.4869,-7.4869,-7.4869,-7.4869,-7.4869,-7.4689,-7.0049,-6.9367,-6.855,-6.7593,-6.6775,-6.6955,-6.6647,-6.6085,-6.6913,-6.7124,-6.703,-6.6999,-6.6999,-6.6999,-6.6999,-6.6999,-6.6999,-6.6999,-6.6999,-6.6999,-6.6999,-6.6999,-6.6999,-6.6999,-6.6999,-6.6999,-6.6999,-6.6999,-6.6999,-6.6999,-6.6999,-6.6999,-6.6999,-6.6999,-6.6999,-6.6999,-6.6999,-6.6999,-6.6999,-6.6999,-6.6999,-6.6849,-6.6729,-6.67,-6.658,-6.6879,-6.7418,-6.7687,-6.7867,-6.7986,-6.7777,-6.7537,-6.7627,-6.8106,-6.8405,-6.8405,-6.8465,-6.8495,-6.8585,-6.8645,-6.8794,-6.8794,-6.9004,-6.9213,-6.9722,-6.9782,-7.0051,-7.053,-7.0709,-7.0739,-7.0859,-7.0919,-7.0919,-7.0919,-7.0919,-7.0919,-7.0919,-7.0919,-7.0919,-7.1068,-7.1517,-7.2086,-7.2624,-7.3373,-7.4061,-7.454,-7.4749,-7.4839,-7.4869,-7.4869,-7.4869,-7.4869,-7.4869,-7.4869,-7.4869,-7.4869,-7.4869,-7.4869,-7.4869,-7.4869,-7.4869,-7.4869,-7.4869,-7.4869,-7.4869,-7.4869,-7.4869,-7.4869,-7.4869,-7.4869,-7.4869,-7.4869,-7.4869,-7.4869,-7.4809,-6.9813,-6.8945,-6.8151,-6.7285,-6.6541,-6.6722,-6.6514,-6.612,-6.6884,-6.7182,-6.706,-6.6999,-6.6999,-6.6999,-6.6999,-6.6999,-6.6999,-6.6999,-6.6999,-6.6999,-6.6999,-6.6999,-6.6999,-6.6999,-6.6999,-6.6999,-6.6999,-6.6999,-6.6999,-6.6999,-6.6999,-6.6999,-6.6999,-6.6999,-6.6999,-6.6999,-6.6999,-6.6999,-6.6999,-6.6999,-6.6999,-6.6999,-6.6999,-6.7089,-6.7268,-6.7657,-6.7897,-6.8315,-6.8615,-6.8884,-6.8944,-6.8764,-6.8525,-6.8794,-6.8974,-6.9004,-6.9004,-6.9004,-6.9004,-6.9273,-6.9453,-6.9482,-6.9692,-7.0051,-7.032,-7.041,-7.053,-7.0799,-7.0889,-7.0889,-7.0919,-7.0919,-7.0919,-7.0919,-7.0919,-7.0919,-7.0919,-7.0919,-7.1068,-7.1368,-7.1996,-7.2654,-7.3283,-7.3851,-7.427,-7.4749,-7.4779,-7.4869,-7.4869,-7.4869,-7.4869,-7.4869,-7.4869,-7.4869,-7.4869,-7.4869,-7.4869,-7.4869,-7.4869,-7.4869,-7.4869,-7.4869,-7.4869,-7.4869,-7.4869,-7.4869,-7.4869,-7.4869,-7.4869,-7.4869,-7.4869,-7.4869,-7.4869,-7.4869,-7.4839,-6.9559,-6.855,-6.7746,-6.6921,-6.6211,-6.6329,-6.6257,-6.606,-6.6643,-6.6999,-6.6999,-6.6999,-6.6999,-6.6999,-6.6999,-6.6999,-6.6999,-6.6999,-6.6999,-6.6999,-6.6999,-6.6999,-6.6999,-6.6999,-6.6999,-6.6999,-6.6999,-6.6999,-6.6999,-6.6999,-6.6999,-6.6999,-6.6999,-6.6999,-6.6999,-6.6999,-6.6999,-6.6999,-6.6999,-6.6999,-6.6999,-6.6999,-6.7029,-6.7328,-6.7597,-6.8106,-6.8465,-6.8884,-6.9213,-6.9303,-6.9812,-6.9752,-6.9482,-6.9303,-6.9303,-6.9333,-6.9453,-6.9512,-6.9602,-6.9842,-7.0111,-7.0141,-7.053,-7.0829,-7.0859,-7.0829,-7.0829,-7.0859,-7.0919,-7.0919,-7.0919,-7.0919,-7.0919,-7.0919,-7.0919,-7.0919,-7.0919,-7.0979,-7.1368,-7.1757,-7.2325,-7.2954,-7.3672,-7.427,-7.4599,-7.4869,-7.4869,-7.4869,-7.4869,-7.4869,-7.4869,-7.4869,-7.4869,-7.4869,-7.4869,-7.4869,-7.4869,-7.4869,-7.4869,-7.4869,-7.4869,-7.4869,-7.4869,-7.4869,-7.4869,-7.4869,-7.4869,-7.4869,-7.4869,-7.4869,-7.4869,-7.4869,-7.4869,-7.4869,-7.4809,-6.9607,-6.855,-6.7746,-6.6921,-6.6211,-6.6304,-6.6168,-6.6031,-6.6613,-6.6969,-6.6999,-6.6999,-6.6999,-6.6999,-6.6999,-6.6999,-6.6999,-6.6999,-6.6999,-6.6999,-6.6999,-6.6999,-6.6999,-6.6999,-6.6999,-6.6999,-6.6999,-6.6999,-6.6999,-6.6999,-6.6999,-6.6999,-6.6999,-6.6999,-6.6999,-6.6999,-6.6999,-6.6999,-6.6999,-6.6999,-6.6999,-6.7089,-6.7298,-6.7687,-6.8016,-6.8615,-6.9393,-6.9722,-7.0051,-7.053,-7.0679,-7.0649,-7.05,-7.047,-7.044,-7.041,-7.041,-7.035,-7.041,-7.059,-7.0739,-7.0769,-7.0829,-7.0889,-7.0919,-7.0919,-7.0919,-7.0919,-7.0919,-7.0919,-7.0919,-7.0919,-7.0919,-7.0919,-7.0919,-7.0949,-7.1038,-7.1338,-7.1787,-7.2176,-7.2684,-7.3223,-7.3971,-7.451,-7.4719,-7.4869,-7.4869,-7.4869,-7.4869,-7.4869,-7.4869,-7.4869,-7.4869,-7.4869,-7.4869,-7.4869,-7.4869,-7.4869,-7.4869,-7.4869,-7.4869,-7.4869,-7.4869,-7.4869,-7.4869,-7.4869,-7.4869,-7.4869,-7.4869,-7.4869,-7.4869,-7.4869,-7.4869,-7.4869,-7.4869,-6.9237,-6.8301,-6.742,-6.6448,-6.5779,-6.5622,-6.5632,-6.5765,-6.6222,-6.667,-6.6909,-6.6999,-6.6999,-6.6999,-6.6999,-6.6999,-6.6999,-6.6999,-6.6999,-6.6999,-6.6999,-6.6999,-6.6999,-6.6999,-6.6999,-6.6999,-6.6999,-6.6999,-6.6999,-6.6999,-6.6999,-6.6999,-6.6999,-6.6999,-6.6999,-6.6999,-6.6999,-6.6999,-6.6999,-6.6999,-6.7059,-6.7268,-6.7717,-6.7986,-6.8645,-6.9333,-6.9812,-7.035,-7.059,-7.0829,-7.0889,-7.0919,-7.0919,-7.0919,-7.0919,-7.0919,-7.0919,-7.0919,-7.0919,-7.0919,-7.0889,-7.0889,-7.0919,-7.0919,-7.0919,-7.0919,-7.0919,-7.0919,-7.0919,-7.0919,-7.0919,-7.0919,-7.0919,-7.0919,-7.0919,-7.1068,-7.1368,-7.1697,-7.2176,-7.2654,-7.3253,-7.3791,-7.43,-7.4689,-7.4809,-7.4869,-7.4869,-7.4869,-7.4869,-7.4869,-7.4869,-7.4869,-7.4869,-7.4869,-7.4869,-7.4869,-7.4869,-7.4869,-7.4869,-7.4869,-7.4869,-7.4869,-7.4869,-7.4869,-7.4869,-7.4869,-7.4869,-7.4869,-7.4869,-7.4869,-7.4869,-7.4869,-7.4869,-7.4869,-7.4869,-6.8847,-6.805,-6.6953,-6.6054,-6.5335,-6.5059,-6.5155,-6.5528,-6.5862,-6.64,-6.6939,-6.6999,-6.6999,-6.6999,-6.6999,-6.6999,-6.6999,-6.6999,-6.6999,-6.6999,-6.6999,-6.6999,-6.6999,-6.6999,-6.6999,-6.6999,-6.6999,-6.6999,-6.6999,-6.6999,-6.6999,-6.6999,-6.6999,-6.6999,-6.6999,-6.6999,-6.6999,-6.6999,-6.6999,-6.7029,-6.7298,-6.7687,-6.8166,-6.8375,-6.9423,-6.9991,-7.026,-7.059,-7.0799,-7.0889,-7.0919,-7.0919,-7.0919,-7.0919,-7.0919,-7.0919,-7.0919,-7.0919,-7.0919,-7.0919,-7.0919,-7.0919,-7.0919,-7.0919,-7.0919,-7.0919,-7.0919,-7.0919,-7.0919,-7.0919,-7.0919,-7.0919,-7.0919,-7.0919,-7.0949,-7.1128,-7.1637,-7.2146,-7.2744,-7.3253,-7.3821,-7.424,-7.4659,-7.4749,-7.4869,-7.4869,-7.4869,-7.4869,-7.4869,-7.4869,-7.4869,-7.4869,-7.4869,-7.4869,-7.4869,-7.4869,-7.4869,-7.4869,-7.4869,-7.4869,-7.4869,-7.4869,-7.4869,-7.4869,-7.4869,-7.4869,-7.4869,-7.4869,-7.4869,-7.4869,-7.4869,-7.4869,-7.4869,-7.4869,-7.4869,-6.86,-6.7746,-6.6628,-6.5808,-6.528,-6.4972,-6.5067,-6.5499,-6.5802,-6.637,-6.6969,-6.6999,-6.6999,-6.6999,-6.6999,-6.6999,-6.6999,-6.6999,-6.6999,-6.6999,-6.6999,-6.6999,-6.6999,-6.6999,-6.6999,-6.6999,-6.6999,-6.6999,-6.6999,-6.6999,-6.6999,-6.6999,-6.6999,-6.6999,-6.6999,-6.6999,-6.6999,-6.6999,-6.6999,-6.7268,-6.7809,-6.7986,-6.8675,-6.9393,-6.9901,-7.026,-7.062,-7.0829,-7.0889,-7.0919,-7.0919,-7.0919,-7.0919,-7.0919,-7.0919,-7.0919,-7.0919,-7.0919,-7.0919,-7.0919,-7.0919,-7.0919,-7.0919,-7.0919,-7.0919,-7.0919,-7.0919,-7.0919,-7.0919,-7.0919,-7.0919,-7.0919,-7.0919,-7.0949,-7.1009,-7.1338,-7.1846,-7.2624,-7.3223,-7.3762,-7.43,-7.454,-7.4839,-7.4839,-7.4869,-7.4869,-7.4869,-7.4809,-7.4779,-7.4689,-7.4869,-7.4869,-7.4869,-7.4869,-7.4869,-7.4869,-7.4869,-7.4869,-7.4869,-7.4869,-7.4869,-7.4869,-7.4869,-7.4869,-7.4869,-7.4869,-7.4869,-7.4869,-7.4869,-7.4869,-7.4869,-7.4869,-7.4869,-7.4869,-7.4869,-6.8151,-6.7491,-6.6523,-6.5561,-6.4832,-6.4493,-6.4707,-6.5171,-6.5383,-6.6041,-6.6849,-6.6999,-6.6999,-6.6999,-6.6999,-6.6999,-6.6999,-6.6999,-6.6999,-6.6999,-6.6999,-6.6999,-6.6999,-6.6999,-6.6999,-6.6999,-6.6999,-6.6999,-6.6999,-6.6999,-6.6999,-6.6999,-6.6999,-6.6999,-6.6999,-6.6999,-6.6999,-6.7089,-6.7328,-6.7687,-6.8076,-6.8767,-6.9363,-6.9961,-7.029,-7.062,-7.0799,-7.0919,-7.0919,-7.0919,-7.0919,-7.0919,-7.0919,-7.0919,-7.0919,-7.0919,-7.0919,-7.0919,-7.0919,-7.0919,-7.0919,-7.0919,-7.0919,-7.0919,-7.0919,-7.0919,-7.0919,-7.0919,-7.0919,-7.0919,-7.0919,-7.0919,-7.0919,-7.0979,-7.1218,-7.1846,-7.2385,-7.3043,-7.3732,-7.424,-7.4659,-7.4779,-7.4839,-7.4779,-7.4719,-7.4689,-7.451,-7.43,-7.427,-7.424,-7.451,-7.4869,-7.4869,-7.4869,-7.4869,-7.4869,-7.4869,-7.4869,-7.4869,-7.4869,-7.4869,-7.4869,-7.4869,-7.4869,-7.4869,-7.4869,-7.4869,-7.4869,-7.4869,-7.4869,-7.4869,-7.4869,-7.4869,-7.4869,-7.4869,-6.7797,-6.7161,-6.6311,-6.5344,-6.4382,-6.4075,-6.4407,-6.4964,-6.5054,-6.5772,-6.67,-6.6999,-6.6999,-6.6999,-6.6999,-6.6999,-6.6999,-6.6999,-6.6999,-6.6999,-6.6999,-6.6999,-6.6999,-6.6999,-6.6999,-6.6999,-6.6999,-6.6999,-6.6999,-6.6999,-6.6999,-6.6999,-6.6999,-6.6999,-6.6999,-6.6999,-6.6999,-6.7029,-6.7597,-6.8016,-6.8435,-6.9363,-6.9901,-7.029,-7.062,-7.0919,-7.0919,-7.0919,-7.0919,-7.0919,-7.0919,-7.0919,-7.0919,-7.0919,-7.0919,-7.0919,-7.0919,-7.0919,-7.0919,-7.0919,-7.0919,-7.0919,-7.0919,-7.0919,-7.0919,-7.0919,-7.0919,-7.0919,-7.0919,-7.0919,-7.0919,-7.0919,-7.1068,-7.1278,-7.1577,-7.2295,-7.2984,-7.3522,-7.4001,-7.448,-7.4779,-7.4809,-7.4809,-7.4659,-7.4569,-7.451,-7.424,-7.3821,-7.3821,-7.3851,-7.43,-7.4749,-7.4869,-7.4869,-7.4869,-7.4869,-7.4869,-7.4869,-7.4869,-7.4869,-7.4869,-7.4869,-7.4869,-7.4869,-7.4869,-7.4869,-7.4869,-7.4869,-7.4869,-7.4869,-7.4869,-7.4869,-7.4869,-7.4869,-7.4869,-6.7593,-6.6617,-6.5969,-6.5211,-6.4382,-6.4075,-6.4407,-6.4994,-6.5024,-6.5772,-6.6909,-6.6999,-6.6999,-6.6999,-6.6999,-6.6999,-6.6999,-6.6999,-6.6999,-6.6999,-6.6999,-6.6999,-6.7029,-6.7029,-6.7089,-6.7089,-6.7268,-6.7238,-6.7089,-6.7358,-6.7178,-6.6999,-6.7089,-6.7029,-6.6999,-6.6999,-6.7059,-6.7238,-6.7777,-6.8405,-6.8944,-6.9692,-7.026,-7.0679,-7.0859,-7.0919,-7.0919,-7.0919,-7.0919,-7.0919,-7.0919,-7.0919,-7.0919,-7.0919,-7.0919,-7.0919,-7.0919,-7.0919,-7.0919,-7.0919,-7.0919,-7.0919,-7.0919,-7.0919,-7.0919,-7.0919,-7.0919,-7.0919,-7.0919,-7.0919,-7.0919,-7.0949,-7.1128,-7.1577,-7.1966,-7.2624,-7.3253,-7.3762,-7.424,-7.4689,-7.4869,-7.4809,-7.445,-7.421,-7.424,-7.418,-7.3492,-7.3073,-7.3552,-7.3732,-7.421,-7.4629,-7.4809,-7.4869,-7.4869,-7.4869,-7.4869,-7.4869,-7.4869,-7.4869,-7.4869,-7.4869,-7.4869,-7.4869,-7.4869,-7.4869,-7.4869,-7.4869,-7.4869,-7.4869,-7.4869,-7.4869,-7.4869,-7.4869,-7.4869,-6.7593,-6.6565,-6.5785,-6.4967,-6.4132,-6.3793,-6.4176,-6.4904,-6.5054,-6.5772,-6.6999,-6.6999,-6.6999,-6.6999,-6.6999,-6.6999,-6.6999,-6.6999,-6.6999,-6.6999,-6.6999,-6.6999,-6.7089,-6.7388,-6.7597,-6.7687,-6.7956,-6.8226,-6.8256,-6.8076,-6.8196,-6.8076,-6.7478,-6.7059,-6.6999,-6.7148,-6.7268,-6.7717,-6.8256,-6.8914,-6.9572,-7.0201,-7.0679,-7.0859,-7.0919,-7.0919,-7.0919,-7.0919,-7.0919,-7.0919,-7.0919,-7.0919,-7.0919,-7.0919,-7.0919,-7.0919,-7.0919,-7.0919,-7.0919,-7.0919,-7.0919,-7.0919,-7.0919,-7.0919,-7.0919,-7.0919,-7.0919,-7.0919,-7.0919,-7.0919,-7.0919,-7.0919,-7.1128,-7.1757,-7.2385,-7.3043,-7.3612,-7.4121,-7.439,-7.4809,-7.4779,-7.4689,-7.418,-7.3672,-7.3762,-7.3762,-7.3013,-7.2505,-7.3073,-7.3552,-7.4001,-7.4569,-7.4809,-7.4869,-7.4869,-7.4869,-7.4869,-7.4869,-7.4869,-7.4869,-7.4869,-7.4869,-7.4869,-7.4869,-7.4929,-7.4988,-7.4988,-7.4899,-7.4869,-7.4899,-7.4899,-7.4869,-7.4869,-7.4869,-7.4869,-6.7542,-6.6533,-6.5569,-6.466,-6.3993,-6.3652,-6.406,-6.4874,-6.5024,-6.5772,-6.6969,-6.6999,-6.6999,-6.6999,-6.6999,-6.6999,-6.6999,-6.6999,-6.6999,-6.7089,-6.7208,-6.7268,-6.7508,-6.7867,-6.8286,-6.8405,-6.8645,-6.8914,-6.8854,-6.8974,-6.8884,-6.8585,-6.8136,-6.7777,-6.7657,-6.7627,-6.7837,-6.8315,-6.8944,-6.9453,-7.0021,-7.053,-7.0859,-7.0919,-7.0919,-7.0919,-7.0919,-7.0919,-7.0919,-7.0919,-7.0919,-7.0919,-7.0919,-7.0919,-7.0919,-7.0919,-7.0919,-7.0919,-7.0919,-7.0919,-7.0919,-7.0919,-7.0919,-7.0919,-7.0919,-7.0919,-7.0919,-7.0919,-7.0919,-7.0919,-7.0949,-7.1098,-7.1577,-7.2265,-7.2924,-7.3552,-7.4061,-7.4569,-7.4659,-7.4869,-7.4659,-7.433,-7.3851,-7.3223,-7.2654,-7.2654,-7.2146,-7.2056,-7.2864,-7.3313,-7.3732,-7.43,-7.4839,-7.4869,-7.4869,-7.4869,-7.4869,-7.4869,-7.4869,-7.4869,-7.4869,-7.4899,-7.4899,-7.4899,-7.4988,-7.5108,-7.5318,-7.5527,-7.5288,-7.4929,-7.4958,-7.5018,-7.4869,-7.4869,-7.4869,-6.7542,-6.648,-6.5289,-6.4493,-6.3993,-6.3652,-6.406,-6.4994,-6.5203,-6.5862,-6.6939,-6.6999,-6.6999,-6.6999,-6.6999,-6.6999,-6.6999,-6.6999,-6.7059,-6.7208,-6.7567,-6.7899,-6.8196,-6.8555,-6.8974,-6.9004,-6.9243,-6.9363,-6.9183,-6.9333,-6.9243,-6.9213,-6.9093,-6.8824,-6.8944,-6.8914,-6.8944,-6.9064,-6.9632,-6.9871,-7.0201,-7.0649,-7.0859,-7.0919,-7.0919,-7.0919,-7.0919,-7.0919,-7.0919,-7.0919,-7.0919,-7.0919,-7.0919,-7.0919,-7.0919,-7.0919,-7.0919,-7.0919,-7.0919,-7.0919,-7.0919,-7.0919,-7.0919,-7.0919,-7.0919,-7.0919,-7.0919,-7.0919,-7.1009,-7.1009,-7.1158,-7.1517,-7.2176,-7.2774,-7.3432,-7.3911,-7.442,-7.4749,-7.4839,-7.4779,-7.43,-7.3821,-7.3373,-7.2774,-7.1846,-7.1368,-7.1068,-7.1547,-7.2624,-7.3283,-7.3732,-7.424,-7.4869,-7.4869,-7.4869,-7.4869,-7.4869,-7.4869,-7.4869,-7.4869,-7.4958,-7.5078,-7.5048,-7.5018,-7.5377,-7.5796,-7.6066,-7.6335,-7.5946,-7.5587,-7.5258,-7.5198,-7.5018,-7.5048,-7.5288,-6.7542,-6.648,-6.5289,-6.4493,-6.3993,-6.3481,-6.3885,-6.5054,-6.5922,-6.658,-6.6909,-6.6999,-6.6999,-6.6999,-6.6999,-6.6999,-6.6999,-6.7029,-6.7089,-6.7657,-6.7986,-6.8256,-6.8704,-6.9243,-6.9632,-6.9782,-6.9961,-7.0171,-7.032,-7.0111,-7.0201,-7.026,-7.0021,-6.9782,-6.9213,-6.9034,-6.9153,-6.9602,-6.9931,-7.0171,-7.056,-7.0799,-7.0919,-7.0919,-7.0919,-7.0919,-7.0919,-7.0919,-7.0919,-7.0919,-7.0919,-7.0919,-7.0919,-7.0919,-7.0919,-7.0919,-7.0919,-7.0919,-7.0919,-7.0919,-7.0919,-7.0919,-7.0919,-7.0919,-7.0919,-7.0919,-7.0919,-7.1038,-7.1308,-7.1427,-7.1667,-7.2206,-7.2804,-7.3373,-7.3911,-7.421,-7.4569,-7.4749,-7.4839,-7.4689,-7.433,-7.3283,-7.2624,-7.2265,-7.1457,-7.1457,-7.1368,-7.1816,-7.2744,-7.3432,-7.3971,-7.442,-7.4869,-7.4869,-7.4869,-7.4869,-7.4869,-7.4869,-7.4869,-7.4869,-7.4988,-7.5258,-7.5467,-7.5587,-7.6066,-7.6544,-7.6784,-7.6933,-7.6664,-7.6335,-7.6215,-7.6006,-7.5916,-7.6066,-7.6275,-6.7542,-6.648,-6.5429,-6.4635,-6.3993,-6.3367,-6.3827,-6.5114,-6.637,-6.6999,-6.6999,-6.6999,-6.6999,-6.6999,-6.6999,-6.6999,-6.7029,-6.7268,-6.7418,-6.8046,-6.8555,-6.8944,-6.9453,-6.9931,-7.0231,-7.044,-7.062,-7.0859,-7.0769,-7.0859,-7.0829,-7.0799,-7.0889,-7.041,-6.9901,-6.9842,-6.9931,-7.026,-7.041,-7.05,-7.0769,-7.0919,-7.0919,-7.0919,-7.0919,-7.0919,-7.0919,-7.0919,-7.0919,-7.0919,-7.0919,-7.0919,-7.0919,-7.0919,-7.0919,-7.0919,-7.0919,-7.0919,-7.0919,-7.0919,-7.0919,-7.0919,-7.0919,-7.0919,-7.0919,-7.0919,-7.1098,-7.1338,-7.1697,-7.1996,-7.2295,-7.2864,-7.3373,-7.3941,-7.421,-7.454,-7.4659,-7.4839,-7.4689,-7.454,-7.3911,-7.2864,-7.1906,-7.1577,-7.1098,-7.1457,-7.1816,-7.2385,-7.2894,-7.3552,-7.4151,-7.4599,-7.4869,-7.4869,-7.4869,-7.4869,-7.4869,-7.4869,-7.4929,-7.4988,-7.5318,-7.5617,-7.5886,-7.6245,-7.6754,-7.7203,-7.7472,-7.7532,-7.7472,-7.7502,-7.7532,-7.7293,-7.6963,-7.6933,-7.7023,-6.7625,-6.6565,-6.5677,-6.4802,-6.3993,-6.3487,-6.3947,-6.5144,-6.643,-6.6999,-6.6999,-6.6999,-6.6999,-6.6999,-6.6999,-6.7059,-6.7178,-6.7657,-6.8016,-6.8435,-6.9213,-6.9692,-7.0111,-7.053,-7.0679,-7.0799,-7.0919,-7.0919,-7.0919,-7.0919,-7.0919,-7.0919,-7.0919,-7.0709,-7.0649,-7.059,-7.0649,-7.0709,-7.0739,-7.0769,-7.0889,-7.0919,-7.0919,-7.0919,-7.0919,-7.0919,-7.0919,-7.0919,-7.0919,-7.0919,-7.0919,-7.0919,-7.0919,-7.0919,-7.0919,-7.0919,-7.0919,-7.0919,-7.1068,-7.1098,-7.1218,-7.1308,-7.1218,-7.1068,-7.1038,-7.1158,-7.1427,-7.1816,-7.2235,-7.2565,-7.2894,-7.3402,-7.3911,-7.427,-7.454,-7.4719,-7.4809,-7.4749,-7.451,-7.4061,-7.3313,-7.2415,-7.1457,-7.0979,-7.1158,-7.1667,-7.2116,-7.2684,-7.3223,-7.3762,-7.43,-7.4659,-7.4869,-7.4869,-7.4869,-7.4869,-7.4869,-7.4869,-7.5108,-7.5258,-7.5617,-7.6066,-7.6514,-7.6963,-7.7472,-7.7831,-7.8071,-7.831,-7.8519,-7.8519,-7.831,-7.81,-7.7622,-7.7412,-7.7382,-6.7542,-6.6565,-6.5677,-6.4802,-6.4145,-6.43,-6.4695,-6.5203,-6.64,-6.6999,-6.6999,-6.6999,-6.6999,-6.6999,-6.6999,-6.7268,-6.7597,-6.8016,-6.8675,-6.9243,-6.9782,-7.0231,-7.056,-7.0799,-7.0889,-7.0919,-7.0919,-7.0919,-7.0919,-7.0919,-7.0919,-7.0919,-7.0919,-7.0919,-7.0919,-7.0919,-7.0919,-7.0919,-7.0919,-7.0919,-7.0919,-7.0919,-7.0919,-7.0919,-7.0919,-7.0919,-7.0919,-7.0919,-7.0919,-7.0919,-7.0919,-7.0919,-7.0919,-7.0919,-7.0919,-7.0919,-7.0949,-7.1068,-7.1487,-7.1607,-7.1757,-7.2086,-7.2206,-7.1996,-7.1816,-7.1727,-7.1936,-7.2415,-7.2864,-7.3223,-7.3552,-7.4031,-7.436,-7.4569,-7.4749,-7.4809,-7.4839,-7.4659,-7.436,-7.3552,-7.2804,-7.1996,-7.1068,-7.1038,-7.1308,-7.1846,-7.2445,-7.3043,-7.3552,-7.4121,-7.442,-7.4779,-7.4869,-7.4869,-7.4869,-7.4869,-7.4869,-7.4929,-7.5228,-7.5617,-7.6066,-7.6574,-7.7143,-7.7622,-7.8011,-7.834,-7.8639,-7.8789,-7.8789,-7.8789,-7.8609,-7.8489,-7.834,-7.8071,-7.7951,-6.7797,-6.6849,-6.5969,-6.5022,-6.4205,-6.4691,-6.5024,-6.5263,-6.643,-6.6999,-6.6999,-6.6999,-6.6999,-6.6999,-6.7029,-6.7328,-6.7956,-6.8345,-6.8944,-6.9662,-7.0201,-7.053,-7.0829,-7.0919,-7.0919,-7.0919,-7.0919,-7.0919,-7.0919,-7.0919,-7.0919,-7.0919,-7.0919,-7.0919,-7.0919,-7.0919,-7.0919,-7.0919,-7.0919,-7.0919,-7.0919,-7.0919,-7.0919,-7.0919,-7.0919,-7.0919,-7.0919,-7.0919,-7.0919,-7.0919,-7.0919,-7.1068,-7.1278,-7.1517,-7.1727,-7.1787,-7.1816,-7.1996,-7.2235,-7.2295,-7.2565,-7.2804,-7.2984,-7.2864,-7.2684,-7.2565,-7.2834,-7.3193,-7.3582,-7.3971,-7.43,-7.4599,-7.4719,-7.4869,-7.4869,-7.4869,-7.4749,-7.4599,-7.3911,-7.3073,-7.2295,-7.1547,-7.1158,-7.1188,-7.1547,-7.2295,-7.2984,-7.3612,-7.4061,-7.448,-7.4659,-7.4839,-7.4869,-7.4869,-7.4869,-7.4958,-7.5108,-7.5228,-7.5527,-7.5946,-7.6485,-7.7053,-7.7622,-7.8071,-7.8489,-7.8699,-7.8789,-7.8789,-7.8789,-7.8789,-7.8789,-7.8669,-7.8609,-7.8549,-7.8519,-6.8101,-6.7285,-6.6396,-6.5187,-6.4236,-6.4751,-6.5084,-6.5174,-6.646,-6.6999,-6.6999,-6.6999,-6.6999,-6.7029,-6.7148,-6.7567,-6.8226,-6.8794,-6.9423,-7.0051,-7.053,-7.0859,-7.0859,-7.0919,-7.0919,-7.0919,-7.0919,-7.0919,-7.0919,-7.0919,-7.0919,-7.0919,-7.0919,-7.0919,-7.0919,-7.0919,-7.0919,-7.0919,-7.0919,-7.0919,-7.0919,-7.0919,-7.0919,-7.0919,-7.0919,-7.0919,-7.0919,-7.0919,-7.0919,-7.0919,-7.1068,-7.1338,-7.1936,-7.2385,-7.2684,-7.2744,-7.2595,-7.2774,-7.2894,-7.2984,-7.3103,-7.3163,-7.3103,-7.3462,-7.3552,-7.3253,-7.3402,-7.3791,-7.421,-7.436,-7.4629,-7.4719,-7.4839,-7.4869,-7.4869,-7.4719,-7.448,-7.4031,-7.3133,-7.2385,-7.1787,-7.1128,-7.1128,-7.1188,-7.1816,-7.2684,-7.3373,-7.4001,-7.445,-7.4809,-7.4839,-7.4869,-7.4869,-7.4899,-7.4958,-7.5078,-7.5377,-7.5617,-7.5976,-7.6485,-7.7143,-7.7652,-7.81,-7.84,-7.8669,-7.8729,-7.8789,-7.8789,-7.8789,-7.8789,-7.8789,-7.8789,-7.8789,-7.8789,-7.8789,-6.8151,-6.7233,-6.5507,-6.4713,-6.4725,-6.4901,-6.5323,-6.5832,-6.661,-6.6999,-6.6999,-6.6999,-6.6999,-6.7029,-6.7478,-6.8016,-6.8704,-6.9303,-7.0051,-7.047,-7.0859,-7.0889,-7.0919,-7.0919,-7.0919,-7.0919,-7.0919,-7.0919,-7.0919,-7.0919,-7.0919,-7.0919,-7.0919,-7.0919,-7.0919,-7.0919,-7.0919,-7.0919,-7.0919,-7.0919,-7.0919,-7.0919,-7.0919,-7.0919,-7.0919,-7.0919,-7.0919,-7.0919,-7.0919,-7.0949,-7.1427,-7.1966,-7.2624,-7.2864,-7.2924,-7.2924,-7.3073,-7.3313,-7.3552,-7.3672,-7.3821,-7.418,-7.433,-7.448,-7.439,-7.3941,-7.3911,-7.436,-7.4629,-7.4749,-7.4809,-7.4839,-7.4869,-7.4869,-7.4779,-7.448,-7.418,-7.3283,-7.2355,-7.1787,-7.1248,-7.1128,-7.1098,-7.1547,-7.2146,-7.2804,-7.3462,-7.4061,-7.451,-7.4869,-7.4869,-7.4869,-7.4869,-7.4899,-7.5018,-7.5318,-7.5707,-7.6245,-7.6694,-7.7233,-7.7801,-7.813,-7.846,-7.8609,-7.8789,-7.8789,-7.8789,-7.8789,-7.8789,-7.8789,-7.8789,-7.8789,-7.8789,-7.8789,-7.8789,-6.8401,-6.7542,-6.5452,-6.4692,-6.488,-6.4991,-6.5413,-6.6041,-6.67,-6.6999,-6.6999,-6.6999,-6.6999,-6.7089,-6.7687,-6.8375,-6.9064,-6.9662,-7.0231,-7.0709,-7.0919,-7.0919,-7.0919,-7.0919,-7.0919,-7.0919,-7.0919,-7.0919,-7.0919,-7.0919,-7.0919,-7.0919,-7.0919,-7.0919,-7.0919,-7.0919,-7.0919,-7.0919,-7.0919,-7.0919,-7.0919,-7.0919,-7.0919,-7.0919,-7.0919,-7.0919,-7.0919,-7.0919,-7.0919,-7.1218,-7.1816,-7.2624,-7.3253,-7.3702,-7.3821,-7.3851,-7.3911,-7.3941,-7.421,-7.436,-7.445,-7.4749,-7.4869,-7.4749,-7.4749,-7.436,-7.436,-7.4749,-7.4749,-7.4839,-7.4839,-7.4869,-7.4869,-7.4869,-7.439,-7.3941,-7.3343,-7.2505,-7.1816,-7.1338,-7.1098,-7.1218,-7.1398,-7.2056,-7.2684,-7.3343,-7.3941,-7.427,-7.4689,-7.4869,-7.4869,-7.4929,-7.4958,-7.5198,-7.5467,-7.5766,-7.6125,-7.6694,-7.7322,-7.7771,-7.822,-7.8519,-7.8789,-7.8789,-7.8789,-7.8789,-7.8789,-7.8789,-7.8789,-7.8789,-7.8789,-7.8789,-7.8789,-7.8861,-7.8933,-6.8861,-6.7875,-6.5794,-6.4983,-6.5059,-6.5111,-6.5562,-6.6191,-6.6729,-6.6999,-6.6999,-6.6999,-6.6999,-6.7328,-6.7807,-6.8465,-6.9183,-6.9961,-7.05,-7.0769,-7.0889,-7.0919,-7.0919,-7.0919,-7.0919,-7.0919,-7.0919,-7.0919,-7.0919,-7.0919,-7.0919,-7.0919,-7.0919,-7.0919,-7.0919,-7.0919,-7.0919,-7.0919,-7.0919,-7.0919,-7.0919,-7.0919,-7.0919,-7.0919,-7.0919,-7.0919,-7.0919,-7.0919,-7.0919,-7.1398,-7.2086,-7.2984,-7.3732,-7.424,-7.454,-7.4599,-7.4569,-7.4629,-7.4779,-7.4749,-7.4809,-7.4869,-7.4869,-7.4869,-7.4839,-7.4839,-7.4809,-7.4809,-7.4809,-7.4839,-7.4839,-7.4689,-7.4689,-7.451,-7.3911,-7.3313,-7.2565,-7.1846,-7.1398,-7.0949,-7.1068,-7.1248,-7.1816,-7.2475,-7.3163,-7.3821,-7.433,-7.4629,-7.4869,-7.4869,-7.4869,-7.5018,-7.5168,-7.5437,-7.5796,-7.6215,-7.6544,-7.7203,-7.7801,-7.822,-7.8549,-7.8699,-7.8789,-7.8789,-7.8789,-7.8789,-7.8789,-7.8789,-7.8789,-7.8861,-7.8933,-7.9005,-7.9076,-7.9148,-7.922,-6.9594,-6.7589,-6.6182,-6.5631,-6.5696,-6.5742,-6.6191,-6.6759,-6.6909,-6.6999,-6.6999,-6.7029,-6.7238,-6.7837,-6.8495,-6.9123,-6.9662,-7.032,-7.0649,-7.0889,-7.0919,-7.0919,-7.0919,-7.0919,-7.0919,-7.0919,-7.0919,-7.0919,-7.0919,-7.0919,-7.0919,-7.0919,-7.0919,-7.0919,-7.0919,-7.0919,-7.0919,-7.0919,-7.0919,-7.0919,-7.0919,-7.0919,-7.0919,-7.0919,-7.0919,-7.0919,-7.0919,-7.0919,-7.0919,-7.1308,-7.2086,-7.3013,-7.3762,-7.436,-7.4659,-7.4779,-7.4779,-7.4869,-7.4869,-7.4869,-7.4869,-7.4869,-7.4869,-7.4809,-7.4779,-7.4749,-7.4689,-7.4629,-7.4629,-7.4689,-7.4629,-7.421,-7.4031,-7.3642,-7.3133,-7.2595,-7.1936,-7.1487,-7.1068,-7.0949,-7.1038,-7.1398,-7.1936,-7.2595,-7.3283,-7.3911,-7.451,-7.4809,-7.4869,-7.4869,-7.4869,-7.5078,-7.5288,-7.5587,-7.5916,-7.6544,-7.6993,-7.7652,-7.819,-7.8489,-7.8669,-7.8729,-7.8789,-7.8789,-7.8789,-7.8789,-7.8789,-7.8861,-7.8861,-7.8933,-7.9148,-7.9291,-7.9363,-7.9505,-7.9718]},{"header":{"parameterUnit":"m.s-1","parameterCategory":1,"la1":31.0,"la2":29.5877,"lo1":-88.7671,"lo2":-86.6584,"dx":0.0162,"dy":0.0185,"nx":115,"ny":88,"refTime":"2023-01-12T06:00:00:Z","depth":0,"parameterNumber":3,"parameterNumberName":"V-component_of_WINDS"},"data":[0.0,0.0,0.0,0.0,0.0,0.0,0.0,0.0,0.0,0.0,0.0,0.0,0.0,0.0,0.0,0.0,0.0,0.0,0.0,0.0,0.0,0.0,0.0,0.0,0.0,0.0,0.0,0.0,0.0,0.0,0.0,0.0,0.0,0.0,0.0,0.0,0.0,0.0,0.0,0.0,0.0,0.0,0.0,0.0,0.0,0.0,0.0,0.0,0.0,0.0,0.0,0.0,0.0,0.0,0.0,0.0,0.0,0.0,0.0,0.0,0.0,0.0,0.0,0.0,0.0,0.0,0.0,0.0,0.0,0.0,0.0,0.0,0.0,0.0,0.0,0.0,0.0,0.0,0.0,0.0,0.0,0.0,0.0,0.0,0.0,0.0,0.0,0.0,0.0,0.0,0.0,0.0,0.0,0.0,0.0,0.0,0.0,0.0,0.0,0.0,0.0,0.0,0.0,0.0,0.0,0.0,0.0,0.0,0.0,0.0,0.0,0.0,0.0,0.0,0.0,0.0,0.0,0.0,0.0,0.0,0.0,0.0,0.0,0.0,0.0,0.0,0.0,0.0,0.0,0.0,0.0,0.0,0.0,0.0,0.0,0.0,0.0,0.0,0.0,0.0,0.0,0.0,0.0,0.0,0.0,0.0,0.0,0.0,0.0,0.0,0.0,0.0,0.0,0.0,0.0,0.0,0.0,0.0,0.0,0.0,0.0,0.0,0.0,0.0,0.0,0.0,0.0,0.0,0.0,0.0,0.0,0.0,0.0,0.0,0.0,0.0,0.0,0.0,0.0,0.0,0.0,0.0,0.0,0.0,0.0,0.0,0.0,0.0,0.0,0.0,0.0,0.0,0.0,0.0,0.0,0.0,0.0,0.0,0.0,0.0,0.0,0.0,0.0,0.0,0.0,0.0,0.0,0.0,0.0,0.0,0.0,0.0,0.0,0.0,0.0,0.0,0.0,0.0,0.0,0.0,0.0,0.0,0.0,0.0,0.0,0.0,0.0,0.0,0.0,0.0,0.0,0.0,0.0,0.0,0.0,0.0,0.0,0.0,0.0,0.0,0.0,0.0,0.0,0.0,0.0,0.0,0.0,0.0,0.0,0.0,0.0,0.0,0.0,0.0,0.0,0.0,0.0,0.0,0.0,0.0,0.0,0.0,0.0,0.0,0.0,0.0,0.0,0.0,0.0,0.0,0.0,0.0,0.0,0.0,0.0,0.0,0.0,0.0,0.0,0.0,0.0,0.0,0.0,0.0,0.0,0.0,0.0,0.0,0.0,0.0,0.0,0.0,0.0,0.0,0.0,0.0,0.0,0.0,0.0,0.0,0.0,0.0,0.0,0.0,0.0,0.0,0.0,0.0,0.0,0.0,0.0,0.0,0.0,0.0,0.0,0.0,0.0,0.0,0.0,0.0,0.0,0.0,0.0,0.0,0.0,0.0,0.0,0.0,0.0,0.0,0.0,0.0,0.0,0.0,0.0,0.0,0.0,0.0,0.0,0.0,0.0,0.0,0.0,0.0,0.0,0.0,0.0,0.0,0.0,0.0,0.0,0.0,0.0,0.0,0.0,0.0,0.0,0.0,0.0,0.0,0.0,0.0,0.0,0.0,0.0,0.0,0.0,0.0,0.0,0.0,0.0,0.0,0.0,0.0,0.0,0.0,0.0,0.0,0.0,0.0,0.0,0.0,0.0,0.0,0.0,0.0,0.0,0.0,0.0,0.0,0.0,0.0,0.0,0.0,0.0,0.0,0.0,0.0,0.0,0.0,0.0,0.0,0.0,0.0,0.0,0.0,0.0,0.0,0.0,0.0,0.0,0.0,0.0,0.0,0.0,0.0,0.0,0.0,0.0,0.0,0.0,0.0,0.0,0.0,0.0,0.0,0.0,0.0,0.0,0.0,0.0,0.0,0.0,0.0,0.0,0.0,0.0,0.0,0.0,0.0,0.0,0.0,0.0,0.0,0.0,0.0,0.0,0.0,0.0,0.0,0.0,0.0,0.0,0.0,0.0,0.0,0.0,0.0,0.0,0.0,0.0,0.0,0.0,0.0,0.0,0.0,0.0,0.0,0.0,0.0,0.0,0.0,0.0,0.0,0.0,0.0,0.0,0.0,0.0,0.0,0.0,0.0,0.0,0.0,0.0,0.0,0.0,0.0,0.0,0.0,0.0,0.0,0.0,0.0,0.0,0.0,0.0,0.0,0.0,0.0,0.0,0.0,0.0,0.0,0.0,0.0,0.0,0.0,0.0,0.0,0.0,0.0,0.0,0.0,0.0,0.0,0.0,0.0,0.0,0.0,0.0,0.0,0.0,0.0,0.0,0.0,0.0,0.0,0.0,0.0,0.0,0.0,0.0,0.0,0.0,0.0,0.0,0.0,0.0,0.0,0.0,0.0,0.0,0.0,0.0,0.0,0.0,0.0,0.0,0.0,0.0,0.0,0.0,0.0,0.0,0.0,0.0,0.0,0.0,0.0,0.0,0.0,0.0,0.0,0.0,0.0,0.0,0.0,0.0,0.0,0.0,0.0,0.0,0.0,0.0,0.0,0.0,0.0,0.0,0.0,0.0,0.0,0.0,0.0,0.0,0.0,0.0,0.0,0.0,0.0,0.0,0.0,0.0,0.0,0.0,0.0,0.0,0.0,0.0,0.0,0.0,0.0,0.0,0.0,0.0,0.0,0.0,0.0,0.0,0.0,0.0,0.0,0.0,0.0,0.0,0.0,0.0,0.0,0.0,0.0,0.0,0.0,0.0,0.0,0.0,0.0,0.0,0.0,0.0,0.0,0.0,0.0,0.0,0.0,0.0,0.0,0.0,0.0,0.0,0.0,0.0,0.0,0.0,0.0,0.0,0.0,0.0,0.0,0.0,0.0,0.0,0.0,0.0,0.0,0.0,0.0,0.0,0.0,0.0,0.0,0.0,0.0,0.0,0.0,0.0,0.0,0.0,0.0,0.0,0.0,0.0,0.0,0.0,0.0,0.0,0.0,0.0,0.0,0.0,0.0,0.0,0.0,0.0,0.0,0.0,0.0,0.0,0.0,0.0,0.0,0.0,0.0,0.0,0.0,0.0,0.0,0.0,0.0,0.0,0.0,0.0,0.0,0.0,0.0,0.0,0.0,0.0,0.0,0.0,0.0,0.0,0.0,0.0,0.0,0.0,0.0,0.0,0.0,0.0,0.0,0.0,0.0,0.0,0.0,0.0,0.0,0.0,0.0,0.0,0.0,0.0,0.0,0.0,0.0,0.0,0.0,0.0,0.0,0.0,0.0,0.0,0.0,0.0,0.0,0.0,0.0,0.0,0.0,0.0,0.0,0.0,0.0,0.0,0.0,0.0,0.0,0.0,0.0,0.0,0.0,0.0,0.0,0.0,0.0,0.0,0.0,0.0,0.0,0.0,0.0,0.0,0.0,0.0,0.0,0.0,0.0,0.0,0.0,0.0,0.0,0.0,0.0,0.0,0.0,0.0,0.0,0.0,0.0,0.0,0.0,0.0,0.0,0.0,0.0,0.0,0.0,0.0,0.0,0.0,0.0,0.0,0.0,0.0,0.0,0.0,0.0,0.0,0.0,0.0,0.0,0.0,0.0,0.0,0.0,0.0,0.0,0.0,0.0,0.0,0.0,0.0,0.0,0.0,0.0,0.0,0.0,0.0,0.0,0.0,0.0,0.0,0.0,0.0,0.0,0.0,0.0,0.0,0.0,0.0,0.0,0.0,0.0,0.0,0.0,0.0,0.0,0.0,0.0,0.0,0.0,0.0,0.0,0.0,0.0,0.0,0.0,0.0,0.0,0.0,0.0,0.0,0.0,0.0,0.0,0.0,0.0,0.0,0.0,0.0,0.0,0.0,0.0,0.0,0.0,0.0,0.0,0.0,0.0,0.0,0.0,0.0,0.0,0.0,0.0,0.0,0.0,0.0,0.0,0.0,0.0,0.0,0.0,0.0,0.0,0.0,0.0,0.0,0.0,0.0,0.0,0.0,0.0,0.0,0.0,0.0,0.0,0.0,0.0,0.0,0.0,0.0,0.0,0.0,0.0,0.0,0.0,0.0,0.0,0.0,0.0,0.0,0.0,0.0,0.0,0.0,0.0,0.0,0.0,0.0,0.0,0.0,0.0,0.0,0.0,0.0,0.0,0.0,0.0,0.0,0.0,0.0,0.0,0.0,0.0,0.0,0.0,0.0,0.0,0.0,0.0,0.0,0.0,0.0,0.0,0.0,0.0,0.0,0.0,0.0,0.0,0.0,0.0,-1.5222,0.0,0.0,0.0,-1.4604,0.0,0.0,0.0,0.0,0.0,0.0,0.0,0.0,0.0,0.0,0.0,0.0,0.0,0.0,0.0,0.0,0.0,0.0,0.0,0.0,0.0,0.0,0.0,0.0,0.0,0.0,0.0,0.0,0.0,0.0,0.0,0.0,0.0,0.0,0.0,0.0,0.0,0.0,0.0,0.0,0.0,0.0,0.0,0.0,0.0,0.0,0.0,0.0,0.0,0.0,0.0,0.0,0.0,0.0,0.0,0.0,0.0,0.0,0.0,0.0,0.0,0.0,0.0,0.0,0.0,0.0,0.0,0.0,0.0,0.0,0.0,0.0,0.0,0.0,0.0,0.0,0.0,0.0,0.0,0.0,0.0,0.0,0.0,0.0,0.0,0.0,0.0,0.0,0.0,0.0,0.0,0.0,0.0,0.0,0.0,0.0,0.0,0.0,0.0,0.0,0.0,0.0,0.0,0.0,0.0,0.0,0.0,0.0,0.0,0.0,-1.5357,-1.5198,-1.5017,-1.4857,-1.4696,0.0,0.0,0.0,0.0,0.0,0.0,0.0,0.0,0.0,0.0,0.0,0.0,0.0,0.0,0.0,0.0,0.0,0.0,0.0,0.0,0.0,0.0,0.0,0.0,0.0,0.0,0.0,0.0,0.0,0.0,0.0,0.0,0.0,0.0,0.0,0.0,0.0,0.0,0.0,0.0,0.0,0.0,0.0,0.0,0.0,0.0,0.0,0.0,0.0,0.0,0.0,0.0,0.0,0.0,0.0,0.0,0.0,0.0,0.0,0.0,0.0,0.0,0.0,0.0,0.0,0.0,0.0,0.0,0.0,0.0,0.0,0.0,0.0,0.0,0.0,0.0,0.0,0.0,0.0,0.0,0.0,0.0,0.0,0.0,0.0,0.0,0.0,0.0,0.0,0.0,0.0,0.0,0.0,0.0,0.0,0.0,0.0,0.0,0.0,0.0,0.0,0.0,0.0,0.0,0.0,0.0,0.0,0.0,0.0,0.0,0.0,0.0,-1.5269,-1.5039,-1.4811,0.0,0.0,0.0,0.0,0.0,0.0,0.0,0.0,0.0,0.0,0.0,0.0,0.0,0.0,0.0,0.0,0.0,0.0,0.0,0.0,0.0,0.0,0.0,0.0,0.0,0.0,0.0,0.0,0.0,0.0,0.0,0.0,0.0,0.0,0.0,0.0,0.0,0.0,0.0,0.0,0.0,0.0,0.0,0.0,0.0,0.0,0.0,0.0,0.0,0.0,0.0,0.0,0.0,0.0,0.0,0.0,0.0,0.0,0.0,0.0,0.0,0.0,0.0,0.0,0.0,0.0,0.0,0.0,0.0,0.0,0.0,0.0,0.0,0.0,0.0,0.0,0.0,0.0,0.0,0.0,0.0,0.0,0.0,0.0,0.0,0.0,0.0,0.0,0.0,0.0,0.0,0.0,0.0,0.0,0.0,0.0,0.0,0.0,0.0,0.0,0.0,0.0,0.0,0.0,0.0,0.0,0.0,0.0,0.0,0.0,-1.6244,-1.6127,-1.6009,0.0,-1.4855,0.0,0.0,0.0,0.0,0.0,0.0,0.0,0.0,0.0,0.0,0.0,0.0,0.0,0.0,0.0,0.0,0.0,0.0,0.0,0.0,0.0,0.0,0.0,0.0,0.0,0.0,0.0,0.0,0.0,0.0,0.0,0.0,0.0,0.0,0.0,0.0,0.0,0.0,0.0,0.0,0.0,0.0,0.0,0.0,0.0,0.0,0.0,0.0,0.0,0.0,0.0,0.0,0.0,0.0,0.0,0.0,0.0,0.0,0.0,0.0,0.0,0.0,0.0,0.0,0.0,0.0,0.0,0.0,0.0,0.0,0.0,0.0,0.0,0.0,0.0,0.0,0.0,0.0,0.0,0.0,0.0,0.0,0.0,0.0,0.0,0.0,0.0,0.0,0.0,0.0,0.0,0.0,0.0,0.0,0.0,0.0,0.0,0.0,0.0,0.0,0.0,0.0,0.0,0.0,0.0,0.0,0.0,0.0,0.0,0.0,-1.6551,-1.6667,-1.6074,-1.5536,0.0,0.0,0.0,0.0,0.0,0.0,0.0,0.0,0.0,0.0,0.0,0.0,0.0,0.0,0.0,0.0,0.0,0.0,0.0,0.0,0.0,0.0,0.0,0.0,0.0,0.0,0.0,0.0,0.0,0.0,0.0,0.0,0.0,0.0,0.0,0.0,0.0,0.0,0.0,0.0,0.0,0.0,0.0,0.0,0.0,0.0,0.0,0.0,0.0,0.0,0.0,0.0,0.0,0.0,0.0,0.0,0.0,0.0,0.0,0.0,0.0,0.0,0.0,0.0,0.0,0.0,0.0,0.0,0.0,0.0,0.0,0.0,0.0,0.0,0.0,0.0,0.0,0.0,0.0,0.0,0.0,0.0,0.0,0.0,0.0,0.0,0.0,0.0,0.0,0.0,0.0,0.0,0.0,0.0,0.0,0.0,0.0,0.0,0.0,0.0,0.0,0.0,0.0,0.0,0.0,0.0,0.0,0.0,0.0,0.0,-1.7024,-1.7147,-1.7185,-1.6411,-1.5751,-1.5291,0.0,0.0,0.0,0.0,0.0,0.0,0.0,0.0,0.0,0.0,0.0,0.0,0.0,0.0,0.0,0.0,0.0,0.0,0.0,0.0,0.0,0.0,0.0,0.0,0.0,0.0,0.0,0.0,0.0,0.0,0.0,0.0,0.0,0.0,0.0,0.0,0.0,0.0,0.0,0.0,0.0,0.0,0.0,0.0,0.0,0.0,0.0,0.0,0.0,0.0,0.0,0.0,0.0,0.0,0.0,0.0,0.0,0.0,0.0,0.0,0.0,0.0,0.0,0.0,0.0,0.0,0.0,0.0,0.0,0.0,0.0,0.0,0.0,0.0,0.0,0.0,0.0,0.0,0.0,0.0,0.0,0.0,0.0,0.0,0.0,0.0,0.0,0.0,0.0,0.0,0.0,0.0,0.0,0.0,0.0,0.0,0.0,0.0,0.0,0.0,0.0,0.0,0.0,0.0,0.0,0.0,0.0,0.0,-1.7219,-1.7922,-1.8133,-1.7774,-1.7361,-1.6548,0.0,0.0,0.0,0.0,0.0,0.0,0.0,0.0,0.0,0.0,0.0,0.0,0.0,0.0,0.0,0.0,0.0,0.0,0.0,0.0,0.0,0.0,0.0,0.0,0.0,0.0,0.0,0.0,0.0,0.0,0.0,0.0,0.0,0.0,0.0,0.0,0.0,0.0,0.0,0.0,0.0,0.0,0.0,0.0,0.0,0.0,0.0,0.0,0.0,0.0,0.0,0.0,0.0,0.0,0.0,0.0,0.0,0.0,0.0,0.0,0.0,0.0,0.0,0.0,0.0,0.0,0.0,0.0,0.0,0.0,0.0,0.0,0.0,0.0,0.0,0.0,0.0,0.0,0.0,0.0,0.0,0.0,0.0,0.0,0.0,0.0,0.0,0.0,0.0,0.0,0.0,0.0,0.0,0.0,0.0,0.0,0.0,0.0,0.0,0.0,0.0,0.0,0.0,0.0,0.0,0.0,0.0,0.0,0.0,-1.8188,-1.858,-1.8608,-1.8292,-1.7591,-1.6856,0.0,0.0,0.0,0.0,0.0,0.0,0.0,0.0,0.0,0.0,0.0,0.0,0.0,0.0,0.0,0.0,0.0,0.0,0.0,0.0,0.0,0.0,0.0,0.0,0.0,0.0,0.0,0.0,0.0,0.0,0.0,0.0,0.0,0.0,0.0,0.0,0.0,0.0,0.0,0.0,0.0,0.0,0.0,0.0,0.0,0.0,0.0,0.0,0.0,0.0,0.0,0.0,0.0,0.0,0.0,0.0,0.0,0.0,0.0,0.0,0.0,0.0,0.0,0.0,0.0,0.0,0.0,0.0,0.0,0.0,0.0,0.0,0.0,0.0,0.0,0.0,0.0,0.0,0.0,0.0,0.0,0.0,0.0,0.0,0.0,0.0,0.0,0.0,0.0,0.0,0.0,0.0,0.0,0.0,0.0,0.0,0.0,0.0,0.0,0.0,0.0,0.0,0.0,0.0,0.0,0.0,0.0,0.0,0.0,-1.9306,-1.956,-1.9504,-1.9152,-1.8247,-1.7468,0.0,0.0,0.0,0.0,0.0,0.0,0.0,0.0,0.0,0.0,0.0,0.0,0.0,0.0,0.0,0.0,0.0,0.0,0.0,0.0,0.0,0.0,0.0,0.0,0.0,0.0,0.0,0.0,0.0,0.0,0.0,0.0,0.0,0.0,0.0,0.0,0.0,0.0,0.0,0.0,0.0,0.0,0.0,0.0,0.0,0.0,0.0,0.0,0.0,0.0,0.0,0.0,0.0,0.0,0.0,0.0,0.0,0.0,0.0,0.0,0.0,0.0,0.0,0.0,0.0,0.0,0.0,0.0,0.0,0.0,0.0,0.0,0.0,0.0,0.0,0.0,0.0,0.0,0.0,0.0,0.0,0.0,0.0,0.0,0.0,0.0,0.0,0.0,0.0,0.0,0.0,0.0,0.0,0.0,0.0,0.0,0.0,0.0,0.0,0.0,0.0,0.0,0.0,0.0,0.0,0.0,0.0,0.0,-1.9033,-2.0451,-2.0828,-2.0815,-2.0413,-1.943,-1.8414,0.0,0.0,0.0,0.0,0.0,0.0,0.0,0.0,0.0,0.0,0.0,0.0,0.0,0.0,0.0,0.0,0.0,0.0,0.0,0.0,0.0,0.0,0.0,0.0,0.0,0.0,0.0,0.0,0.0,0.0,0.0,0.0,0.0,0.0,0.0,0.0,0.0,0.0,0.0,0.0,0.0,0.0,0.0,0.0,0.0,0.0,0.0,0.0,0.0,0.0,0.0,0.0,0.0,0.0,0.0,0.0,0.0,0.0,0.0,0.0,0.0,0.0,0.0,0.0,0.0,0.0,0.0,0.0,0.0,0.0,0.0,0.0,0.0,0.0,0.0,0.0,0.0,0.0,0.0,0.0,0.0,0.0,0.0,0.0,0.0,0.0,0.0,0.0,0.0,0.0,0.0,0.0,0.0,0.0,0.0,0.0,0.0,0.0,0.0,0.0,0.0,0.0,0.0,0.0,0.0,0.0,0.0,0.0,0.0,-2.1645,-2.1992,-2.194,-2.1408,-2.0431,-1.944,0.0,0.0,0.0,0.0,0.0,0.0,0.0,0.0,0.0,0.0,0.0,0.0,0.0,0.0,0.0,0.0,0.0,0.0,0.0,0.0,0.0,0.0,0.0,0.0,0.0,0.0,0.0,0.0,0.0,0.0,0.0,0.0,0.0,0.0,0.0,0.0,0.0,0.0,0.0,0.0,0.0,0.0,0.0,0.0,0.0,0.0,0.0,0.0,0.0,0.0,0.0,0.0,0.0,0.0,0.0,0.0,0.0,0.0,0.0,0.0,0.0,0.0,0.0,0.0,0.0,0.0,0.0,0.0,0.0,0.0,0.0,0.0,0.0,0.0,0.0,0.0,0.0,0.0,0.0,0.0,0.0,0.0,0.0,0.0,0.0,0.0,0.0,0.0,0.0,0.0,0.0,0.0,0.0,0.0,0.0,0.0,0.0,0.0,0.0,0.0,0.0,0.0,0.0,0.0,0.0,0.0,0.0,0.0,0.0,-2.4322,-2.4048,-2.3709,-2.3271,-2.2034,-2.0859,-1.982,0.0,0.0,0.0,0.0,0.0,0.0,0.0,0.0,0.0,0.0,0.0,0.0,0.0,0.0,0.0,0.0,0.0,0.0,0.0,0.0,0.0,0.0,0.0,0.0,0.0,0.0,0.0,0.0,0.0,0.0,0.0,0.0,0.0,0.0,0.0,0.0,0.0,0.0,0.0,0.0,0.0,0.0,0.0,0.0,0.0,0.0,0.0,0.0,0.0,0.0,0.0,0.0,0.0,0.0,0.0,0.0,0.0,0.0,0.0,0.0,0.0,0.0,0.0,0.0,0.0,0.0,0.0,0.0,0.0,0.0,0.0,0.0,0.0,0.0,0.0,0.0,0.0,0.0,0.0,0.0,0.0,0.0,0.0,0.0,0.0,0.0,0.0,0.0,0.0,0.0,0.0,0.0,0.0,0.0,0.0,0.0,0.0,0.0,0.0,0.0,0.0,0.0,0.0,0.0,0.0,0.0,0.0,0.0,-2.8172,-2.6887,-2.6061,-2.5727,-2.4057,-2.2659,0.0,0.0,0.0,0.0,0.0,0.0,0.0,0.0,0.0,0.0,0.0,0.0,0.0,0.0,0.0,0.0,0.0,0.0,0.0,0.0,0.0,0.0,0.0,0.0,0.0,0.0,0.0,0.0,0.0,0.0,0.0,0.0,0.0,0.0,0.0,0.0,0.0,0.0,0.0,0.0,0.0,0.0,0.0,0.0,0.0,0.0,0.0,0.0,0.0,0.0,0.0,0.0,0.0,0.0,0.0,0.0,0.0,0.0,0.0,0.0,0.0,0.0,0.0,0.0,0.0,0.0,0.0,0.0,0.0,0.0,0.0,0.0,0.0,0.0,0.0,0.0,0.0,0.0,0.0,0.0,0.0,0.0,0.0,0.0,0.0,0.0,0.0,0.0,0.0,0.0,0.0,0.0,0.0,0.0,0.0,0.0,0.0,0.0,0.0,0.0,0.0,0.0,0.0,0.0,0.0,0.0,0.0,0.0,0.0,-2.9302,-2.9621,-2.9012,-2.7467,-2.6046,-2.4276,0.0,0.0,0.0,0.0,0.0,0.0,0.0,0.0,0.0,0.0,0.0,0.0,0.0,0.0,0.0,0.0,0.0,0.0,0.0,0.0,0.0,0.0,0.0,0.0,0.0,0.0,0.0,0.0,0.0,0.0,0.0,0.0,0.0,0.0,0.0,0.0,0.0,0.0,0.0,0.0,0.0,0.0,0.0,0.0,0.0,0.0,0.0,0.0,0.0,0.0,0.0,0.0,0.0,0.0,0.0,0.0,0.0,0.0,0.0,0.0,0.0,0.0,0.0,0.0,0.0,0.0,0.0,0.0,0.0,0.0,0.0,0.0,0.0,0.0,0.0,0.0,0.0,0.0,0.0,0.0,0.0,0.0,0.0,0.0,0.0,0.0,0.0,0.0,0.0,0.0,0.0,0.0,0.0,0.0,0.0,0.0,0.0,0.0,0.0,0.0,0.0,0.0,0.0,0.0,0.0,0.0,0.0,0.0,-2.9578,-3.1135,-3.1805,-3.1512,-3.0286,-2.8251,-2.6074,0.0,0.0,0.0,0.0,0.0,0.0,0.0,0.0,0.0,0.0,0.0,0.0,0.0,0.0,0.0,0.0,0.0,0.0,0.0,0.0,0.0,0.0,0.0,0.0,0.0,0.0,0.0,0.0,0.0,0.0,0.0,0.0,0.0,0.0,0.0,0.0,0.0,0.0,0.0,0.0,0.0,0.0,0.0,0.0,0.0,0.0,0.0,0.0,0.0,0.0,0.0,0.0,0.0,0.0,0.0,0.0,0.0,0.0,0.0,0.0,0.0,0.0,0.0,0.0,0.0,0.0,0.0,0.0,0.0,0.0,0.0,0.0,0.0,0.0,0.0,0.0,0.0,0.0,0.0,0.0,0.0,0.0,0.0,0.0,0.0,0.0,0.0,0.0,0.0,0.0,0.0,0.0,0.0,0.0,0.0,0.0,0.0,0.0,0.0,0.0,0.0,0.0,0.0,0.0,0.0,0.0,0.0,0.0,-3.0984,-3.3018,-3.3452,-3.3484,-3.3211,-3.0469,-2.7957,0.0,0.0,0.0,0.0,0.0,0.0,0.0,0.0,0.0,0.0,0.0,0.0,0.0,0.0,0.0,0.0,0.0,0.0,0.0,0.0,0.0,0.0,0.0,0.0,0.0,0.0,0.0,0.0,0.0,0.0,0.0,0.0,0.0,0.0,0.0,0.0,0.0,0.0,0.0,0.0,0.0,0.0,0.0,0.0,0.0,0.0,0.0,0.0,0.0,0.0,0.0,0.0,0.0,0.0,0.0,0.0,0.0,0.0,0.0,0.0,0.0,0.0,0.0,0.0,0.0,0.0,0.0,0.0,0.0,0.0,0.0,0.0,0.0,0.0,0.0,0.0,0.0,0.0,0.0,0.0,0.0,0.0,0.0,0.0,0.0,0.0,0.0,0.0,0.0,0.0,0.0,0.0,0.0,0.0,0.0,0.0,0.0,0.0,0.0,0.0,0.0,0.0,0.0,0.0,0.0,0.0,0.0,0.0,-3.1712,-3.3043,-3.4003,-3.4234,-3.3826,-3.1986,-2.9642,0.0,0.0,0.0,0.0,0.0,0.0,0.0,0.0,0.0,0.0,0.0,0.0,0.0,0.0,0.0,0.0,0.0,0.0,0.0,0.0,0.0,0.0,0.0,0.0,0.0,0.0,0.0,0.0,0.0,0.0,0.0,0.0,0.0,0.0,0.0,0.0,0.0,0.0,0.0,0.0,0.0,0.0,0.0,0.0,0.0,0.0,0.0,0.0,-2.1246,0.0,0.0,0.0,0.0,0.0,0.0,0.0,0.0,0.0,0.0,0.0,0.0,0.0,0.0,0.0,0.0,0.0,0.0,0.0,0.0,0.0,0.0,0.0,0.0,0.0,0.0,0.0,0.0,0.0,0.0,0.0,0.0,0.0,0.0,0.0,0.0,0.0,0.0,0.0,0.0,0.0,0.0,0.0,0.0,0.0,0.0,0.0,0.0,0.0,0.0,0.0,0.0,0.0,0.0,0.0,0.0,0.0,0.0,0.0,-3.3244,-3.462,-3.5454,-3.5647,-3.5104,-3.3888,-3.1573,0.0,0.0,0.0,0.0,0.0,0.0,0.0,0.0,0.0,0.0,0.0,0.0,0.0,0.0,0.0,0.0,0.0,0.0,0.0,0.0,0.0,0.0,0.0,0.0,0.0,0.0,0.0,0.0,0.0,0.0,0.0,0.0,0.0,0.0,0.0,0.0,0.0,0.0,0.0,0.0,0.0,0.0,0.0,0.0,0.0,0.0,0.0,0.0,0.0,0.0,0.0,0.0,0.0,0.0,0.0,0.0,0.0,0.0,0.0,0.0,0.0,0.0,0.0,0.0,0.0,0.0,0.0,0.0,0.0,0.0,0.0,0.0,0.0,0.0,0.0,0.0,0.0,0.0,0.0,0.0,0.0,0.0,0.0,0.0,0.0,0.0,0.0,0.0,0.0,0.0,0.0,0.0,0.0,0.0,0.0,0.0,0.0,0.0,0.0,0.0,0.0,0.0,0.0,0.0,0.0,0.0,0.0,-3.2742,-3.4876,-3.6355,-3.6985,-3.7019,-3.6407,-3.5496,-3.3268,-2.9585,0.0,0.0,0.0,0.0,0.0,0.0,0.0,0.0,0.0,0.0,0.0,0.0,0.0,0.0,0.0,0.0,0.0,0.0,0.0,0.0,0.0,0.0,0.0,0.0,0.0,0.0,0.0,0.0,0.0,0.0,0.0,0.0,0.0,0.0,0.0,0.0,0.0,0.0,-1.9575,-2.1589,0.0,0.0,0.0,0.0,0.0,0.0,0.0,0.0,-2.5761,0.0,0.0,0.0,0.0,0.0,0.0,0.0,0.0,0.0,0.0,0.0,0.0,0.0,0.0,0.0,0.0,0.0,0.0,0.0,0.0,0.0,0.0,0.0,0.0,0.0,0.0,0.0,0.0,0.0,0.0,0.0,0.0,0.0,0.0,0.0,0.0,0.0,0.0,0.0,0.0,0.0,0.0,0.0,0.0,0.0,0.0,0.0,0.0,0.0,0.0,0.0,0.0,0.0,0.0,0.0,0.0,-3.1135,-3.3803,-3.5629,-3.6405,-3.7362,-3.7418,-3.6432,-3.5768,-3.3973,-3.0814,0.0,0.0,0.0,0.0,0.0,0.0,0.0,0.0,0.0,0.0,0.0,0.0,0.0,0.0,0.0,0.0,0.0,0.0,0.0,0.0,0.0,0.0,0.0,0.0,0.0,0.0,0.0,0.0,0.0,0.0,0.0,0.0,0.0,0.0,0.0,0.0,0.0,0.0,0.0,-2.3999,-2.5448,0.0,0.0,0.0,0.0,0.0,0.0,0.0,0.0,-2.7589,0.0,0.0,0.0,0.0,0.0,0.0,0.0,0.0,0.0,0.0,0.0,0.0,0.0,0.0,0.0,0.0,0.0,0.0,0.0,0.0,0.0,0.0,0.0,0.0,0.0,0.0,0.0,0.0,0.0,0.0,0.0,0.0,0.0,0.0,0.0,0.0,0.0,0.0,0.0,0.0,0.0,0.0,0.0,0.0,0.0,0.0,0.0,0.0,0.0,0.0,0.0,0.0,0.0,0.0,0.0,-3.2265,-3.4726,-3.6383,-3.7211,-3.8015,-3.7942,-3.6899,-3.6358,-3.4434,0.0,0.0,0.0,0.0,0.0,0.0,0.0,0.0,0.0,0.0,0.0,0.0,0.0,0.0,0.0,0.0,0.0,0.0,0.0,0.0,0.0,0.0,0.0,0.0,0.0,0.0,0.0,0.0,0.0,0.0,0.0,0.0,0.0,0.0,0.0,0.0,0.0,0.0,0.0,0.0,-2.5977,-2.7298,-2.8539,0.0,0.0,0.0,0.0,0.0,0.0,-3.0476,-3.0049,0.0,0.0,0.0,0.0,0.0,0.0,0.0,0.0,0.0,0.0,0.0,0.0,0.0,0.0,0.0,0.0,0.0,0.0,0.0,0.0,0.0,0.0,0.0,0.0,0.0,0.0,0.0,0.0,0.0,0.0,0.0,0.0,0.0,0.0,0.0,0.0,0.0,0.0,0.0,0.0,0.0,0.0,0.0,0.0,0.0,0.0,0.0,0.0,0.0,0.0,0.0,0.0,0.0,0.0,0.0,-3.3395,-3.5604,-3.7211,-3.8165,-3.8743,-3.8516,-3.7343,-3.6899,-3.4775,0.0,0.0,0.0,0.0,0.0,0.0,0.0,0.0,0.0,0.0,0.0,0.0,0.0,0.0,0.0,0.0,0.0,0.0,0.0,0.0,0.0,0.0,0.0,0.0,0.0,0.0,0.0,0.0,0.0,0.0,0.0,0.0,0.0,0.0,0.0,0.0,0.0,0.0,0.0,0.0,0.0,-2.9213,-3.0745,-3.1244,0.0,0.0,0.0,0.0,-3.2763,-3.268,0.0,0.0,0.0,0.0,0.0,0.0,0.0,0.0,0.0,0.0,0.0,0.0,0.0,0.0,0.0,0.0,0.0,0.0,0.0,0.0,0.0,0.0,0.0,0.0,0.0,0.0,0.0,0.0,0.0,0.0,0.0,0.0,0.0,0.0,0.0,0.0,0.0,0.0,0.0,0.0,0.0,0.0,0.0,0.0,0.0,0.0,0.0,0.0,0.0,0.0,0.0,0.0,0.0,0.0,0.0,0.0,-3.45,-3.6709,-3.8115,-3.8818,-3.932,-3.8891,-3.7368,-3.7219,-3.5138,0.0,0.0,0.0,0.0,0.0,0.0,0.0,0.0,0.0,0.0,0.0,0.0,0.0,0.0,0.0,0.0,0.0,0.0,0.0,0.0,0.0,0.0,0.0,0.0,0.0,0.0,0.0,0.0,0.0,0.0,0.0,0.0,0.0,0.0,0.0,0.0,0.0,0.0,0.0,0.0,0.0,-3.1388,-3.2111,-3.3461,-3.444,0.0,0.0,-3.4659,-3.4585,-3.4142,0.0,0.0,0.0,0.0,0.0,0.0,0.0,0.0,0.0,0.0,0.0,0.0,0.0,0.0,0.0,0.0,0.0,0.0,0.0,0.0,0.0,0.0,0.0,0.0,0.0,0.0,0.0,0.0,0.0,0.0,0.0,0.0,0.0,0.0,0.0,0.0,0.0,0.0,0.0,0.0,0.0,0.0,0.0,0.0,0.0,0.0,0.0,0.0,0.0,0.0,0.0,0.0,0.0,0.0,0.0,-3.2893,-3.5579,-3.7211,-3.8291,-3.8919,-3.9421,-3.9064,-3.7785,-3.7441,-3.5478,0.0,0.0,0.0,0.0,0.0,0.0,0.0,0.0,0.0,0.0,0.0,0.0,0.0,0.0,0.0,0.0,0.0,0.0,0.0,0.0,0.0,0.0,0.0,0.0,0.0,0.0,0.0,0.0,0.0,0.0,0.0,0.0,0.0,0.0,0.0,0.0,0.0,0.0,0.0,0.0,0.0,0.0,-3.4226,-3.509,0.0,0.0,0.0,-3.6646,-3.6646,0.0,0.0,0.0,0.0,0.0,0.0,0.0,0.0,0.0,0.0,0.0,0.0,0.0,0.0,0.0,0.0,0.0,0.0,0.0,0.0,0.0,0.0,0.0,0.0,0.0,0.0,0.0,0.0,0.0,0.0,0.0,0.0,0.0,0.0,0.0,0.0,0.0,0.0,0.0,0.0,0.0,0.0,0.0,0.0,0.0,0.0,0.0,0.0,0.0,0.0,0.0,0.0,0.0,0.0,0.0,0.0,0.0,-3.6556,-3.7663,-3.8492,-3.9044,-3.9471,-3.9189,-3.813,-3.7564,0.0,0.0,0.0,0.0,0.0,0.0,0.0,0.0,0.0,0.0,0.0,0.0,0.0,0.0,0.0,0.0,0.0,0.0,0.0,0.0,0.0,0.0,0.0,0.0,0.0,0.0,0.0,-1.9033,0.0,0.0,0.0,0.0,0.0,0.0,0.0,0.0,0.0,0.0,0.0,0.0,0.0,0.0,-3.3727,-3.5824,-3.6447,-3.7019,0.0,0.0,-3.8241,-3.8216,-3.7412,-3.6533,0.0,0.0,0.0,0.0,0.0,0.0,0.0,0.0,0.0,0.0,0.0,0.0,0.0,0.0,0.0,0.0,0.0,0.0,0.0,0.0,0.0,0.0,0.0,0.0,0.0,0.0,0.0,0.0,0.0,0.0,0.0,0.0,0.0,0.0,0.0,0.0,0.0,0.0,0.0,0.0,0.0,0.0,0.0,0.0,0.0,0.0,0.0,0.0,0.0,0.0,0.0,0.0,0.0,0.0,0.0,-3.7061,-3.829,-3.9094,-3.9622,-3.9672,-3.9164,-3.813,-3.7564,-3.5721,0.0,0.0,0.0,0.0,0.0,0.0,0.0,0.0,0.0,0.0,0.0,0.0,0.0,0.0,0.0,0.0,0.0,0.0,0.0,0.0,0.0,0.0,0.0,0.0,0.0,0.0,0.0,0.0,0.0,0.0,0.0,0.0,0.0,0.0,0.0,0.0,0.0,0.0,0.0,0.0,0.0,-3.5006,-3.6207,-3.7713,-3.8718,0.0,0.0,-3.8844,-3.8869,-3.8291,-3.7538,-3.6531,0.0,0.0,0.0,0.0,0.0,0.0,0.0,0.0,0.0,0.0,0.0,0.0,0.0,0.0,0.0,0.0,0.0,0.0,0.0,0.0,0.0,0.0,0.0,0.0,0.0,0.0,0.0,0.0,0.0,0.0,0.0,0.0,0.0,0.0,0.0,0.0,0.0,0.0,0.0,0.0,0.0,0.0,0.0,0.0,0.0,0.0,0.0,0.0,0.0,0.0,0.0,0.0,0.0,-3.5278,-3.7663,-3.8818,-3.9647,-4.0174,-4.0526,-4.0187,-3.9087,-3.8573,-3.6962,0.0,0.0,0.0,0.0,0.0,0.0,0.0,0.0,0.0,0.0,0.0,0.0,0.0,0.0,0.0,0.0,0.0,0.0,0.0,0.0,0.0,0.0,0.0,0.0,0.0,0.0,0.0,0.0,-2.7783,-2.9179,-3.0636,0.0,0.0,0.0,0.0,0.0,0.0,0.0,0.0,0.0,0.0,-3.6383,-3.8165,-3.8969,0.0,0.0,-4.04,-4.04,-4.04,-3.9622,-3.8919,-3.8492,-3.7387,0.0,0.0,0.0,0.0,0.0,0.0,0.0,0.0,0.0,0.0,0.0,0.0,0.0,0.0,0.0,0.0,0.0,0.0,0.0,0.0,0.0,0.0,0.0,0.0,0.0,0.0,0.0,0.0,0.0,0.0,0.0,0.0,0.0,0.0,0.0,0.0,0.0,0.0,0.0,0.0,0.0,0.0,0.0,0.0,0.0,0.0,0.0,0.0,0.0,0.0,0.0,0.0,-3.6056,-3.8241,-3.9371,-4.0199,-4.0752,-4.11,-4.0885,-3.9976,-3.9262,-3.7916,0.0,0.0,0.0,0.0,0.0,0.0,0.0,0.0,0.0,0.0,0.0,0.0,0.0,0.0,0.0,0.0,0.0,0.0,0.0,0.0,0.0,0.0,0.0,0.0,0.0,0.0,0.0,0.0,-3.041,-3.1577,-3.1692,0.0,0.0,0.0,0.0,0.0,0.0,0.0,0.0,0.0,0.0,-3.7838,-3.9672,-4.0074,-4.0475,-4.1175,-4.1275,-4.1275,-4.1275,-4.0701,-4.0124,-3.9948,0.0,0.0,0.0,0.0,0.0,0.0,0.0,0.0,0.0,0.0,0.0,0.0,0.0,0.0,0.0,0.0,0.0,0.0,0.0,0.0,0.0,0.0,0.0,0.0,0.0,0.0,0.0,0.0,0.0,0.0,-2.4908,0.0,0.0,0.0,0.0,0.0,0.0,0.0,0.0,0.0,0.0,0.0,0.0,0.0,0.0,0.0,0.0,0.0,0.0,0.0,0.0,0.0,0.0,-3.6586,-3.8818,-3.9948,-4.0777,-4.125,-4.1275,-4.1031,-4.0518,-3.9484,-3.8282,-3.6868,0.0,0.0,0.0,0.0,0.0,0.0,0.0,0.0,0.0,0.0,0.0,0.0,0.0,0.0,0.0,0.0,0.0,0.0,0.0,0.0,0.0,0.0,0.0,0.0,0.0,0.0,-3.1772,-3.3548,-3.384,0.0,0.0,0.0,0.0,0.0,0.0,0.0,0.0,0.0,0.0,-3.8115,-3.9245,-4.0375,-4.0924,-4.13,-4.1351,-4.1326,-4.1326,-4.1351,-4.13,-4.1075,0.0,0.0,0.0,0.0,0.0,0.0,0.0,0.0,0.0,0.0,0.0,0.0,0.0,0.0,0.0,0.0,0.0,0.0,0.0,0.0,0.0,0.0,0.0,0.0,0.0,0.0,0.0,-2.9905,-2.9679,0.0,0.0,0.0,0.0,0.0,0.0,0.0,0.0,0.0,0.0,0.0,-3.472,-3.4324,0.0,0.0,0.0,0.0,0.0,0.0,0.0,0.0,0.0,0.0,0.0,0.0,-3.7914,-3.9396,-4.0877,-4.1681,-4.1882,-4.2258,-4.1983,-4.1053,-4.066,-3.9272,-3.6654,0.0,0.0,0.0,0.0,0.0,0.0,0.0,0.0,0.0,0.0,0.0,0.0,0.0,0.0,0.0,0.0,0.0,0.0,0.0,0.0,0.0,0.0,0.0,0.0,0.0,-3.1829,0.0,0.0,0.0,0.0,0.0,0.0,0.0,0.0,0.0,0.0,0.0,-3.7387,-3.8693,-3.9798,-4.1053,-4.2484,-4.2861,-4.3112,0.0,0.0,0.0,0.0,0.0,0.0,0.0,0.0,0.0,0.0,0.0,0.0,0.0,0.0,-3.6207,-3.3997,-3.3897,-3.4104,-3.4148,0.0,0.0,0.0,0.0,0.0,0.0,0.0,0.0,0.0,0.0,0.0,0.0,0.0,0.0,-3.2842,0.0,-3.2114,0.0,0.0,0.0,0.0,0.0,0.0,0.0,0.0,-3.6586,-3.7161,-3.7513,-3.7161,-3.6837,0.0,-3.6508,-3.5429,0.0,0.0,0.0,0.0,0.0,0.0,0.0,0.0,-3.8969,-4.0249,-4.1505,-4.2389,-4.271,-4.2774,-4.2494,-4.184,-4.1135,-3.9537,-3.6848,-3.508,-3.3226,0.0,0.0,0.0,0.0,0.0,0.0,0.0,0.0,0.0,0.0,0.0,0.0,0.0,0.0,0.0,0.0,0.0,0.0,0.0,0.0,0.0,0.0,0.0,-3.4468,0.0,0.0,0.0,0.0,0.0,0.0,0.0,0.0,0.0,-3.6282,-3.7914,-3.9572,-4.0701,-4.163,-4.266,-4.3915,0.0,0.0,0.0,0.0,0.0,0.0,0.0,-4.4091,-4.4091,-4.379,-4.3237,-4.2359,-4.1605,-4.1053,-4.0877,0.0,0.0,-3.6985,-3.6734,-3.6937,-3.6985,-3.7437,-3.7914,-3.8266,-3.8492,-3.8894,0.0,0.0,0.0,0.0,0.0,0.0,0.0,0.0,-3.5608,-3.5633,0.0,-3.5558,0.0,0.0,0.0,0.0,0.0,-3.6533,0.0,0.0,-3.922,-3.9772,-3.9798,-3.9747,-3.9471,-3.907,-3.9446,-3.9396,-3.8793,-3.6232,0.0,0.0,0.0,0.0,0.0,0.0,-3.9747,-4.13,-4.1957,-4.2735,-4.374,-4.3031,-4.269,-4.2815,-4.098,-3.916,-3.7618,-3.6709,-3.5571,-3.4095,-3.1934,0.0,0.0,0.0,0.0,0.0,0.0,0.0,0.0,0.0,0.0,0.0,0.0,0.0,0.0,0.0,0.0,0.0,0.0,0.0,0.0,-3.5347,0.0,0.0,0.0,0.0,0.0,0.0,0.0,0.0,0.0,0.0,-3.9094,-4.0425,-4.1752,-4.2861,0.0,0.0,0.0,0.0,-4.4636,-4.4719,-4.4694,-4.4719,-4.4769,-4.4769,-4.4744,-4.4769,0.0,0.0,-4.3966,-4.384,-4.3614,-4.3112,-4.2961,-4.2359,-4.0224,-3.9772,-3.9772,-3.9772,-4.0174,-4.0551,-4.0651,-4.0978,-4.148,-3.8718,0.0,0.0,0.0,0.0,-3.7036,-3.7487,-3.7939,-3.8341,-3.8517,-3.8492,-3.809,0.0,0.0,0.0,0.0,0.0,0.0,-3.9848,-4.04,-4.1128,-4.1656,-4.2032,-4.163,-4.1408,-4.1257,-4.0978,-4.0777,-4.0601,-3.9848,-3.9069,-3.8517,0.0,0.0,0.0,0.0,-4.1254,-4.2459,-4.3037,-4.3689,-4.4367,-4.3954,-4.3431,-4.2732,-4.1023,-3.9661,-3.8804,-3.7246,-3.5949,-3.5019,-3.3554,0.0,0.0,0.0,0.0,0.0,0.0,0.0,0.0,0.0,0.0,0.0,0.0,0.0,0.0,0.0,0.0,0.0,0.0,0.0,-3.7072,-3.8139,-3.844,0.0,0.0,0.0,0.0,0.0,0.0,0.0,0.0,0.0,-4.2308,-4.2785,-4.3363,0.0,0.0,-4.5196,-4.5748,-4.5824,-4.5974,-4.6351,-4.6366,0.0,-4.6903,-4.6979,-4.6954,-4.6954,-4.6652,-4.6225,-4.5698,-4.5271,-4.4819,-4.4267,-4.4141,-4.3915,-4.3363,-4.2559,-4.2082,-4.2057,-4.2158,-4.2409,-4.2785,-4.2986,-4.3237,-4.1474,-4.0707,-3.9143,-3.8818,-3.9346,-3.9697,-4.0099,-4.0526,-4.0852,-4.1003,-4.0978,-4.0651,-4.0427,-4.0201,-3.9798,0.0,0.0,0.0,-4.2007,-4.2333,-4.2886,-4.3313,-4.3589,-4.3288,-4.3137,-4.3112,-4.2811,-4.2579,-4.2635,-4.2579,-4.2308,-4.1656,0.0,0.0,-4.1505,-4.2032,-4.2735,-4.3614,-4.394,-4.4335,-4.4769,-4.4205,-4.343,-4.2377,-4.1047,-4.0143,-3.9702,-3.8036,-3.7019,-3.6781,-3.5244,-3.3982,0.0,0.0,0.0,0.0,0.0,0.0,0.0,0.0,0.0,0.0,0.0,-2.5966,-2.9162,0.0,0.0,0.0,-3.5429,-3.734,-3.9457,-4.0137,0.0,0.0,0.0,0.0,0.0,0.0,0.0,-4.1404,-4.2459,-4.3564,-4.4644,-4.497,-4.5171,-4.5271,-4.5773,-4.6326,-4.6878,0.0,-4.7054,-4.7405,-4.7369,-4.7556,-4.7857,-4.7908,-4.7908,-4.7908,-4.7657,-4.7355,-4.7004,-4.6652,-4.6326,-4.6024,-4.5924,-4.5924,-4.5924,-4.5372,-4.4593,-4.3815,-4.3614,-4.374,-4.4066,-4.4116,-4.4342,-4.3198,-4.3502,-4.1569,-4.1068,-4.1497,-4.1497,-4.2103,-4.3087,-4.3112,-4.3112,-4.3112,-4.3112,-4.2891,-4.2414,-4.2414,0.0,-4.2439,-4.3463,-4.394,-4.4016,-4.4518,-4.4794,-4.4819,-4.4744,-4.4694,-4.4694,-4.4644,-4.4618,-4.4593,-4.4593,-4.4618,-4.4568,-4.3162,-4.2715,-4.3112,-4.3614,-4.4141,-4.4694,-4.4694,-4.4794,-4.4988,-4.4087,-4.2997,-4.1939,-4.1222,-4.0624,-4.027,-3.9023,-3.8425,-3.8611,-3.6974,-3.5872,-3.5634,0.0,0.0,0.0,0.0,0.0,0.0,0.0,0.0,0.0,0.0,0.0,0.0,0.0,0.0,0.0,-3.9016,0.0,-4.0404,-4.1597,0.0,0.0,0.0,-4.1932,-4.0877,-4.1756,-4.269,-4.3187,0.0,0.0,-4.6301,-4.6878,-4.7029,-4.6552,-4.6903,-4.7355,-4.7832,-4.7883,-4.7908,-4.7958,-4.7983,-4.7983,-4.8134,-4.8209,-4.8259,-4.8259,-4.8134,-4.8234,-4.8159,-4.8058,-4.8033,-4.7883,-4.7933,-4.7857,-4.7883,-4.7707,-4.728,-4.5271,-4.492,-4.492,-4.4937,-4.502,-4.5321,-4.3578,-4.3433,-4.3396,-4.3267,-4.3119,-4.3119,-4.3441,-4.3896,-4.3921,-4.4011,-4.4242,-4.4242,-4.4166,-4.4041,-4.4041,-4.4041,-4.4066,-4.4769,-4.5321,-4.5723,-4.5849,-4.6125,-4.6502,-4.5673,-4.5271,-4.5246,-4.4819,-4.4618,-4.4618,-4.4618,-4.4618,-4.4618,-4.4669,-4.4543,-4.4242,-4.4367,-4.4719,-4.5271,-4.5271,-4.5251,-4.517,-4.4253,-4.344,-4.295,-4.1456,-4.0563,-4.05,-3.9357,-3.8446,-3.8081,-3.7828,-3.7484,-3.6957,-3.5816,0.0,0.0,0.0,0.0,0.0,0.0,0.0,0.0,0.0,-3.2889,-3.5875,0.0,-3.8819,0.0,-4.1645,-4.27,-4.2899,-4.3582,0.0,0.0,-4.3639,-4.3765,-4.3112,-4.4016,-4.4895,-4.5447,-4.6125,-4.6778,-4.7456,-4.7631,-4.7832,-4.8134,-4.7933,-4.7782,-4.7883,-4.7908,-4.8083,-4.8485,-4.8586,-4.8711,-4.9138,-4.954,-4.9791,-4.9816,-5.0167,-5.0318,-4.9891,-4.9464,-4.9063,-4.8636,-4.8209,-4.7958,-4.7983,-4.7908,-4.7807,-4.7255,-4.7129,-4.7129,-4.7129,-4.7104,-4.7179,-4.3899,-4.3608,-4.4017,-4.412,-4.4031,-4.4342,-4.4877,-4.5377,-4.5401,-4.5583,-4.586,-4.6015,-4.6075,-4.6075,-4.6075,-4.61,-4.61,-4.6426,-4.6728,-4.7004,-4.7029,-4.7179,-4.7456,-4.6853,-4.6451,-4.6225,-4.5899,-4.5623,-4.5372,-4.5372,-4.5372,-4.5372,-4.5698,-4.5698,-4.5397,-4.5372,-4.5522,-4.5849,-4.555,-4.5399,-4.527,-4.4175,-4.349,-4.324,-4.1724,-4.089,-4.089,-3.9597,-3.884,-3.879,-3.8531,-3.8469,-3.8585,-3.7831,-3.7038,0.0,0.0,0.0,0.0,0.0,0.0,0.0,0.0,0.0,0.0,0.0,-4.1367,-4.263,-4.3472,-4.4119,-4.4518,-4.5045,-4.5246,-4.4945,-4.5623,-4.5874,-4.5347,-4.605,-4.6677,-4.7004,-4.7305,-4.7682,-4.8209,-4.8284,-4.8485,-4.9063,-4.9063,-4.8937,-4.8736,-4.8837,-4.9138,-4.9439,-4.9715,-4.9967,-5.0318,-5.0594,-5.0795,-5.082,-5.1071,-5.1172,-5.0845,-5.0544,-5.0243,-4.9941,-4.9615,-4.9414,-4.9414,-4.9414,-4.9414,-4.9414,-4.9414,-4.9038,-4.8134,-4.7908,-4.7958,-4.3923,-4.3659,-4.4127,-4.4305,-4.4414,-4.5253,-4.6036,-4.6675,-4.6739,-4.6992,-4.7457,-4.7746,-4.7845,-4.7908,-4.7908,-4.7908,-4.7908,-4.7983,-4.8033,-4.8033,-4.8008,-4.8008,-4.8033,-4.7933,-4.7682,-4.7168,-4.723,-4.6979,-4.6527,-4.6527,-4.6502,-4.6502,-4.6502,-4.6527,-4.6502,-4.6502,-4.6451,-4.6326,-4.5696,-4.5331,-4.5208,-4.395,-4.3263,-4.3075,-4.187,-4.1187,-4.1035,-3.98,-3.9346,-3.9897,-3.9228,-3.9232,-4.0172,-3.9753,-3.9276,0.0,-3.8388,0.0,0.0,0.0,0.0,0.0,0.0,0.0,0.0,-4.2134,-4.348,-4.4786,-4.4945,-4.5171,-4.5748,-4.6225,-4.6502,-4.6527,-4.733,-4.7732,-4.7305,-4.7707,-4.8008,-4.8008,-4.8083,-4.8335,-4.8786,-4.8912,-4.9188,-4.964,-5.0142,-5.0268,-4.9967,-5.0193,-5.0469,-5.0519,-5.0946,-5.1096,-5.1172,-5.1297,-5.1373,-5.1373,-5.1523,-5.1498,-5.1523,-5.1448,-5.1373,-5.1348,-5.1197,-5.1172,-5.1272,-5.1222,-5.1222,-5.1122,-5.1096,-5.0544,-4.9012,-4.856,-4.851,-4.3354,-4.315,-4.3999,-4.4542,-4.4819,-4.569,-4.5908,-4.5653,-4.591,-4.6573,-4.737,-4.7432,-4.762,-4.7908,-4.7908,-4.7908,-4.7933,-4.8385,-4.8611,-4.8611,-4.8611,-4.8611,-4.8586,-4.8134,-4.7857,-4.7757,-4.7757,-4.7707,-4.7606,-4.7606,-4.7606,-4.7606,-4.7606,-4.7606,-4.7606,0.0,0.0,0.0,-4.5878,-4.5428,-4.4853,-4.3888,-4.2886,-4.2125,-4.1035,0.0,-3.9975,-3.9714,-3.9563,-3.9601,-4.0163,0.0,0.0,0.0,0.0,0.0,0.0,0.0,0.0,0.0,0.0,0.0,-4.2245,-4.2121,-4.2233,-4.3886,-4.5413,-4.6466,-4.6592,-4.6878,-4.7405,-4.7531,-4.7606,-4.7631,-4.7782,-4.7857,-4.7782,-4.8259,-4.8611,-4.8611,-4.8987,-4.9314,-4.9439,-4.9816,-5.0117,-5.0268,-5.077,-5.1046,-5.0996,-5.1046,-5.1122,-5.1147,-5.1348,-5.1322,-5.1272,-5.1724,-5.2051,-5.1975,-5.2352,-5.2578,-5.2578,-5.2251,-5.1975,-5.1975,-5.1599,-5.1348,-5.1348,-5.1272,-5.1423,-5.1297,-5.1322,-5.1147,-5.0745,-5.0645,-5.067,-4.3119,0.0,-4.3741,-4.4261,0.0,-4.5096,-4.5265,-4.5301,-4.6204,-4.7208,-4.8199,-4.8787,-4.9112,-4.9282,-4.9199,-4.9138,-4.9138,-4.9163,-4.9163,-4.9188,-4.9188,-4.9163,-4.9163,-4.8887,-4.8611,-4.8335,-4.8335,-4.8184,-4.7933,-4.7908,-4.7908,-4.7908,-4.7908,-4.7908,-4.7908,-4.7908,-4.7595,-4.6884,-4.6514,-4.5993,-4.5344,-4.4333,-4.3437,-4.2814,-4.1525,0.0,0.0,0.0,0.0,0.0,0.0,0.0,0.0,0.0,0.0,-4.2665,-4.2584,-4.2488,-4.2488,-4.2488,-4.2974,-4.3936,-4.4511,-4.4711,-4.4436,-4.5554,-4.6627,-4.7431,-4.7531,-4.7732,-4.8259,-4.8335,-4.8435,-4.8686,-4.8736,-4.8736,-4.8761,-4.8987,-4.9289,-4.9565,-4.9816,-5.0092,-5.0393,-5.0645,-5.082,-5.087,-5.1322,-5.18,-5.2026,-5.185,-5.185,-5.2377,-5.2477,-5.2603,-5.2854,-5.3105,-5.3306,-5.3381,-5.3557,-5.3708,-5.3733,-5.3507,-5.3331,-5.3306,-5.308,-5.2904,-5.2973,-5.2973,-5.2904,-5.2904,-5.2904,-5.2904,-5.2829,-5.2051,-5.1272,-4.2763,-4.2602,-4.3337,-4.3602,-4.3675,-4.4198,-4.4728,-4.5379,0.0,0.0,0.0,-5.0081,-5.0578,-5.0663,-5.0572,-5.0569,-5.0519,-4.9992,-4.9741,-4.9741,-4.964,-4.959,-4.959,-4.959,-4.9364,-4.8937,-4.8912,-4.8686,-4.8209,-4.8209,-4.8209,-4.8209,-4.8209,-4.8209,-4.8209,-4.8209,-4.8021,-4.7604,-4.7153,-4.6612,-4.5806,-4.4812,-4.4028,-4.3568,-4.2192,-4.1441,-4.1375,-4.054,-4.0388,-4.1085,-4.1472,-4.2134,-4.3128,-4.3839,-4.4317,-4.4579,-4.4693,-4.4769,-4.4794,-4.4869,-4.4995,-4.5196,-4.605,-4.6552,-4.6476,-4.6954,-4.7506,-4.8008,-4.8159,-4.8435,-4.9012,-4.9163,-4.9389,-4.9841,-4.9891,-4.9891,-4.9891,-4.9891,-5.0092,-5.0469,-5.0569,-5.0745,-5.1172,-5.1348,-5.1473,-5.1624,-5.2076,-5.2578,-5.303,-5.2879,-5.2904,-5.3582,-5.3708,-5.3959,-5.4386,-5.4461,-5.4561,-5.4436,-5.4486,-5.4561,-5.4561,-5.4561,-5.4561,-5.4411,-5.4561,-5.4486,-5.4511,-5.4411,-5.4561,-5.4561,-5.4561,-5.4561,-5.4411,-5.3155,-5.2026,-4.1428,-4.1818,-4.2344,-4.2529,-4.2624,-4.3769,-4.4838,-4.5866,-4.6589,-4.7539,-4.8603,-4.9426,-5.0081,-5.0687,-5.1039,-5.1172,-5.1122,-5.0569,-5.0293,-5.0268,-4.9816,-4.959,-4.959,-4.959,-4.954,-4.949,-4.949,-4.9439,-4.9364,-4.9364,-4.9364,-4.9364,-4.9364,-4.9364,-4.9364,-4.9364,-4.9042,-4.8395,-4.7675,-4.6739,-4.5484,-4.4724,-4.3742,-4.2549,-4.1723,-4.1072,-4.0847,-4.1188,-4.1749,-4.2459,-4.2994,-4.3729,-4.4681,-4.4949,-4.5072,-4.4928,-4.5244,-4.5372,-4.5372,-4.5799,-4.6476,-4.7355,-4.7606,-4.7506,-4.7018,-4.7506,-4.8033,-4.8611,-4.9088,-4.959,-5.0117,-5.0594,-5.0845,-5.0971,-5.1021,-5.1046,-5.0971,-5.0996,-5.1021,-5.1147,-5.1147,-5.1197,-5.1373,-5.1749,-5.2201,-5.2628,-5.313,-5.3683,-5.416,-5.4285,-5.4356,-5.4482,-5.4507,-5.4557,-5.4662,-5.4587,-5.4662,-5.4561,-5.4708,-5.4687,-5.4712,-5.4712,-5.4712,-5.4612,-5.4687,-5.4662,-5.4637,-5.4561,-5.4687,-5.4737,-5.4762,-5.4737,-5.4813,-5.4386,-5.4155,-4.1468,-4.171,-4.2115,-4.2393,-4.2393,-4.3456,-4.4428,-4.5437,-4.6328,-4.7451,-4.8803,-4.9787,-5.0645,-5.1308,-5.1352,-5.1497,-5.1699,-5.1147,-5.0896,-5.087,-5.0619,-5.0519,-5.0519,-5.0519,-5.0519,-5.0519,-5.0494,-5.0494,-5.0519,-5.0519,-5.0519,-5.0519,-5.0519,-5.0519,-5.0519,-5.0494,-5.0081,-4.9323,-4.8491,-4.7361,-4.5988,-4.5435,-4.4702,-4.3691,-4.2836,-4.2342,-4.2206,-4.2504,-4.2838,-4.3369,-4.3993,-4.4694,-4.5462,-4.5939,-4.6217,-4.6339,-4.662,-4.6803,-4.6803,-4.7029,-4.738,-4.7883,-4.8485,-4.8736,-4.8485,-4.8686,-4.9063,-4.9615,-5.0193,-5.0619,-5.087,-5.1122,-5.1272,-5.1272,-5.1272,-5.1272,-5.1272,-5.1272,-5.1398,-5.1674,-5.1724,-5.185,-5.2151,-5.2628,-5.303,-5.3381,-5.4059,-5.4813,-5.539,-5.5717,-5.5666,-5.5164,-5.5013,-5.5164,-5.539,-5.5465,-5.544,-5.5465,-5.5465,-5.5465,-5.5465,-5.5465,-5.544,-5.5465,-5.5465,-5.5465,-5.5465,-5.5465,-5.5566,-5.5867,-5.5892,-5.5993,-5.6244,-5.6369,-5.5968,-4.1503,-4.1622,-4.2019,-4.2216,-4.2447,-4.306,-4.3898,-4.488,-4.598,-4.7332,-4.8838,-5.0009,-5.1025,-5.1771,-5.1767,-5.1936,-5.2133,-5.1699,-5.1473,-5.1448,-5.1348,-5.1272,-5.1272,-5.1272,-5.1272,-5.1272,-5.1272,-5.1272,-5.1272,-5.1272,-5.1272,-5.1272,-5.1272,-5.1272,-5.1272,-5.1272,-5.0913,-5.0066,-4.9405,-4.8293,-4.6697,-4.6204,-4.5663,-4.4914,-4.4211,-4.3804,-4.3781,-4.378,-4.4043,-4.4441,-4.4982,-4.5627,-4.6247,-4.6788,-4.7181,-4.7558,-4.7808,-4.7983,-4.8109,-4.8234,-4.836,-4.8485,-4.9414,-4.9967,-4.9967,-5.0092,-5.0268,-5.0619,-5.1122,-5.1448,-5.1498,-5.1599,-5.1649,-5.1649,-5.1649,-5.1724,-5.1674,-5.1649,-5.18,-5.2226,-5.2277,-5.2503,-5.3005,-5.3432,-5.3833,-5.4361,-5.5139,-5.5942,-5.652,-5.6972,-5.6796,-5.6269,-5.5968,-5.6143,-5.652,-5.6595,-5.6595,-5.6595,-5.6595,-5.6595,-5.6595,-5.6595,-5.6595,-5.6595,-5.6595,-5.6595,-5.6595,-5.6595,-5.6746,-5.7047,-5.7097,-5.7273,-5.76,-5.77,-5.7374,-4.0916,-4.1249,-4.1308,-4.1773,-4.237,-4.2524,-4.3442,-4.4805,-4.5704,-4.6965,-4.8523,-4.9675,-5.0813,-5.1751,-5.2164,-5.2485,-5.271,-5.2277,-5.2026,-5.1975,-5.1523,-5.1297,-5.1348,-5.1297,-5.1272,-5.1322,-5.1348,-5.1373,-5.1373,-5.1348,-5.1297,-5.1272,-5.1272,-5.1322,-5.1297,-5.1322,-5.1114,-5.0613,-5.0496,-4.9468,-4.7503,-4.6674,-4.6001,-4.5256,-4.4892,-4.4664,-4.4755,-4.4937,-4.5457,-4.6107,-4.646,-4.6851,-4.7449,-4.7478,-4.7583,-4.7921,-4.7958,-4.8134,-4.8686,-4.9163,-4.964,-5.0167,-5.072,-5.1122,-5.1147,-5.1574,-5.1674,-5.1498,-5.1749,-5.2026,-5.2076,-5.2427,-5.2653,-5.2628,-5.2678,-5.2779,-5.2703,-5.2779,-5.2804,-5.2829,-5.2854,-5.3055,-5.3532,-5.3808,-5.4386,-5.5666,-5.6344,-5.6997,-5.7524,-5.7725,-5.7876,-5.77,-5.7675,-5.765,-5.7675,-5.7725,-5.76,-5.765,-5.77,-5.76,-5.7549,-5.7575,-5.7725,-5.7424,-5.76,-5.7575,-5.7625,-5.7725,-5.7675,-5.7775,-5.7826,-5.7876,-5.7901,-5.8052,-5.7826,-4.1016,-4.1172,-4.1172,-4.1715,-4.237,-4.2907,-4.3898,-4.5181,-4.6299,-4.7479,-4.8789,-4.9938,-5.0954,-5.182,-5.2238,-5.2585,-5.2836,-5.2703,-5.2603,-5.2578,-5.2352,-5.2251,-5.2251,-5.2251,-5.2251,-5.2251,-5.2251,-5.2251,-5.2251,-5.2251,-5.2251,-5.2251,-5.2251,-5.2251,-5.2251,-5.2251,-5.2033,-5.1547,-5.1345,-5.061,-4.9474,-4.8479,-4.7664,-4.6979,-4.6772,-4.6704,-4.6704,-4.7048,-4.7459,-4.7937,-4.831,-4.8792,-4.943,-4.9429,-4.9566,-4.9891,-4.9891,-5.0017,-5.0243,-5.0469,-5.067,-5.0921,-5.1448,-5.19,-5.2251,-5.2729,-5.3055,-5.3181,-5.2854,-5.2603,-5.2628,-5.2735,-5.2861,-5.2861,-5.2861,-5.2861,-5.2861,-5.2861,-5.303,-5.3306,-5.3381,-5.3607,-5.4185,-5.4787,-5.5566,-5.657,-5.7198,-5.775,-5.8278,-5.8378,-5.8679,-5.9182,-5.9332,-5.8855,-5.8227,-5.7901,-5.7926,-5.7926,-5.7901,-5.7901,-5.7976,-5.7901,-5.7901,-5.7926,-5.7976,-5.7976,-5.7851,-5.7926,-5.7951,-5.8202,-5.8704,-5.883,-5.8855,-5.9106,-5.9282,-4.1172,-4.125,-4.1327,-4.185,-4.2621,-4.331,-4.4352,-4.563,-4.6743,-4.7918,-4.9126,-5.0293,-5.1306,-5.1935,-5.2308,-5.256,-5.2861,-5.2861,-5.2861,-5.2861,-5.2861,-5.2861,-5.2861,-5.2861,-5.2861,-5.2861,-5.2836,-5.2836,-5.2861,-5.2861,-5.2861,-5.2861,-5.2861,-5.2861,-5.2861,-5.2861,-5.2729,-5.2377,-5.2054,-5.1693,-5.1141,-5.0411,-4.9511,-4.8603,-4.8442,-4.8442,-4.8511,-4.8741,-4.906,-4.9402,-4.9767,-5.0173,-5.0645,-5.0779,-5.098,-5.1272,-5.1272,-5.1272,-5.1272,-5.1423,-5.1574,-5.1749,-5.2226,-5.2779,-5.3306,-5.3733,-5.411,-5.4386,-5.3833,-5.3381,-5.3381,-5.3231,-5.3155,-5.313,-5.303,-5.2861,-5.2861,-5.303,-5.3306,-5.3632,-5.3833,-5.416,-5.4787,-5.5691,-5.662,-5.7198,-5.7775,-5.8328,-5.883,-5.9081,-5.9458,-6.0186,-6.0412,-6.0085,-5.9031,-5.8981,-5.8805,-5.8805,-5.8956,-5.893,-5.8629,-5.8579,-5.8428,-5.8755,-5.8453,-5.8378,-5.8529,-5.8478,-5.8403,-5.883,-5.9207,-5.9533,-5.9633,-6.006,-6.0311,-4.1172,-4.125,-4.1618,-4.2236,-4.3004,-4.3462,-4.4504,-4.6077,-4.6891,-4.8064,-4.958,-5.0718,-5.1656,-5.2377,-5.2377,-5.2585,-5.2861,-5.2861,-5.2861,-5.2861,-5.2861,-5.2861,-5.2861,-5.2861,-5.2861,-5.2861,-5.2861,-5.2861,-5.2861,-5.2861,-5.2861,-5.2861,-5.2861,-5.2861,-5.2861,-5.2861,-5.2836,-5.276,-5.276,-5.2623,-5.2322,-5.2253,-5.1319,-4.9869,-4.9631,-4.9611,-4.9679,-4.9631,-4.9859,-5.0173,-5.0517,-5.0695,-5.0804,-5.1097,-5.1348,-5.1348,-5.1348,-5.1348,-5.1448,-5.19,-5.2352,-5.2804,-5.3306,-5.3858,-5.4336,-5.4486,-5.4587,-5.4683,-5.4587,-5.4486,-5.4436,-5.3984,-5.3683,-5.3658,-5.3256,-5.3055,-5.3005,-5.3457,-5.3658,-5.3858,-5.4336,-5.4888,-5.5365,-5.6319,-5.7198,-5.7801,-5.8353,-5.8905,-5.9382,-5.9885,-6.0236,-6.0487,-6.0814,-6.1115,-6.1014,-6.0537,-6.0663,-6.0588,-6.0261,-6.0613,-6.0437,-6.0161,-5.9834,-5.9608,-5.9508,-5.9433,-5.9433,-5.9382,-5.9332,-5.9458,-5.9508,-5.9734,-6.0211,-6.0261,-6.0588,-4.1308,-4.1618,-4.2005,-4.2621,-4.3462,-4.4352,-4.5555,-4.6817,-4.7845,-4.8982,-5.0293,-5.1236,-5.1866,-5.2421,-5.2654,-5.2792,-5.2861,-5.2861,-5.2861,-5.2861,-5.2861,-5.2861,-5.2861,-5.2861,-5.2861,-5.2861,-5.2861,-5.2861,-5.2861,-5.2861,-5.2861,-5.2861,-5.2861,-5.2861,-5.2861,-5.2861,-5.2861,-5.2861,-5.2861,-5.2861,-5.2723,-5.2723,-5.236,-5.1805,-5.1299,-5.1068,-5.1092,-5.0999,-5.1206,-5.155,-5.1781,-5.1893,-5.2122,-5.2259,-5.2327,-5.2352,-5.2653,-5.2829,-5.2879,-5.3356,-5.3758,-5.3959,-5.4135,-5.4486,-5.4963,-5.5114,-5.5239,-5.5516,-5.5616,-5.5616,-5.544,-5.4813,-5.426,-5.4235,-5.4084,-5.3934,-5.4009,-5.416,-5.4386,-5.4813,-5.5541,-5.6219,-5.652,-5.7399,-5.8177,-5.8453,-5.9156,-5.9709,-6.0035,-6.0512,-6.0964,-6.1316,-6.1592,-6.1843,-6.2245,-6.1517,-6.1165,-6.114,-6.1065,-6.1014,-6.0889,-6.0864,-6.0588,-6.0437,-6.0412,-6.0261,-6.0136,-5.9784,-5.9809,-6.001,-6.0035,-6.0261,-6.0763,-6.0939,-6.1266,-4.1483,-4.185,-4.237,-4.3136,-4.405,-4.5106,-4.6374,-4.7648,-4.8621,-4.9771,-5.086,-5.1656,-5.2213,-5.2585,-5.2792,-5.2861,-5.2861,-5.2861,-5.2861,-5.2861,-5.2861,-5.2861,-5.2861,-5.2861,-5.2861,-5.2861,-5.2861,-5.2861,-5.2861,-5.2861,-5.2861,-5.2861,-5.2861,-5.2861,-5.2861,-5.2861,-5.2861,-5.2861,-5.2861,-5.2861,-5.2861,-5.2861,-5.2861,-5.2861,-5.2377,-5.2169,-5.2169,-5.2169,-5.2238,-5.2515,-5.2585,-5.2654,-5.2861,-5.2861,-5.3005,-5.3206,-5.3482,-5.3783,-5.3984,-5.4336,-5.4637,-5.4813,-5.4838,-5.5064,-5.5566,-5.5641,-5.5867,-5.6118,-5.6219,-5.6219,-5.6093,-5.5516,-5.5039,-5.4863,-5.4662,-5.4561,-5.4587,-5.4712,-5.5164,-5.5842,-5.647,-5.7022,-5.7374,-5.8152,-5.8579,-5.873,-5.9633,-6.0286,-6.0387,-6.0989,-6.1542,-6.1943,-6.2144,-6.237,-6.2571,-6.2169,-6.1918,-6.1868,-6.1768,-6.1642,-6.1441,-6.1441,-6.1391,-6.1266,-6.1115,-6.0964,-6.0688,-6.0286,-6.0311,-6.0537,-6.0638,-6.0788,-6.124,-6.1667,-6.1918,-4.1483,-4.1927,-4.2697,-4.367,-4.4805,-4.5704,-4.6965,-4.8305,-4.9221,-5.0246,-5.1403,-5.2079,-5.264,-5.2961,-5.3061,-5.303,-5.308,-5.3105,-5.303,-5.2929,-5.2861,-5.2861,-5.2861,-5.2861,-5.2861,-5.2861,-5.2861,-5.2861,-5.2861,-5.2861,-5.2861,-5.2861,-5.2861,-5.2861,-5.2861,-5.2861,-5.2861,-5.2861,-5.2861,-5.2861,-5.2861,-5.2861,-5.2861,-5.2861,-5.2861,-5.2792,-5.2861,-5.2861,-5.2792,-5.2861,-5.2861,-5.2861,-5.2861,-5.298,-5.3181,-5.3582,-5.3733,-5.4034,-5.4486,-5.4662,-5.4988,-5.529,-5.539,-5.5591,-5.5993,-5.6118,-5.6168,-5.6194,-5.6219,-5.6219,-5.6269,-5.6194,-5.5942,-5.5465,-5.5039,-5.4787,-5.4838,-5.5139,-5.5817,-5.6746,-5.7148,-5.7323,-5.7826,-5.8453,-5.8855,-5.9106,-5.9784,-6.0487,-6.0663,-6.1416,-6.1943,-6.2144,-6.2395,-6.2697,-6.2772,-6.2797,-6.2772,-6.2747,-6.2596,-6.2446,-6.2119,-6.1994,-6.1893,-6.1768,-6.1492,-6.1316,-6.1266,-6.0939,-6.0939,-6.1115,-6.119,-6.1366,-6.1818,-6.2195,-6.2345,-4.185,-4.2293,-4.3081,-4.4146,-4.533,-4.6374,-4.7552,-4.8861,-4.9866,-5.0982,-5.2147,-5.2713,-5.3333,-5.3914,-5.4059,-5.4034,-5.4059,-5.4034,-5.3658,-5.3055,-5.2886,-5.2911,-5.2886,-5.2886,-5.2861,-5.2861,-5.2861,-5.2929,-5.2886,-5.2886,-5.2861,-5.2861,-5.2886,-5.2861,-5.2911,-5.2861,-5.2861,-5.2861,-5.2861,-5.2861,-5.2861,-5.2861,-5.2861,-5.2861,-5.2861,-5.2861,-5.2861,-5.2861,-5.2861,-5.2861,-5.2861,-5.2861,-5.298,-5.3281,-5.3532,-5.3758,-5.4461,-5.4913,-5.5139,-5.5465,-5.5717,-5.5917,-5.5942,-5.6018,-5.6168,-5.6219,-5.6219,-5.6219,-5.6219,-5.6344,-5.6671,-5.6771,-5.6545,-5.6018,-5.5792,-5.5867,-5.6168,-5.6696,-5.7223,-5.7575,-5.7951,-5.8278,-5.8504,-5.893,-5.9382,-5.9734,-6.0437,-6.0989,-6.1466,-6.1994,-6.2546,-6.2621,-6.2822,-6.2822,-6.2822,-6.2822,-6.2822,-6.2822,-6.2822,-6.2797,-6.2571,-6.2421,-6.232,-6.2195,-6.1918,-6.1768,-6.1692,-6.1642,-6.1592,-6.1642,-6.1743,-6.2044,-6.2446,-6.2621,-6.2672,-4.2159,-4.2677,-4.3691,-4.473,-4.5928,-4.7112,-4.8396,-4.9695,-5.0723,-5.189,-5.3017,-5.3541,-5.4023,-5.4511,-5.4561,-5.4561,-5.4561,-5.4561,-5.421,-5.3607,-5.3532,-5.3532,-5.3532,-5.3532,-5.3532,-5.3532,-5.3532,-5.3532,-5.3532,-5.3532,-5.3532,-5.3532,-5.3532,-5.3557,-5.3532,-5.3532,-5.3532,-5.3532,-5.3532,-5.3532,-5.3482,-5.3331,-5.3206,-5.3206,-5.303,-5.303,-5.3181,-5.3231,-5.313,-5.3005,-5.3105,-5.3206,-5.3256,-5.3708,-5.411,-5.4436,-5.4938,-5.544,-5.5691,-5.5993,-5.6219,-5.6219,-5.6219,-5.6219,-5.6219,-5.6219,-5.6269,-5.6495,-5.6545,-5.6746,-5.7248,-5.7349,-5.7173,-5.6872,-5.6846,-5.6997,-5.7349,-5.7675,-5.7976,-5.8177,-5.8478,-5.878,-5.9056,-5.9483,-5.9885,-6.0337,-6.0989,-6.1542,-6.2019,-6.2446,-6.2697,-6.2822,-6.2822,-6.2822,-6.2822,-6.2822,-6.2822,-6.2822,-6.2822,-6.2822,-6.2722,-6.2697,-6.2621,-6.2596,-6.2395,-6.232,-6.227,-6.2144,-6.2094,-6.2195,-6.227,-6.2471,-6.2722,-6.2747,-6.2722,-4.2313,-4.3157,-4.4277,-4.548,-4.6692,-4.7913,-4.9355,-5.0889,-5.1752,-5.2784,-5.3871,-5.4398,-5.4687,-5.4687,-5.4838,-5.4838,-5.4687,-5.4787,-5.4813,-5.4687,-5.4637,-5.4587,-5.4386,-5.4361,-5.4361,-5.4411,-5.4436,-5.4461,-5.4386,-5.4386,-5.4561,-5.4436,-5.4386,-5.4511,-5.4411,-5.4511,-5.4436,-5.4386,-5.4461,-5.4461,-5.4436,-5.4034,-5.3758,-5.3733,-5.3381,-5.3331,-5.3683,-5.3758,-5.3532,-5.3181,-5.3557,-5.3758,-5.3858,-5.4285,-5.4838,-5.5214,-5.539,-5.5717,-5.6068,-5.6168,-5.6219,-5.6219,-5.6219,-5.6244,-5.6319,-5.6369,-5.657,-5.7022,-5.7072,-5.7323,-5.7801,-5.7926,-5.7926,-5.7976,-5.7876,-5.7901,-5.7926,-5.8001,-5.8328,-5.8654,-5.8805,-5.8956,-5.9458,-5.9985,-6.0261,-6.0688,-6.1391,-6.1843,-6.2195,-6.2546,-6.2772,-6.2822,-6.2822,-6.2822,-6.2822,-6.2822,-6.2822,-6.2822,-6.2822,-6.2822,-6.2822,-6.2822,-6.2822,-6.2797,-6.2772,-6.2772,-6.2722,-6.2546,-6.2496,-6.2571,-6.2672,-6.2797,-6.2822,-6.2822,-6.2647,-4.2524,-4.3157,-4.4579,-4.5928,-4.7179,-4.8672,-5.0094,-5.1441,-5.2548,-5.3636,-5.4514,-5.5021,-5.539,-5.5742,-5.5742,-5.5792,-5.5717,-5.5742,-5.5792,-5.5792,-5.5792,-5.5265,-5.4712,-5.4587,-5.4612,-5.4683,-5.4687,-5.4561,-5.4561,-5.4662,-5.4637,-5.4561,-5.4662,-5.4612,-5.4561,-5.4637,-5.4561,-5.4561,-5.4587,-5.4612,-5.4587,-5.4461,-5.4336,-5.4336,-5.416,-5.4185,-5.4406,-5.4336,-5.431,-5.416,-5.426,-5.4336,-5.4386,-5.4863,-5.5265,-5.544,-5.5792,-5.6043,-5.6168,-5.6244,-5.6219,-5.6219,-5.6319,-5.6394,-5.6796,-5.6821,-5.7097,-5.7524,-5.7675,-5.7901,-5.8353,-5.8504,-5.8654,-5.8956,-5.8704,-5.8504,-5.8554,-5.8855,-5.9156,-5.9282,-5.9257,-5.9558,-5.9935,-6.0311,-6.0688,-6.1341,-6.1793,-6.2169,-6.2446,-6.2621,-6.2822,-6.2822,-6.2822,-6.2822,-6.2822,-6.2822,-6.2822,-6.2822,-6.2822,-6.2822,-6.2822,-6.2822,-6.2822,-6.2822,-6.2797,-6.2797,-6.2797,-6.2722,-6.2822,-6.2822,-6.2822,-6.2822,-6.2822,-6.2822,-6.2546,-4.283,-4.3615,-4.5031,-4.6374,-4.762,-4.9418,-5.0935,-5.2139,-5.3445,-5.4493,-5.5279,-5.5597,-5.5917,-5.6194,-5.6194,-5.6219,-5.6219,-5.6219,-5.6194,-5.6194,-5.6168,-5.5817,-5.5365,-5.5265,-5.5265,-5.5265,-5.5239,-5.5265,-5.529,-5.5265,-5.5265,-5.5315,-5.5265,-5.5239,-5.5315,-5.5265,-5.5239,-5.5265,-5.5265,-5.5265,-5.5239,-5.5013,-5.4913,-5.4838,-5.4737,-5.4637,-5.4863,-5.5114,-5.5089,-5.4737,-5.4762,-5.4913,-5.4963,-5.5415,-5.5717,-5.5742,-5.6043,-5.6194,-5.6269,-5.642,-5.6545,-5.662,-5.6746,-5.7047,-5.7323,-5.7399,-5.765,-5.8152,-5.8227,-5.8529,-5.8905,-5.9056,-5.9182,-5.9357,-5.9207,-5.9056,-5.9031,-5.9282,-5.9458,-5.9533,-5.9709,-5.9935,-6.0337,-6.0688,-6.1266,-6.1818,-6.2195,-6.2471,-6.2722,-6.2797,-6.2822,-6.2822,-6.2822,-6.2822,-6.2822,-6.2822,-6.2822,-6.2822,-6.2822,-6.2822,-6.2822,-6.2822,-6.2822,-6.2822,-6.2822,-6.2822,-6.2822,-6.2822,-6.2822,-6.2822,-6.2822,-6.2822,-6.2822,-6.2822,-6.2546,-4.3136,-4.4277,-4.548,-4.6743,-4.8105,-5.0071,-5.1681,-5.301,-5.4276,-5.5306,-5.602,-5.6194,-5.6168,-5.6219,-5.6219,-5.6219,-5.6219,-5.6219,-5.6219,-5.6219,-5.6219,-5.6093,-5.6043,-5.5993,-5.6018,-5.6043,-5.6194,-5.6118,-5.6018,-5.6093,-5.6143,-5.6043,-5.6093,-5.6168,-5.6018,-5.6093,-5.6194,-5.6093,-5.6018,-5.5993,-5.5942,-5.5666,-5.5491,-5.5415,-5.5114,-5.5189,-5.5591,-5.5942,-5.5892,-5.5085,-5.534,-5.5591,-5.5666,-5.6093,-5.6394,-5.6445,-5.652,-5.6545,-5.6495,-5.6922,-5.7123,-5.7198,-5.7575,-5.7951,-5.7951,-5.8001,-5.8202,-5.8755,-5.8805,-5.9031,-5.9307,-5.9458,-5.9458,-5.9483,-5.9458,-5.9483,-5.9508,-5.9508,-5.9508,-5.9533,-5.996,-6.0261,-6.0663,-6.124,-6.2019,-6.2195,-6.2496,-6.2647,-6.2797,-6.2797,-6.2822,-6.2822,-6.2822,-6.2822,-6.2822,-6.2822,-6.2822,-6.2822,-6.2822,-6.2822,-6.2822,-6.2822,-6.2822,-6.2822,-6.2822,-6.2822,-6.2822,-6.2822,-6.2822,-6.2822,-6.2822,-6.2822,-6.2822,-6.2822,-6.2672,-4.3136,-4.4298,-4.548,-4.6891,-4.8515,-5.0569,-5.2187,-5.3395,-5.4792,-5.5703,-5.612,-5.6219,-5.6219,-5.6219,-5.6219,-5.6219,-5.6219,-5.6219,-5.6219,-5.6219,-5.6219,-5.6219,-5.6219,-5.6219,-5.6219,-5.6219,-5.6219,-5.6219,-5.6219,-5.6219,-5.6219,-5.6219,-5.6219,-5.6219,-5.6219,-5.6219,-5.6219,-5.6219,-5.6219,-5.6219,-5.6219,-5.6093,-5.5993,-5.5968,-5.5867,-5.6118,-5.657,-5.6796,-5.6947,-5.7047,-5.6872,-5.6671,-5.6746,-5.7148,-5.7399,-5.7399,-5.7449,-5.7474,-5.7549,-5.76,-5.7725,-5.7725,-5.7901,-5.8077,-5.8504,-5.8554,-5.878,-5.9182,-5.9332,-5.9357,-5.9458,-5.9508,-5.9508,-5.9508,-5.9508,-5.9508,-5.9508,-5.9508,-5.9508,-5.9633,-6.001,-6.0487,-6.0939,-6.1567,-6.2144,-6.2546,-6.2722,-6.2797,-6.2822,-6.2822,-6.2822,-6.2822,-6.2822,-6.2822,-6.2822,-6.2822,-6.2822,-6.2822,-6.2822,-6.2822,-6.2822,-6.2822,-6.2822,-6.2822,-6.2822,-6.2822,-6.2822,-6.2822,-6.2822,-6.2822,-6.2822,-6.2822,-6.2822,-6.2822,-6.2772,-4.3518,-4.488,-4.6077,-4.7332,-4.8902,-5.1198,-5.2671,-5.3663,-5.5135,-5.5999,-5.6146,-5.6219,-5.6219,-5.6219,-5.6219,-5.6219,-5.6219,-5.6219,-5.6219,-5.6219,-5.6219,-5.6219,-5.6219,-5.6219,-5.6219,-5.6219,-5.6219,-5.6219,-5.6219,-5.6219,-5.6219,-5.6219,-5.6219,-5.6219,-5.6219,-5.6219,-5.6219,-5.6219,-5.6219,-5.6219,-5.6219,-5.6219,-5.6219,-5.6294,-5.6445,-5.6771,-5.6972,-5.7323,-5.7575,-5.7801,-5.7851,-5.77,-5.7499,-5.7725,-5.7876,-5.7901,-5.7901,-5.7901,-5.7901,-5.8127,-5.8278,-5.8303,-5.8478,-5.878,-5.9006,-5.9081,-5.9182,-5.9408,-5.9483,-5.9483,-5.9508,-5.9508,-5.9508,-5.9508,-5.9508,-5.9508,-5.9508,-5.9508,-5.9633,-5.9885,-6.0412,-6.0964,-6.1492,-6.1969,-6.232,-6.2722,-6.2747,-6.2822,-6.2822,-6.2822,-6.2822,-6.2822,-6.2822,-6.2822,-6.2822,-6.2822,-6.2822,-6.2822,-6.2822,-6.2822,-6.2822,-6.2822,-6.2822,-6.2822,-6.2822,-6.2822,-6.2822,-6.2822,-6.2822,-6.2822,-6.2822,-6.2822,-6.2822,-6.2822,-6.2797,-4.3995,-4.548,-4.667,-4.7845,-4.9217,-5.1706,-5.3058,-5.3613,-5.5426,-5.6219,-5.6219,-5.6219,-5.6219,-5.6219,-5.6219,-5.6219,-5.6219,-5.6219,-5.6219,-5.6219,-5.6219,-5.6219,-5.6219,-5.6219,-5.6219,-5.6219,-5.6219,-5.6219,-5.6219,-5.6219,-5.6219,-5.6219,-5.6219,-5.6219,-5.6219,-5.6219,-5.6219,-5.6219,-5.6219,-5.6219,-5.6219,-5.6219,-5.6244,-5.6495,-5.6721,-5.7148,-5.7449,-5.7801,-5.8077,-5.8152,-5.8579,-5.8529,-5.8303,-5.8152,-5.8152,-5.8177,-5.8278,-5.8328,-5.8403,-5.8604,-5.883,-5.8855,-5.9182,-5.9433,-5.9458,-5.9433,-5.9433,-5.9458,-5.9508,-5.9508,-5.9508,-5.9508,-5.9508,-5.9508,-5.9508,-5.9508,-5.9508,-5.9558,-5.9885,-6.0211,-6.0688,-6.1215,-6.1818,-6.232,-6.2596,-6.2822,-6.2822,-6.2822,-6.2822,-6.2822,-6.2822,-6.2822,-6.2822,-6.2822,-6.2822,-6.2822,-6.2822,-6.2822,-6.2822,-6.2822,-6.2822,-6.2822,-6.2822,-6.2822,-6.2822,-6.2822,-6.2822,-6.2822,-6.2822,-6.2822,-6.2822,-6.2822,-6.2822,-6.2822,-6.2772,-4.3919,-4.548,-4.667,-4.7845,-4.9217,-5.1802,-5.3106,-5.371,-5.5401,-5.6194,-5.6219,-5.6219,-5.6219,-5.6219,-5.6219,-5.6219,-5.6219,-5.6219,-5.6219,-5.6219,-5.6219,-5.6219,-5.6219,-5.6219,-5.6219,-5.6219,-5.6219,-5.6219,-5.6219,-5.6219,-5.6219,-5.6219,-5.6219,-5.6219,-5.6219,-5.6219,-5.6219,-5.6219,-5.6219,-5.6219,-5.6219,-5.6294,-5.647,-5.6796,-5.7072,-5.7575,-5.8227,-5.8504,-5.878,-5.9182,-5.9307,-5.9282,-5.9156,-5.9131,-5.9106,-5.9081,-5.9081,-5.9031,-5.9081,-5.9232,-5.9357,-5.9382,-5.9433,-5.9483,-5.9508,-5.9508,-5.9508,-5.9508,-5.9508,-5.9508,-5.9508,-5.9508,-5.9508,-5.9508,-5.9508,-5.9533,-5.9608,-5.9859,-6.0236,-6.0563,-6.0989,-6.1441,-6.2069,-6.2521,-6.2697,-6.2822,-6.2822,-6.2822,-6.2822,-6.2822,-6.2822,-6.2822,-6.2822,-6.2822,-6.2822,-6.2822,-6.2822,-6.2822,-6.2822,-6.2822,-6.2822,-6.2822,-6.2822,-6.2822,-6.2822,-6.2822,-6.2822,-6.2822,-6.2822,-6.2822,-6.2822,-6.2822,-6.2822,-6.2822,-6.2822,-4.4428,-4.5853,-4.7208,-4.8499,-4.9793,-5.1848,-5.3148,-5.3852,-5.5199,-5.5942,-5.6143,-5.6219,-5.6219,-5.6219,-5.6219,-5.6219,-5.6219,-5.6219,-5.6219,-5.6219,-5.6219,-5.6219,-5.6219,-5.6219,-5.6219,-5.6219,-5.6219,-5.6219,-5.6219,-5.6219,-5.6219,-5.6219,-5.6219,-5.6219,-5.6219,-5.6219,-5.6219,-5.6219,-5.6219,-5.6219,-5.6269,-5.6445,-5.6821,-5.7047,-5.76,-5.8177,-5.8579,-5.9031,-5.9232,-5.9433,-5.9483,-5.9508,-5.9508,-5.9508,-5.9508,-5.9508,-5.9508,-5.9508,-5.9508,-5.9508,-5.9483,-5.9483,-5.9508,-5.9508,-5.9508,-5.9508,-5.9508,-5.9508,-5.9508,-5.9508,-5.9508,-5.9508,-5.9508,-5.9508,-5.9508,-5.9633,-5.9885,-6.0161,-6.0563,-6.0964,-6.1466,-6.1918,-6.2345,-6.2672,-6.2772,-6.2822,-6.2822,-6.2822,-6.2822,-6.2822,-6.2822,-6.2822,-6.2822,-6.2822,-6.2822,-6.2822,-6.2822,-6.2822,-6.2822,-6.2822,-6.2822,-6.2822,-6.2822,-6.2822,-6.2822,-6.2822,-6.2822,-6.2822,-6.2822,-6.2822,-6.2822,-6.2822,-6.2822,-6.2822,-6.2822,-4.5031,-4.6225,-4.7868,-4.9101,-5.0246,-5.1866,-5.3116,-5.4017,-5.5021,-5.5717,-5.6168,-5.6219,-5.6219,-5.6219,-5.6219,-5.6219,-5.6219,-5.6219,-5.6219,-5.6219,-5.6219,-5.6219,-5.6219,-5.6219,-5.6219,-5.6219,-5.6219,-5.6219,-5.6219,-5.6219,-5.6219,-5.6219,-5.6219,-5.6219,-5.6219,-5.6219,-5.6219,-5.6219,-5.6219,-5.6244,-5.647,-5.6796,-5.7198,-5.7374,-5.8252,-5.873,-5.8956,-5.9232,-5.9408,-5.9483,-5.9508,-5.9508,-5.9508,-5.9508,-5.9508,-5.9508,-5.9508,-5.9508,-5.9508,-5.9508,-5.9508,-5.9508,-5.9508,-5.9508,-5.9508,-5.9508,-5.9508,-5.9508,-5.9508,-5.9508,-5.9508,-5.9508,-5.9508,-5.9508,-5.9533,-5.9684,-6.0111,-6.0537,-6.104,-6.1466,-6.1943,-6.2295,-6.2647,-6.2722,-6.2822,-6.2822,-6.2822,-6.2822,-6.2822,-6.2822,-6.2822,-6.2822,-6.2822,-6.2822,-6.2822,-6.2822,-6.2822,-6.2822,-6.2822,-6.2822,-6.2822,-6.2822,-6.2822,-6.2822,-6.2822,-6.2822,-6.2822,-6.2822,-6.2822,-6.2822,-6.2822,-6.2822,-6.2822,-6.2822,-6.2822,-4.5405,-4.667,-4.8186,-4.9365,-5.0318,-5.1913,-5.3162,-5.4113,-5.497,-5.5691,-5.6194,-5.6219,-5.6219,-5.6219,-5.6219,-5.6219,-5.6219,-5.6219,-5.6219,-5.6219,-5.6219,-5.6219,-5.6219,-5.6219,-5.6219,-5.6219,-5.6219,-5.6219,-5.6219,-5.6219,-5.6219,-5.6219,-5.6219,-5.6219,-5.6219,-5.6219,-5.6219,-5.6219,-5.6219,-5.6445,-5.6772,-5.7047,-5.7625,-5.8227,-5.8654,-5.8956,-5.9257,-5.9433,-5.9483,-5.9508,-5.9508,-5.9508,-5.9508,-5.9508,-5.9508,-5.9508,-5.9508,-5.9508,-5.9508,-5.9508,-5.9508,-5.9508,-5.9508,-5.9508,-5.9508,-5.9508,-5.9508,-5.9508,-5.9508,-5.9508,-5.9508,-5.9508,-5.9508,-5.9533,-5.9583,-5.9859,-6.0286,-6.0939,-6.1441,-6.1893,-6.2345,-6.2546,-6.2797,-6.2797,-6.2822,-6.2822,-6.2822,-6.2772,-6.2747,-6.2672,-6.2822,-6.2822,-6.2822,-6.2822,-6.2822,-6.2822,-6.2822,-6.2822,-6.2822,-6.2822,-6.2822,-6.2822,-6.2822,-6.2822,-6.2822,-6.2822,-6.2822,-6.2822,-6.2822,-6.2822,-6.2822,-6.2822,-6.2822,-6.2822,-6.2822,-4.6077,-4.7038,-4.8331,-4.9628,-5.0767,-5.1761,-5.2985,-5.4202,-5.4741,-5.5415,-5.6093,-5.6219,-5.6219,-5.6219,-5.6219,-5.6219,-5.6219,-5.6219,-5.6219,-5.6219,-5.6219,-5.6219,-5.6219,-5.6219,-5.6219,-5.6219,-5.6219,-5.6219,-5.6219,-5.6219,-5.6219,-5.6219,-5.6219,-5.6219,-5.6219,-5.6219,-5.6219,-5.6294,-5.6495,-5.6796,-5.7123,-5.7575,-5.8202,-5.8704,-5.8981,-5.9257,-5.9408,-5.9508,-5.9508,-5.9508,-5.9508,-5.9508,-5.9508,-5.9508,-5.9508,-5.9508,-5.9508,-5.9508,-5.9508,-5.9508,-5.9508,-5.9508,-5.9508,-5.9508,-5.9508,-5.9508,-5.9508,-5.9508,-5.9508,-5.9508,-5.9508,-5.9508,-5.9508,-5.9558,-5.9759,-6.0286,-6.0738,-6.1291,-6.1868,-6.2295,-6.2647,-6.2747,-6.2797,-6.2747,-6.2697,-6.2672,-6.2521,-6.2345,-6.232,-6.2295,-6.2521,-6.2822,-6.2822,-6.2822,-6.2822,-6.2822,-6.2822,-6.2822,-6.2822,-6.2822,-6.2822,-6.2822,-6.2822,-6.2822,-6.2822,-6.2822,-6.2822,-6.2822,-6.2822,-6.2822,-6.2822,-6.2822,-6.2822,-6.2822,-6.2822,-4.6596,-4.7575,-4.8621,-4.9914,-5.1211,-5.1656,-5.2858,-5.4511,-5.4587,-5.5189,-5.5968,-5.6219,-5.6219,-5.6219,-5.6219,-5.6219,-5.6219,-5.6219,-5.6219,-5.6219,-5.6219,-5.6219,-5.6219,-5.6219,-5.6219,-5.6219,-5.6219,-5.6219,-5.6219,-5.6219,-5.6219,-5.6219,-5.6219,-5.6219,-5.6219,-5.6219,-5.6219,-5.6244,-5.6721,-5.7072,-5.7424,-5.8202,-5.8654,-5.8981,-5.9257,-5.9508,-5.9508,-5.9508,-5.9508,-5.9508,-5.9508,-5.9508,-5.9508,-5.9508,-5.9508,-5.9508,-5.9508,-5.9508,-5.9508,-5.9508,-5.9508,-5.9508,-5.9508,-5.9508,-5.9508,-5.9508,-5.9508,-5.9508,-5.9508,-5.9508,-5.9508,-5.9508,-5.9633,-5.9809,-6.006,-6.0663,-6.124,-6.1692,-6.2094,-6.2496,-6.2747,-6.2772,-6.2772,-6.2647,-6.2571,-6.2521,-6.2295,-6.1943,-6.1943,-6.1969,-6.2345,-6.2722,-6.2822,-6.2822,-6.2822,-6.2822,-6.2822,-6.2822,-6.2822,-6.2822,-6.2822,-6.2822,-6.2822,-6.2822,-6.2822,-6.2822,-6.2822,-6.2822,-6.2822,-6.2822,-6.2822,-6.2822,-6.2822,-6.2822,-6.2822,-4.6891,-4.84,-4.915,-5.0151,-5.1211,-5.1656,-5.2858,-5.4536,-5.4561,-5.5189,-5.6143,-5.6219,-5.6219,-5.6219,-5.6219,-5.6219,-5.6219,-5.6219,-5.6219,-5.6219,-5.6219,-5.6219,-5.6244,-5.6244,-5.6294,-5.6294,-5.6445,-5.642,-5.6294,-5.652,-5.6369,-5.6219,-5.6294,-5.6244,-5.6219,-5.6219,-5.6269,-5.642,-5.6872,-5.7399,-5.7851,-5.8478,-5.8956,-5.9307,-5.9458,-5.9508,-5.9508,-5.9508,-5.9508,-5.9508,-5.9508,-5.9508,-5.9508,-5.9508,-5.9508,-5.9508,-5.9508,-5.9508,-5.9508,-5.9508,-5.9508,-5.9508,-5.9508,-5.9508,-5.9508,-5.9508,-5.9508,-5.9508,-5.9508,-5.9508,-5.9508,-5.9533,-5.9684,-6.006,-6.0387,-6.0939,-6.1466,-6.1893,-6.2295,-6.2672,-6.2822,-6.2772,-6.2471,-6.227,-6.2295,-6.2245,-6.1667,-6.1316,-6.1718,-6.1868,-6.227,-6.2621,-6.2772,-6.2822,-6.2822,-6.2822,-6.2822,-6.2822,-6.2822,-6.2822,-6.2822,-6.2822,-6.2822,-6.2822,-6.2822,-6.2822,-6.2822,-6.2822,-6.2822,-6.2822,-6.2822,-6.2822,-6.2822,-6.2822,-6.2822,-4.6891,-4.8473,-4.946,-5.053,-5.1586,-5.2005,-5.3138,-5.4461,-5.4587,-5.5189,-5.6219,-5.6219,-5.6219,-5.6219,-5.6219,-5.6219,-5.6219,-5.6219,-5.6219,-5.6219,-5.6219,-5.6219,-5.6294,-5.6545,-5.6721,-5.6796,-5.7022,-5.7248,-5.7273,-5.7123,-5.7223,-5.7123,-5.662,-5.6269,-5.6219,-5.6344,-5.6445,-5.6821,-5.7273,-5.7826,-5.8378,-5.8905,-5.9307,-5.9458,-5.9508,-5.9508,-5.9508,-5.9508,-5.9508,-5.9508,-5.9508,-5.9508,-5.9508,-5.9508,-5.9508,-5.9508,-5.9508,-5.9508,-5.9508,-5.9508,-5.9508,-5.9508,-5.9508,-5.9508,-5.9508,-5.9508,-5.9508,-5.9508,-5.9508,-5.9508,-5.9508,-5.9508,-5.9684,-6.0211,-6.0738,-6.1291,-6.1768,-6.2195,-6.2421,-6.2772,-6.2747,-6.2672,-6.2245,-6.1818,-6.1893,-6.1893,-6.1266,-6.0839,-6.1316,-6.1718,-6.2094,-6.2571,-6.2772,-6.2822,-6.2822,-6.2822,-6.2822,-6.2822,-6.2822,-6.2822,-6.2822,-6.2822,-6.2822,-6.2822,-6.2873,-6.2923,-6.2923,-6.2847,-6.2822,-6.2847,-6.2847,-6.2822,-6.2822,-6.2822,-6.2822,-4.6965,-4.845,-4.9747,-5.086,-5.182,-5.2238,-5.3278,-5.4436,-5.4561,-5.5189,-5.6194,-5.6219,-5.6219,-5.6219,-5.6219,-5.6219,-5.6219,-5.6219,-5.6219,-5.6294,-5.6394,-5.6445,-5.6646,-5.6947,-5.7298,-5.7399,-5.76,-5.7826,-5.7775,-5.7876,-5.7801,-5.7549,-5.7173,-5.6872,-5.6771,-5.6746,-5.6922,-5.7323,-5.7851,-5.8278,-5.8755,-5.9182,-5.9458,-5.9508,-5.9508,-5.9508,-5.9508,-5.9508,-5.9508,-5.9508,-5.9508,-5.9508,-5.9508,-5.9508,-5.9508,-5.9508,-5.9508,-5.9508,-5.9508,-5.9508,-5.9508,-5.9508,-5.9508,-5.9508,-5.9508,-5.9508,-5.9508,-5.9508,-5.9508,-5.9508,-5.9533,-5.9659,-6.006,-6.0638,-6.119,-6.1718,-6.2144,-6.2571,-6.2647,-6.2822,-6.2647,-6.237,-6.1969,-6.1441,-6.0964,-6.0964,-6.0537,-6.0462,-6.114,-6.1517,-6.1868,-6.2345,-6.2797,-6.2822,-6.2822,-6.2822,-6.2822,-6.2822,-6.2822,-6.2822,-6.2822,-6.2847,-6.2847,-6.2847,-6.2923,-6.3023,-6.3199,-6.3375,-6.3174,-6.2873,-6.2898,-6.2948,-6.2822,-6.2822,-6.2822,-4.6965,-4.8523,-4.9985,-5.1071,-5.182,-5.2238,-5.3278,-5.4536,-5.4712,-5.5265,-5.6168,-5.6219,-5.6219,-5.6219,-5.6219,-5.6219,-5.6219,-5.6219,-5.6269,-5.6394,-5.6696,-5.6848,-5.7223,-5.7524,-5.7876,-5.7901,-5.8102,-5.8202,-5.8052,-5.8177,-5.8102,-5.8077,-5.7976,-5.775,-5.7851,-5.7826,-5.7851,-5.7951,-5.8428,-5.8629,-5.8905,-5.9282,-5.9458,-5.9508,-5.9508,-5.9508,-5.9508,-5.9508,-5.9508,-5.9508,-5.9508,-5.9508,-5.9508,-5.9508,-5.9508,-5.9508,-5.9508,-5.9508,-5.9508,-5.9508,-5.9508,-5.9508,-5.9508,-5.9508,-5.9508,-5.9508,-5.9508,-5.9508,-5.9583,-5.9583,-5.9709,-6.001,-6.0563,-6.1065,-6.1617,-6.2019,-6.2446,-6.2722,-6.2797,-6.2747,-6.2345,-6.1943,-6.1567,-6.1065,-6.0286,-5.9885,-5.9633,-6.0035,-6.0939,-6.1492,-6.1868,-6.2295,-6.2822,-6.2822,-6.2822,-6.2822,-6.2822,-6.2822,-6.2822,-6.2822,-6.2898,-6.2998,-6.2973,-6.2948,-6.3249,-6.3601,-6.3827,-6.4053,-6.3726,-6.3425,-6.3149,-6.3099,-6.2948,-6.2973,-6.3174,-4.6965,-4.8523,-4.9985,-5.1071,-5.182,-5.2446,-5.3487,-5.4587,-5.5315,-5.5867,-5.6143,-5.6219,-5.6219,-5.6219,-5.6219,-5.6219,-5.6219,-5.6244,-5.6294,-5.6771,-5.7047,-5.7273,-5.765,-5.8102,-5.8428,-5.8554,-5.8704,-5.888,-5.9006,-5.883,-5.8905,-5.8956,-5.8755,-5.8554,-5.8077,-5.7926,-5.8027,-5.8403,-5.8679,-5.888,-5.9207,-5.9408,-5.9508,-5.9508,-5.9508,-5.9508,-5.9508,-5.9508,-5.9508,-5.9508,-5.9508,-5.9508,-5.9508,-5.9508,-5.9508,-5.9508,-5.9508,-5.9508,-5.9508,-5.9508,-5.9508,-5.9508,-5.9508,-5.9508,-5.9508,-5.9508,-5.9508,-5.9608,-5.9834,-5.9935,-6.0136,-6.0588,-6.109,-6.1567,-6.2019,-6.227,-6.2571,-6.2722,-6.2797,-6.2672,-6.237,-6.1492,-6.0939,-6.0638,-5.996,-5.996,-5.9885,-6.0261,-6.104,-6.1617,-6.2069,-6.2446,-6.2822,-6.2822,-6.2822,-6.2822,-6.2822,-6.2822,-6.2822,-6.2822,-6.2923,-6.3149,-6.3324,-6.3425,-6.3827,-6.4228,-6.4429,-6.4555,-6.4329,-6.4053,-6.3952,-6.3776,-6.3701,-6.3827,-6.4002,-4.6965,-4.8523,-4.9866,-5.0954,-5.182,-5.2585,-5.3557,-5.4637,-5.5691,-5.6219,-5.6219,-5.6219,-5.6219,-5.6219,-5.6219,-5.6219,-5.6244,-5.6445,-5.657,-5.7097,-5.7524,-5.7851,-5.8278,-5.8679,-5.893,-5.9106,-5.9257,-5.9458,-5.9382,-5.9458,-5.9433,-5.9408,-5.9483,-5.9081,-5.8654,-5.8604,-5.8679,-5.8956,-5.9081,-5.9156,-5.9382,-5.9508,-5.9508,-5.9508,-5.9508,-5.9508,-5.9508,-5.9508,-5.9508,-5.9508,-5.9508,-5.9508,-5.9508,-5.9508,-5.9508,-5.9508,-5.9508,-5.9508,-5.9508,-5.9508,-5.9508,-5.9508,-5.9508,-5.9508,-5.9508,-5.9508,-5.9659,-5.9859,-6.0161,-6.0412,-6.0663,-6.114,-6.1567,-6.2044,-6.227,-6.2546,-6.2647,-6.2797,-6.2672,-6.2546,-6.2019,-6.114,-6.0337,-6.006,-5.9659,-5.996,-6.0261,-6.0738,-6.1165,-6.1718,-6.222,-6.2596,-6.2822,-6.2822,-6.2822,-6.2822,-6.2822,-6.2822,-6.2873,-6.2923,-6.3199,-6.345,-6.3676,-6.3977,-6.4404,-6.4781,-6.5007,-6.5057,-6.5007,-6.5032,-6.5057,-6.4856,-6.458,-6.4555,-6.463,-4.6913,-4.8473,-4.9604,-5.0742,-5.182,-5.2684,-5.3658,-5.4662,-5.5742,-5.6219,-5.6219,-5.6219,-5.6219,-5.6219,-5.6219,-5.6269,-5.6369,-5.6771,-5.7072,-5.7424,-5.8077,-5.8478,-5.883,-5.9182,-5.9307,-5.9408,-5.9508,-5.9508,-5.9508,-5.9508,-5.9508,-5.9508,-5.9508,-5.9332,-5.9282,-5.9232,-5.9282,-5.9332,-5.9357,-5.9382,-5.9483,-5.9508,-5.9508,-5.9508,-5.9508,-5.9508,-5.9508,-5.9508,-5.9508,-5.9508,-5.9508,-5.9508,-5.9508,-5.9508,-5.9508,-5.9508,-5.9508,-5.9508,-5.9633,-5.9659,-5.9759,-5.9834,-5.9759,-5.9633,-5.9608,-5.9709,-5.9935,-6.0261,-6.0613,-6.0889,-6.1165,-6.1592,-6.2019,-6.232,-6.2546,-6.2697,-6.2772,-6.2722,-6.2521,-6.2144,-6.1517,-6.0763,-5.996,-5.9558,-5.9709,-6.0136,-6.0512,-6.0989,-6.1441,-6.1893,-6.2345,-6.2647,-6.2822,-6.2822,-6.2822,-6.2822,-6.2822,-6.2822,-6.3023,-6.3149,-6.345,-6.3827,-6.4203,-6.458,-6.5007,-6.5308,-6.5509,-6.571,-6.5886,-6.5886,-6.571,-6.5534,-6.5132,-6.4957,-6.4931,-4.6965,-4.8473,-4.9604,-5.0742,-5.1943,-5.3478,-5.4285,-5.4712,-5.5717,-5.6219,-5.6219,-5.6219,-5.6219,-5.6219,-5.6219,-5.6445,-5.6721,-5.7072,-5.7625,-5.8102,-5.8554,-5.893,-5.9207,-5.9408,-5.9483,-5.9508,-5.9508,-5.9508,-5.9508,-5.9508,-5.9508,-5.9508,-5.9508,-5.9508,-5.9508,-5.9508,-5.9508,-5.9508,-5.9508,-5.9508,-5.9508,-5.9508,-5.9508,-5.9508,-5.9508,-5.9508,-5.9508,-5.9508,-5.9508,-5.9508,-5.9508,-5.9508,-5.9508,-5.9508,-5.9508,-5.9508,-5.9533,-5.9633,-5.9985,-6.0085,-6.0211,-6.0487,-6.0588,-6.0412,-6.0261,-6.0186,-6.0362,-6.0763,-6.114,-6.1441,-6.1718,-6.2119,-6.2395,-6.2571,-6.2722,-6.2772,-6.2797,-6.2647,-6.2395,-6.1718,-6.109,-6.0412,-5.9633,-5.9608,-5.9834,-6.0286,-6.0788,-6.1291,-6.1718,-6.2195,-6.2446,-6.2747,-6.2822,-6.2822,-6.2822,-6.2822,-6.2822,-6.2873,-6.3124,-6.345,-6.3827,-6.4254,-6.4731,-6.5132,-6.5459,-6.5735,-6.5986,-6.6112,-6.6112,-6.6112,-6.5961,-6.586,-6.5735,-6.5509,-6.5409,-4.6596,-4.8013,-4.915,-5.0459,-5.1993,-5.3803,-5.4561,-5.4762,-5.5742,-5.6219,-5.6219,-5.6219,-5.6219,-5.6219,-5.6244,-5.6495,-5.7022,-5.7349,-5.7851,-5.8453,-5.8905,-5.9182,-5.9433,-5.9508,-5.9508,-5.9508,-5.9508,-5.9508,-5.9508,-5.9508,-5.9508,-5.9508,-5.9508,-5.9508,-5.9508,-5.9508,-5.9508,-5.9508,-5.9508,-5.9508,-5.9508,-5.9508,-5.9508,-5.9508,-5.9508,-5.9508,-5.9508,-5.9508,-5.9508,-5.9508,-5.9508,-5.9633,-5.9809,-6.001,-6.0186,-6.0236,-6.0261,-6.0412,-6.0613,-6.0663,-6.0889,-6.109,-6.124,-6.114,-6.0989,-6.0889,-6.1115,-6.1416,-6.1743,-6.2069,-6.2345,-6.2596,-6.2697,-6.2822,-6.2822,-6.2822,-6.2722,-6.2596,-6.2019,-6.1316,-6.0663,-6.0035,-5.9709,-5.9734,-6.0035,-6.0663,-6.124,-6.1768,-6.2144,-6.2496,-6.2647,-6.2797,-6.2822,-6.2822,-6.2822,-6.2898,-6.3023,-6.3124,-6.3375,-6.3726,-6.4178,-6.4655,-6.5132,-6.5509,-6.586,-6.6036,-6.6112,-6.6112,-6.6112,-6.6112,-6.6112,-6.6011,-6.5961,-6.5911,-6.5886,-4.6151,-4.7332,-4.8572,-5.0246,-5.2017,-5.3853,-5.4612,-5.4808,-5.5767,-5.6219,-5.6219,-5.6219,-5.6219,-5.6244,-5.6344,-5.6696,-5.7248,-5.7725,-5.8252,-5.878,-5.9182,-5.9458,-5.9458,-5.9508,-5.9508,-5.9508,-5.9508,-5.9508,-5.9508,-5.9508,-5.9508,-5.9508,-5.9508,-5.9508,-5.9508,-5.9508,-5.9508,-5.9508,-5.9508,-5.9508,-5.9508,-5.9508,-5.9508,-5.9508,-5.9508,-5.9508,-5.9508,-5.9508,-5.9508,-5.9508,-5.9633,-5.9859,-6.0362,-6.0738,-6.0989,-6.104,-6.0914,-6.1065,-6.1165,-6.124,-6.1341,-6.1391,-6.1341,-6.1642,-6.1718,-6.1466,-6.1592,-6.1918,-6.227,-6.2395,-6.2621,-6.2697,-6.2797,-6.2822,-6.2822,-6.2697,-6.2496,-6.2119,-6.1366,-6.0738,-6.0236,-5.9684,-5.9684,-5.9734,-6.0261,-6.0989,-6.1567,-6.2094,-6.2471,-6.2772,-6.2797,-6.2822,-6.2822,-6.2847,-6.2898,-6.2998,-6.3249,-6.345,-6.3751,-6.4178,-6.4731,-6.5157,-6.5534,-6.5785,-6.6011,-6.6061,-6.6112,-6.6112,-6.6112,-6.6112,-6.6112,-6.6112,-6.6112,-6.6112,-6.6112,-4.6077,-4.7406,-4.97,-5.136,-5.253,-5.3978,-5.4813,-5.5239,-5.5892,-5.6219,-5.6219,-5.6219,-5.6219,-5.6244,-5.662,-5.7072,-5.765,-5.8152,-5.878,-5.9131,-5.9458,-5.9483,-5.9508,-5.9508,-5.9508,-5.9508,-5.9508,-5.9508,-5.9508,-5.9508,-5.9508,-5.9508,-5.9508,-5.9508,-5.9508,-5.9508,-5.9508,-5.9508,-5.9508,-5.9508,-5.9508,-5.9508,-5.9508,-5.9508,-5.9508,-5.9508,-5.9508,-5.9508,-5.9508,-5.9533,-5.9935,-6.0387,-6.0939,-6.114,-6.119,-6.119,-6.1316,-6.1517,-6.1718,-6.1818,-6.1943,-6.2245,-6.237,-6.2496,-6.2421,-6.2044,-6.2019,-6.2395,-6.2621,-6.2722,-6.2772,-6.2797,-6.2822,-6.2822,-6.2747,-6.2496,-6.2245,-6.1492,-6.0713,-6.0236,-5.9784,-5.9684,-5.9659,-6.0035,-6.0537,-6.109,-6.1642,-6.2144,-6.2521,-6.2822,-6.2822,-6.2822,-6.2822,-6.2847,-6.2948,-6.3199,-6.3525,-6.3977,-6.4354,-6.4806,-6.5283,-6.5559,-6.5835,-6.5961,-6.6112,-6.6112,-6.6112,-6.6112,-6.6112,-6.6112,-6.6112,-6.6112,-6.6112,-6.6112,-6.6112,-4.5704,-4.6965,-4.9771,-5.1574,-5.2773,-5.4052,-5.4888,-5.5415,-5.5968,-5.6219,-5.6219,-5.6219,-5.6219,-5.6294,-5.6796,-5.7374,-5.7951,-5.8453,-5.893,-5.9332,-5.9508,-5.9508,-5.9508,-5.9508,-5.9508,-5.9508,-5.9508,-5.9508,-5.9508,-5.9508,-5.9508,-5.9508,-5.9508,-5.9508,-5.9508,-5.9508,-5.9508,-5.9508,-5.9508,-5.9508,-5.9508,-5.9508,-5.9508,-5.9508,-5.9508,-5.9508,-5.9508,-5.9508,-5.9508,-5.9759,-6.0261,-6.0939,-6.1466,-6.1843,-6.1943,-6.1969,-6.2019,-6.2044,-6.227,-6.2395,-6.2471,-6.2722,-6.2822,-6.2722,-6.2722,-6.2395,-6.2395,-6.2722,-6.2722,-6.2797,-6.2797,-6.2822,-6.2822,-6.2822,-6.2421,-6.2044,-6.1542,-6.0839,-6.0261,-5.9859,-5.9659,-5.9759,-5.991,-6.0462,-6.0989,-6.1542,-6.2044,-6.232,-6.2672,-6.2822,-6.2822,-6.2873,-6.2898,-6.3099,-6.3324,-6.3576,-6.3877,-6.4354,-6.4881,-6.5258,-6.5634,-6.5886,-6.6112,-6.6112,-6.6112,-6.6112,-6.6112,-6.6112,-6.6112,-6.6112,-6.6112,-6.6112,-6.6112,-6.6026,-6.594,-4.5578,-4.6758,-4.9579,-5.1459,-5.2801,-5.4152,-5.5013,-5.5541,-5.5993,-5.6219,-5.6219,-5.6219,-5.6219,-5.6495,-5.6897,-5.7449,-5.8052,-5.8704,-5.9156,-5.9382,-5.9483,-5.9508,-5.9508,-5.9508,-5.9508,-5.9508,-5.9508,-5.9508,-5.9508,-5.9508,-5.9508,-5.9508,-5.9508,-5.9508,-5.9508,-5.9508,-5.9508,-5.9508,-5.9508,-5.9508,-5.9508,-5.9508,-5.9508,-5.9508,-5.9508,-5.9508,-5.9508,-5.9508,-5.9508,-5.991,-6.0487,-6.124,-6.1868,-6.2295,-6.2546,-6.2596,-6.2571,-6.2621,-6.2747,-6.2722,-6.2772,-6.2822,-6.2822,-6.2822,-6.2797,-6.2797,-6.2772,-6.2772,-6.2772,-6.2797,-6.2797,-6.2672,-6.2672,-6.2521,-6.2019,-6.1517,-6.0889,-6.0286,-5.991,-5.9533,-5.9633,-5.9784,-6.0261,-6.0814,-6.1391,-6.1943,-6.237,-6.2621,-6.2822,-6.2822,-6.2822,-6.2948,-6.3073,-6.3299,-6.3601,-6.3952,-6.4228,-6.4781,-6.5283,-6.5634,-6.5911,-6.6036,-6.6112,-6.6112,-6.6112,-6.6112,-6.6112,-6.6112,-6.6112,-6.6026,-6.594,-6.5853,-6.5767,-6.5681,-6.5594,-4.6942,-4.8657,-5.0554,-5.2088,-5.3318,-5.4677,-5.5541,-5.6018,-5.6143,-5.6219,-5.6219,-5.6244,-5.642,-5.6922,-5.7474,-5.8001,-5.8453,-5.9006,-5.9282,-5.9483,-5.9508,-5.9508,-5.9508,-5.9508,-5.9508,-5.9508,-5.9508,-5.9508,-5.9508,-5.9508,-5.9508,-5.9508,-5.9508,-5.9508,-5.9508,-5.9508,-5.9508,-5.9508,-5.9508,-5.9508,-5.9508,-5.9508,-5.9508,-5.9508,-5.9508,-5.9508,-5.9508,-5.9508,-5.9508,-5.9834,-6.0487,-6.1266,-6.1893,-6.2395,-6.2647,-6.2747,-6.2747,-6.2822,-6.2822,-6.2822,-6.2822,-6.2822,-6.2822,-6.2772,-6.2747,-6.2722,-6.2672,-6.2621,-6.2621,-6.2672,-6.2621,-6.227,-6.2119,-6.1793,-6.1366,-6.0914,-6.0362,-5.9985,-5.9633,-5.9533,-5.9608,-5.991,-6.0362,-6.0914,-6.1492,-6.2019,-6.2521,-6.2772,-6.2822,-6.2822,-6.2822,-6.2998,-6.3174,-6.3425,-6.3701,-6.4228,-6.4605,-6.5157,-6.5609,-6.586,-6.6011,-6.6061,-6.6112,-6.6112,-6.6112,-6.6112,-6.6112,-6.6026,-6.6026,-6.594,-6.5681,-6.5508,-6.5421,-6.5248,-6.4988]}]]